SondeTracker

Meteorological Radiosondes Database

Operations

Sounding was ended - last measurement: 2022-12-06 13:14:58z

MAP
About Radiosonde

Number: U2220557

Launch Site: Salem [OR] (US)

Type: RS41

AUX: NO

Frequency: 401.40 MHz

Max Speed: 120 km/h at 33350 m

Average Speed: 45.48 km/h

Max Altitude: 34788 m

Average Ascent Speed: 5.25 m/s

Average Descent Speed: 26.83 m/s

Status: UNKNOWN

Status Changes
Launch Site Type AUX Frequency Status Finder Landing Point Description Changes made by
APRS Statistics

Received Frames: 1543

First Frame [UTC]: 2022-12-06 11:05:48z

Last Frame [UTC]: 2022-12-06 13:14:58z

Receivers: K6GDP-11, K6GDP-14, KE7WWC, KG7GDB-12, KJ7NUX-14, W7BDB-12, W7BDB-13, WA9ONY-10, WA9ONY-14

Flight Time: 02:09:10 h

Distance From First Measurement: 83.73 km

Nearest City: Sweet Home [OR] (US) [39.27 km]

Nearest Hunter: kg7bz [39.02 km]

Ground Altitude: 838 m

Distance from QTH: 0.00 km

APRS Data
Receiver Number Date/Time [UTC] φ λ Course [°] Speed [km/h] Altitude [m] Description
K6GDP-11U22205572022-12-06 13:14:5844.4184-122.209128172215Clb=-16.8m/s t=-5.0C h=66.7% p=771.7hPa 401.400 MHz Type=RS41-SGP ser=U2220557 Radiosonde
K6GDP-11U22205572022-12-06 13:14:1744.4196-122.21166172750Clb=-17.9m/s t=-6.3C h=45.7% p=721.1hPa 401.400 MHz Type=RS41-SGP ser=U2220557 Radiosonde
WA9ONY-14U22205572022-12-06 13:14:0544.4199-122.21157132909Clb=-17.9m/s p=706.4hPa t=-7.3C h=48.0% 401.40MHz Type=RS41-SGP Join https://groups.io/g/Balloons
WA9ONY-10U22205572022-12-06 13:14:0444.4199-122.21157132909Clb=-17.9m/s p=706.4hPa t=-7.3C h=48.0% 401.40MHz Type=RS41-SGP Join https://groups.io/g/Balloons
WA9ONY-14U22205572022-12-06 13:13:5844.4201-122.21179132997Clb=-18.2m/s p=698.4hPa t=-8.0C h=47.1% 401.40MHz Type=RS41-SGP Join https://groups.io/g/Balloons
WA9ONY-10U22205572022-12-06 13:13:5044.4203-122.21178133103Clb=-18.1m/s p=689.1hPa t=-8.9C h=48.9% 401.40MHz Type=RS41-SGP batt=2.6V Join https://groups.io/g/Balloons
WA9ONY-14U22205572022-12-06 13:13:4444.4204-122.21175133174Clb=-18.5m/s p=682.6hPa t=-9.5C h=53.5% 401.40MHz Type=RS41-SGP batt=2.6V Join https://groups.io/g/Balloons
WA9ONY-10U22205572022-12-06 13:13:3644.4206-122.21175133281Clb=-18.6m/s p=673.2hPa t=-10.3C h=52.7% 401.40MHz Type=RS41-SGP Join https://groups.io/g/Balloons
WA9ONY-14U22205572022-12-06 13:13:2944.4207-122.21159113352Clb=-18.2m/s p=667.2hPa t=-10.8C h=54.9% 401.40MHz Type=RS41-SGP Join https://groups.io/g/Balloons
WA9ONY-10U22205572022-12-06 13:13:2044.4209-122.21149113460Clb=-18.8m/s p=657.6hPa t=-11.4C h=50.2% 401.40MHz Type=RS41-SGP Join https://groups.io/g/Balloons
WA9ONY-14U22205572022-12-06 13:13:1544.421-122.21141113532Clb=-18.7m/s p=651.5hPa t=-11.8C h=48.5% 401.40MHz Type=RS41-SGP Join https://groups.io/g/Balloons
WA9ONY-10U22205572022-12-06 13:13:0544.4211-122.21151153641Clb=-18.8m/s p=642.2hPa t=-12.5C h=45.8% 401.40MHz Type=RS41-SGP batt=2.5V Join https://groups.io/g/Balloons
WA9ONY-14U22205572022-12-06 13:12:5844.4212-122.211149173713Clb=-18.5m/s p=636.4hPa t=-13.0C h=43.8% 401.40MHz Type=RS41-SGP batt=2.5V Join https://groups.io/g/Balloons
WA9ONY-10U22205572022-12-06 13:12:5144.4215-122.211152153821Clb=-18.4m/s p=627.4hPa t=-13.8C h=46.7% 401.40MHz Type=RS41-SGP Join https://groups.io/g/Balloons
K6GDP-11U22205572022-12-06 13:12:4944.4216-122.211154153893Clb=-18.4m/s t=-14.4C h=47.4% p=621.5hPa 401.400 MHz Type=RS41-SGP ser=U2220557 Radiosonde
WA9ONY-14U22205572022-12-06 13:12:4444.4216-122.211155153893Clb=-18.4m/s p=621.5hPa t=-14.3C h=47.8% 401.40MHz Type=RS41-SGP Join https://groups.io/g/Balloons
WA9ONY-10U22205572022-12-06 13:12:3644.4218-122.211160194001Clb=-18.2m/s p=612.7hPa t=-14.9C h=48.0% 401.40MHz Type=RS41-SGP Join https://groups.io/g/Balloons
WA9ONY-14U22205572022-12-06 13:12:3144.422-122.211174174072Clb=-18.2m/s p=606.9hPa t=-15.4C h=48.4% 401.40MHz Type=RS41-SGP Join https://groups.io/g/Balloons
WA9ONY-10U22205572022-12-06 13:12:2144.4222-122.211169174179Clb=-18.4m/s p=598.4hPa t=-16.2C h=50.5% 401.40MHz Type=RS41-SGP TxOff=8h17m batt=2.5V Join https://groups.io/g/Balloons
WA9ONY-14U22205572022-12-06 13:12:1644.4224-122.211151194251Clb=-19.0m/s p=592.7hPa t=-16.7C h=47.9% 401.40MHz Type=RS41-SGP TxOff=8h17m batt=2.5V Join https://groups.io/g/Balloons
WA9ONY-10U22205572022-12-06 13:12:0944.4226-122.211158194362Clb=-18.6m/s p=584.1hPa t=-17.5C h=48.5% 401.40MHz Type=RS41-SGP Join https://groups.io/g/Balloons
K6GDP-11U22205572022-12-06 13:12:0744.4228-122.211157194416Clb=-18.8m/s t=-17.6C h=39.1% p=580.0hPa 401.400 MHz Type=RS41-SGP ser=U2220557 Radiosonde
WA9ONY-14U22205572022-12-06 13:12:0444.4228-122.211150204435Clb=-18.5m/s p=578.5hPa t=-17.5C h=37.5% 401.40MHz Type=RS41-SGP Join https://groups.io/g/Balloons
WA9ONY-14U22205572022-12-06 13:12:0144.4232-122.212156204617Clb=-19.3m/s p=564.8hPa t=-18.4C h=42.6% 401.40MHz Type=RS41-SGP Join https://groups.io/g/Balloons
WA9ONY-14U22205572022-12-06 13:12:0044.4237-122.212160284802Clb=-19.6m/s p=550.7hPa t=-19.5C h=34.5% 401.40MHz Type=RS41-SGP batt=2.5V Join https://groups.io/g/Balloons
WA9ONY-10U22205572022-12-06 13:11:5944.4241-122.212164284916Clb=-19.6m/s p=542.2hPa t=-19.8C h=26.5% 401.40MHz Type=RS41-SGP Join https://groups.io/g/Balloons
WA9ONY-14U22205572022-12-06 13:11:5744.4244-122.212156204992Clb=-19.0m/s p=536.9hPa t=-20.2C h=23.8% 401.40MHz Type=RS41-SGP Join https://groups.io/g/Balloons
WA9ONY-10U22205572022-12-06 13:11:5644.4247-122.213149175105Clb=-19.7m/s p=528.7hPa t=-20.4C h=14.6% 401.40MHz Type=RS41-SGP Join https://groups.io/g/Balloons
WA9ONY-14U22205572022-12-06 13:11:5544.4248-122.213137195182Clb=-20.1m/s p=523.2hPa t=-20.7C h=15.4% 401.40MHz Type=RS41-SGP Join https://groups.io/g/Balloons
WA9ONY-10U22205572022-12-06 13:11:5444.425-122.213124205299Clb=-19.8m/s p=515.1hPa t=-21.5C h=17.9% 401.40MHz Type=RS41-SGP batt=2.6V Join https://groups.io/g/Balloons
WA9ONY-14U22205572022-12-06 13:11:5344.4251-122.213130225377Clb=-20.0m/s p=509.7hPa t=-22.2C h=19.8% 401.40MHz Type=RS41-SGP batt=2.6V Join https://groups.io/g/Balloons
WA9ONY-10U22205572022-12-06 13:11:5244.4253-122.214123225495Clb=-20.0m/s p=501.6hPa t=-23.3C h=23.0% 401.40MHz Type=RS41-SGP Join https://groups.io/g/Balloons
WA9ONY-14U22205572022-12-06 13:11:5044.4254-122.214133225573Clb=-20.4m/s p=496.3hPa t=-23.9C h=26.1% 401.40MHz Type=RS41-SGP Join https://groups.io/g/Balloons
WA9ONY-10U22205572022-12-06 13:11:4944.4256-122.214127225691Clb=-19.7m/s p=488.2hPa t=-24.9C h=29.1% 401.40MHz Type=RS41-SGP Join https://groups.io/g/Balloons
WA9ONY-14U22205572022-12-06 13:11:4844.4258-122.214128225769Clb=-20.1m/s p=483.1hPa t=-25.7C h=30.2% 401.40MHz Type=RS41-SGP Join https://groups.io/g/Balloons
WA9ONY-10U22205572022-12-06 13:11:4744.426-122.215140225887Clb=-20.6m/s p=475.0hPa t=-26.8C h=33.2% 401.40MHz Type=RS41-SGP TxOff=8h19m batt=2.6V Join https://groups.io/g/Balloons
WA9ONY-14U22205572022-12-06 13:11:4644.4261-122.215133225966Clb=-20.3m/s p=470.1hPa t=-27.5C h=30.7% 401.40MHz Type=RS41-SGP TxOff=8h19m batt=2.5V Join https://groups.io/g/Balloons
WA9ONY-10U22205572022-12-06 13:11:4544.4264-122.215140266084Clb=-20.6m/s p=462.4hPa t=-28.5C h=31.3% 401.40MHz Type=RS41-SGP Join https://groups.io/g/Balloons
WA9ONY-14U22205572022-12-06 13:11:4444.4266-122.215145266164Clb=-20.8m/s p=457.2hPa t=-29.2C h=34.9% 401.40MHz Type=RS41-SGP Join https://groups.io/g/Balloons
WA9ONY-10U22205572022-12-06 13:11:4244.4269-122.216142266285Clb=-20.7m/s p=449.5hPa t=-30.1C h=36.0% 401.40MHz Type=RS41-SGP Join https://groups.io/g/Balloons
WA9ONY-14U22205572022-12-06 13:11:4044.4271-122.216142286367Clb=-21.1m/s p=444.4hPa t=-30.9C h=35.3% 401.40MHz Type=RS41-SGP Join https://groups.io/g/Balloons
WA9ONY-10U22205572022-12-06 13:11:3944.4275-122.216153286491Clb=-21.1m/s p=436.6hPa t=-32.1C h=33.7% 401.40MHz Type=RS41-SGP batt=2.6V Join https://groups.io/g/Balloons
K6GDP-11U22205572022-12-06 13:11:3844.4286-122.217148316852Clb=-22.5m/s t=-35.0C h=32.0% p=414.9hPa 401.400 MHz Type=RS41-SGP ser=U2220557 Radiosonde
WA9ONY-10U22205572022-12-06 13:11:3744.4304-122.218157397358Clb=-22.9m/s p=385.9hPa t=-39.2C h=40.0% 401.40MHz Type=RS41-SGP Join https://groups.io/g/Balloons
WA9ONY-10U22205572022-12-06 13:11:3644.4313-122.219153397583Clb=-23.3m/s p=373.4hPa t=-40.9C h=37.5% 401.40MHz Type=RS41-SGP Join https://groups.io/g/Balloons
WA9ONY-14U22205572022-12-06 13:11:3444.4316-122.219153437674Clb=-23.1m/s p=368.5hPa t=-41.5C h=35.9% 401.40MHz Type=RS41-SGP Join https://groups.io/g/Balloons
WA9ONY-10U22205572022-12-06 13:11:3244.4321-122.22148447811Clb=-23.3m/s p=361.2hPa t=-42.1C h=23.9% 401.40MHz Type=RS41-SGP TxOff=8h20m batt=2.6V Join https://groups.io/g/Balloons
KJ7NUX-14U22205572022-12-06 13:11:3144.4322-122.22152467834Clb=-23.6m/s p=360.0hPa t=-42.0C h=20.3% 401.40MHz Type=RS41-SGP batt=2.6V Details on http://radiosondy.info
WA9ONY-14U22205572022-12-06 13:11:2944.4325-122.22155447903Clb=-23.3m/s p=356.2hPa t=-42.5C h=16.8% 401.40MHz Type=RS41-SGP TxOff=8h20m batt=2.5V Join https://groups.io/g/Balloons
WA9ONY-10U22205572022-12-06 13:11:2644.4331-122.22149488040Clb=-22.7m/s p=349.0hPa t=-43.6C h=16.7% 401.40MHz Type=RS41-SGP Join https://groups.io/g/Balloons
WA9ONY-14U22205572022-12-06 13:11:2344.4335-122.221149508128Clb=-22.9m/s p=344.4hPa t=-44.2C h=17.5% 401.40MHz Type=RS41-SGP Join https://groups.io/g/Balloons
K6GDP-11U22205572022-12-06 13:11:2044.434-122.221150468239Clb=-22.6m/s t=-45.1C h=12.8% p=338.8hPa 401.400 MHz Type=RS41-SGP ser=U2220557 Radiosonde
WA9ONY-10U22205572022-12-06 13:11:1844.4342-122.221151488261Clb=-22.8m/s p=337.8hPa t=-45.1C h=13.6% 401.40MHz Type=RS41-SGP Join https://groups.io/g/Balloons
WA9ONY-14U22205572022-12-06 13:11:1544.4346-122.222152448351Clb=-23.0m/s p=333.2hPa t=-45.8C h=11.2% 401.40MHz Type=RS41-SGP Join https://groups.io/g/Balloons
WA9ONY-10U22205572022-12-06 13:11:0844.4352-122.222158438479Clb=-20.9m/s p=326.7hPa t=-46.8C h=11.3% 401.40MHz Type=RS41-SGP batt=2.5V Join https://groups.io/g/Balloons
WA9ONY-14U22205572022-12-06 13:11:0144.4356-122.222158438563Clb=-21.4m/s p=322.7hPa t=-47.5C h=12.4% 401.40MHz Type=RS41-SGP batt=2.5V Join https://groups.io/g/Balloons
KJ7NUX-14U22205572022-12-06 13:11:0044.4357-122.222162418584Clb=-22.0m/s p=321.7hPa t=-47.6C h=12.6% 401.40MHz Type=RS41-SGP Details on http://radiosondy.info
WA9ONY-10U22205572022-12-06 13:10:5344.4362-122.222160418697Clb=-22.9m/s p=316.3hPa t=-48.5C h=13.5% 401.40MHz Type=RS41-SGP Join https://groups.io/g/Balloons
WA9ONY-14U22205572022-12-06 13:10:4844.4366-122.223164398788Clb=-22.9m/s p=312.0hPa t=-49.3C h=13.9% 401.40MHz Type=RS41-SGP Join https://groups.io/g/Balloons
K6GDP-11U22205572022-12-06 13:10:4044.4372-122.223162398921Clb=-22.9m/s t=-50.4C h=11.3% p=305.7hPa 401.400 MHz Type=RS41-SGP ser=U2220557 Radiosonde
WA9ONY-10U22205572022-12-06 13:10:3944.4372-122.223163378921Clb=-22.9m/s p=305.7hPa t=-50.3C h=13.5% 401.40MHz Type=RS41-SGP Join https://groups.io/g/Balloons
KJ7NUX-14U22205572022-12-06 13:10:3744.4373-122.223158358943Clb=-22.8m/s 401.40MHz Type=RS41-SGP batt=2.6V Details on http://radiosondy.info
WA9ONY-14U22205572022-12-06 13:10:3344.4375-122.223157399012Clb=-23.4m/s p=301.5hPa t=-50.9C h=13.6% 401.40MHz Type=RS41-SGP Join https://groups.io/g/Balloons
WA9ONY-10U22205572022-12-06 13:10:2344.438-122.223157399150Clb=-22.5m/s p=295.1hPa t=-51.9C h=14.1% 401.40MHz Type=RS41-SGP batt=2.5V Join https://groups.io/g/Balloons
WA9ONY-14U22205572022-12-06 13:10:1644.4384-122.224163399239Clb=-22.2m/s p=291.2hPa t=-52.5C h=14.3% 401.40MHz Type=RS41-SGP batt=2.6V Join https://groups.io/g/Balloons
WA9ONY-10U22205572022-12-06 13:10:0744.439-122.224169359375Clb=-23.3m/s p=285.3hPa t=-53.3C h=15.3% 401.40MHz Type=RS41-SGP Join https://groups.io/g/Balloons
WA9ONY-14U22205572022-12-06 13:09:5844.4393-122.224171379466Clb=-24.0m/s p=281.2hPa t=-53.9C h=16.2% 401.40MHz Type=RS41-SGP Join https://groups.io/g/Balloons
WA9ONY-10U22205572022-12-06 13:09:4844.4398-122.224165419609Clb=-23.5m/s p=274.9hPa t=-54.8C h=17.9% 401.40MHz Type=RS41-SGP Join https://groups.io/g/Balloons
WA9ONY-14U22205572022-12-06 13:09:4144.4402-122.224177419703Clb=-23.3m/s p=270.9hPa t=-55.4C h=18.8% 401.40MHz Type=RS41-SGP Join https://groups.io/g/Balloons
WA9ONY-10U22205572022-12-06 13:09:3044.4408-122.224178399842Clb=-23.8m/s p=264.9hPa t=-56.4C h=21.0% 401.40MHz Type=RS41-SGP TxOff=8h22m batt=2.5V Join https://groups.io/g/Balloons
WA9ONY-14U22205572022-12-06 13:09:2244.4412-122.224181379936Clb=-24.7m/s p=261.4hPa t=-57.3C h=22.3% 401.40MHz Type=RS41-SGP TxOff=8h22m batt=2.4V Join https://groups.io/g/Balloons
WA9ONY-10U22205572022-12-06 13:09:1344.4418-122.2241753310079Clb=-24.1m/s p=255.4hPa t=-58.3C h=24.5% 401.40MHz Type=RS41-SGP Join https://groups.io/g/Balloons
WA9ONY-14U22205572022-12-06 13:09:0644.4422-122.2241713110176Clb=-25.0m/s p=251.5hPa t=-59.0C h=25.5% 401.40MHz Type=RS41-SGP Join https://groups.io/g/Balloons
WA9ONY-10U22205572022-12-06 13:08:5644.4426-122.2251693710323Clb=-24.8m/s p=245.6hPa t=-59.7C h=26.2% 401.40MHz Type=RS41-SGP Join https://groups.io/g/Balloons
K6GDP-11U22205572022-12-06 13:08:5244.4428-122.2251722810371Clb=-23.8m/s t=-59.3C h=20.5% p=243.8hPa 401.400 MHz Type=RS41-SGP ser=U2220557 Radiosonde
KJ7NUX-14U22205572022-12-06 13:08:5044.4429-122.2251723910395Clb=-24.2m/s p=242.8hPa t=-59.2C h=25.1% 401.40MHz Type=RS41-SGP Details on http://radiosondy.info
WA9ONY-14U22205572022-12-06 13:08:4844.443-122.2251664110419Clb=-24.0m/s p=242.0hPa t=-59.1C h=25.0% 401.40MHz Type=RS41-SGP Join https://groups.io/g/Balloons
WA9ONY-10U22205572022-12-06 13:08:3944.4436-122.2251794110566Clb=-26.1m/s p=236.4hPa t=-58.8C h=22.4% 401.40MHz Type=RS41-SGP batt=2.5V Join https://groups.io/g/Balloons
WA9ONY-14U22205572022-12-06 13:08:3344.444-122.2251813910672Clb=-25.8m/s p=232.6hPa t=-59.6C h=22.3% 401.40MHz Type=RS41-SGP batt=2.4V Join https://groups.io/g/Balloons
KJ7NUX-14U22205572022-12-06 13:08:2444.4445-122.2251723510797Clb=-25.8m/s p=227.9hPa t=-59.8C h=19.7% 401.40MHz Type=RS41-SGP Details on http://radiosondy.info
WA9ONY-10U22205572022-12-06 13:08:2244.4446-122.2251693710823Clb=-25.6m/s p=227.0hPa t=-59.7C h=18.9% 401.40MHz Type=RS41-SGP Join https://groups.io/g/Balloons
WA9ONY-14U22205572022-12-06 13:08:1444.4449-122.2251793510925Clb=-25.6m/s p=223.3hPa t=-59.4C h=16.7% 401.40MHz Type=RS41-SGP Join https://groups.io/g/Balloons
WA9ONY-10U22205572022-12-06 13:08:0244.4455-122.2251702811081Clb=-26.7m/s p=218.0hPa t=-58.6C h=14.3% 401.40MHz Type=RS41-SGP Join https://groups.io/g/Balloons
K6GDP-11U22205572022-12-06 13:07:5644.4457-122.2251703011162Clb=-27.2m/s t=-59.1C h=9.7% p=215.4hPa 401.400 MHz Type=RS41-SGP ser=U2220557 Radiosonde
WA9ONY-14U22205572022-12-06 13:07:5344.4458-122.2251693111190Clb=-28.7m/s p=214.3hPa t=-59.3C h=13.3% 401.40MHz Type=RS41-SGP Join https://groups.io/g/Balloons
KJ7NUX-14U22205572022-12-06 13:07:5244.4458-122.2251593911218Clb=-28.3m/s p=213.3hPa t=-59.5C h=13.1% 401.40MHz Type=RS41-SGP TxOff=8h23m batt=2.4V Details on http://radiosondy.info
WA9ONY-10U22205572022-12-06 13:07:4244.4461-122.2251474411351Clb=-27.1m/s p=208.7hPa t=-59.8C h=11.2% 401.40MHz Type=RS41-SGP batt=2.4V Join https://groups.io/g/Balloons
WA9ONY-14U22205572022-12-06 13:07:3344.4464-122.2261455011462Clb=-28.1m/s p=205.0hPa t=-59.8C h=10.0% 401.40MHz Type=RS41-SGP batt=2.5V Join https://groups.io/g/Balloons
WA9ONY-10U22205572022-12-06 13:07:2244.4471-122.2261575411626Clb=-26.6m/s p=199.9hPa t=-57.5C h=7.9% 401.40MHz Type=RS41-SGP Join https://groups.io/g/Balloons
KJ7NUX-14U22205572022-12-06 13:07:2144.4472-122.2261615011651Clb=-26.5m/s p=199.0hPa t=-57.5C h=7.9% 401.40MHz Type=RS41-SGP Details on http://radiosondy.info
WA9ONY-14U22205572022-12-06 13:07:1644.4476-122.2261655011729Clb=-26.4m/s p=196.6hPa t=-57.3C h=7.3% 401.40MHz Type=RS41-SGP Join https://groups.io/g/Balloons
W7BDB-12U22205572022-12-06 13:07:1044.4484-122.2271725011888Clb=-27.1m/s t=-58.1C h=3.8% p=191.7hPa 401.399 MHz Type=RS41-SGP ser=U2220557 Radiosonde
WA9ONY-10U22205572022-12-06 13:07:0644.4484-122.2271734311889Clb=-27.1m/s p=191.6hPa t=-58.1C h=6.9% 401.40MHz Type=RS41-SGP Join https://groups.io/g/Balloons
K6GDP-11U22205572022-12-06 13:07:0044.4488-122.2271624311998Clb=-27.9m/s t=-57.3C h=3.2% p=188.4hPa 401.400 MHz Type=RS41-SGP ser=U2220557 Radiosonde
WA9ONY-14U22205572022-12-06 13:06:5944.4488-122.2271634111998Clb=-27.9m/s p=188.4hPa t=-57.2C h=6.0% 401.40MHz Type=RS41-SGP Join https://groups.io/g/Balloons
KJ7NUX-14U22205572022-12-06 13:06:5544.4491-122.2271605612081Clb=-27.7m/s p=185.9hPa t=-56.9C h=5.6% 401.40MHz Type=RS41-SGP Details on http://radiosondy.info
WA9ONY-10U22205572022-12-06 13:06:4944.4494-122.2271474312165Clb=-28.8m/s p=183.6hPa t=-57.2C h=5.6% 401.40MHz Type=RS41-SGP TxOff=8h23m batt=2.4V Join https://groups.io/g/Balloons
WA9ONY-14U22205572022-12-06 13:06:4244.4497-122.2271325012280Clb=-29.1m/s p=180.3hPa t=-57.5C h=5.4% 401.40MHz Type=RS41-SGP TxOff=8h23m batt=2.5V Join https://groups.io/g/Balloons
WA9ONY-10U22205572022-12-06 13:06:3544.4501-122.2281285912449Clb=-26.3m/s p=175.3hPa t=-57.3C h=5.3% 401.40MHz Type=RS41-SGP Join https://groups.io/g/Balloons
WA9ONY-14U22205572022-12-06 13:06:2944.4505-122.2291276112556Clb=-27.7m/s p=172.5hPa t=-57.4C h=5.3% 401.40MHz Type=RS41-SGP Join https://groups.io/g/Balloons
WA9ONY-10U22205572022-12-06 13:06:2144.4511-122.231406112730Clb=-30.0m/s p=167.8hPa t=-56.5C h=4.9% 401.40MHz Type=RS41-SGP Join https://groups.io/g/Balloons
WA9ONY-14U22205572022-12-06 13:06:1544.4516-122.231455912848Clb=-30.5m/s p=164.9hPa t=-56.6C h=5.0% 401.40MHz Type=RS41-SGP Join https://groups.io/g/Balloons
K6GDP-11U22205572022-12-06 13:06:1444.4517-122.231455912878Clb=-30.6m/s t=-56.7C h=2.2% p=164.1hPa 401.400 MHz Type=RS41-SGP ser=U2220557 Radiosonde
WA9ONY-10U22205572022-12-06 13:06:0444.4524-122.2311495413031Clb=-31.6m/s p=160.2hPa t=-56.5C h=5.0% 401.40MHz Type=RS41-SGP batt=2.5V Join https://groups.io/g/Balloons
W7BDB-13U22205572022-12-06 13:06:0244.4526-122.2311445413093Clb=-31.2m/s p=158.6hPa t=-56.2C h=4.9% 401.40MHz Type=RS41-SGP TxOff=8h24m batt=2.5V Details on http://radiosondy.info
WA9ONY-14U22205572022-12-06 13:05:5944.4528-122.2311415213154Clb=-31.3m/s p=157.0hPa t=-56.0C h=4.8% 401.40MHz Type=RS41-SGP batt=2.4V Join https://groups.io/g/Balloons
WA9ONY-10U22205572022-12-06 13:05:5044.4534-122.2321355413344Clb=-31.8m/s p=152.6hPa t=-55.2C h=4.5% 401.40MHz Type=RS41-SGP Join https://groups.io/g/Balloons
WA9ONY-14U22205572022-12-06 13:05:4544.4538-122.2331315713469Clb=-31.5m/s p=149.5hPa t=-54.8C h=4.2% 401.40MHz Type=RS41-SGP Join https://groups.io/g/Balloons
W7BDB-13U22205572022-12-06 13:05:3944.454-122.2331305913559Clb=-29.5m/s p=147.4hPa t=-54.6C h=4.3% 401.40MHz Type=RS41-SGP Details on http://radiosondy.info
WA9ONY-10U22205572022-12-06 13:05:3544.4543-122.2341305913651Clb=-32.4m/s p=145.4hPa t=-54.3C h=4.1% 401.40MHz Type=RS41-SGP Join https://groups.io/g/Balloons
WA9ONY-14U22205572022-12-06 13:05:2944.4547-122.2341265913777Clb=-31.2m/s p=142.6hPa t=-54.5C h=4.1% 401.40MHz Type=RS41-SGP Join https://groups.io/g/Balloons
K6GDP-11U22205572022-12-06 13:05:2744.4549-122.2341295913839Clb=-31.3m/s t=-54.5C h=1.7% p=141.2hPa 401.400 MHz Type=RS41-SGP ser=U2220557 Radiosonde
WA9ONY-10U22205572022-12-06 13:05:2044.4552-122.2351305913963Clb=-32.8m/s p=138.5hPa t=-54.9C h=4.2% 401.40MHz Type=RS41-SGP batt=2.6V Join https://groups.io/g/Balloons
W7BDB-13U22205572022-12-06 13:05:1844.4554-122.2351255914028Clb=-33.3m/s p=137.2hPa t=-54.9C h=4.2% 401.40MHz Type=RS41-SGP Details on http://radiosondy.info
WA9ONY-14U22205572022-12-06 13:05:1544.4556-122.2361225714094Clb=-33.5m/s p=135.9hPa t=-55.0C h=4.2% 401.40MHz Type=RS41-SGP batt=2.5V Join https://groups.io/g/Balloons
WA9ONY-10U22205572022-12-06 13:05:0544.456-122.2371175914292Clb=-33.9m/s p=131.7hPa t=-55.7C h=4.5% 401.40MHz Type=RS41-SGP Join https://groups.io/g/Balloons
WA9ONY-14U22205572022-12-06 13:04:5844.4562-122.2381146114430Clb=-34.7m/s p=129.0hPa t=-55.5C h=4.3% 401.40MHz Type=RS41-SGP Join https://groups.io/g/Balloons
W7BDB-13U22205572022-12-06 13:04:5444.4564-122.2381126514532Clb=-33.0m/s p=126.8hPa t=-55.7C h=4.4% 401.40MHz Type=RS41-SGP batt=2.5V Details on http://radiosondy.info
WA9ONY-10U22205572022-12-06 13:04:4944.4565-122.2391096514628Clb=-32.5m/s p=124.9hPa t=-55.9C h=4.3% 401.40MHz Type=RS41-SGP Join https://groups.io/g/Balloons
WA9ONY-14U22205572022-12-06 13:04:4344.4568-122.241136714761Clb=-35.3m/s p=122.5hPa t=-56.3C h=4.5% 401.40MHz Type=RS41-SGP Join https://groups.io/g/Balloons
K6GDP-11U22205572022-12-06 13:04:3944.457-122.241186314866Clb=-35.7m/s t=-55.5C h=1.6% p=120.5hPa 401.400 MHz Type=RS41-SGP ser=U2220557 Radiosonde
WA9ONY-10U22205572022-12-06 13:04:3144.4572-122.2411216914972Clb=-35.9m/s p=118.4hPa t=-55.8C h=4.2% 401.40MHz Type=RS41-SGP TxOff=8h25m batt=2.5V Join https://groups.io/g/Balloons
W7BDB-13U22205572022-12-06 13:04:2544.4575-122.2411246915076Clb=-33.9m/s p=116.5hPa t=-56.4C h=4.3% 401.40MHz Type=RS41-SGP Details on http://radiosondy.info
WA9ONY-14U22205572022-12-06 13:04:2344.4576-122.2421256915110Clb=-33.8m/s p=115.9hPa t=-56.5C h=4.4% 401.40MHz Type=RS41-SGP TxOff=8h25m batt=2.6V Join https://groups.io/g/Balloons
WA9ONY-10U22205572022-12-06 13:04:1444.4582-122.2431296715316Clb=-35.9m/s p=112.2hPa t=-56.7C h=4.3% 401.40MHz Type=RS41-SGP Join https://groups.io/g/Balloons
WA9ONY-14U22205572022-12-06 13:04:0644.4586-122.2441296915459Clb=-35.3m/s p=109.7hPa t=-56.9C h=4.4% 401.40MHz Type=RS41-SGP Join https://groups.io/g/Balloons
W7BDB-13U22205572022-12-06 13:03:5944.459-122.2441346515597Clb=-34.4m/s p=107.4hPa t=-57.1C h=4.4% 401.40MHz Type=RS41-SGP Details on http://radiosondy.info
WA9ONY-10U22205572022-12-06 13:03:5544.4593-122.2451356915666Clb=-35.5m/s p=106.3hPa t=-57.2C h=4.4% 401.40MHz Type=RS41-SGP Join https://groups.io/g/Balloons
WA9ONY-14U22205572022-12-06 13:03:4844.4598-122.2451396115808Clb=-35.5m/s p=103.8hPa t=-57.6C h=4.6% 401.40MHz Type=RS41-SGP Join https://groups.io/g/Balloons
K6GDP-11U22205572022-12-06 13:03:4144.4604-122.2461365915982Clb=-36.2m/s t=-58.3C h=1.7% p=101.1hPa 401.400 MHz Type=RS41-SGP ser=U2220557 Radiosonde
WA9ONY-10U22205572022-12-06 13:03:3544.4605-122.2461395216019Clb=-36.1m/s p=100.5hPa t=-58.6C h=4.8% 401.40MHz Type=RS41-SGP batt=2.5V Join https://groups.io/g/Balloons
W7BDB-13U22205572022-12-06 13:03:3044.4608-122.2471415216127Clb=-37.1m/s p=98.8hPa t=-58.9C h=5.0% 401.40MHz Type=RS41-SGP batt=2.6V Details on http://radiosondy.info
WA9ONY-14U22205572022-12-06 13:03:2744.4609-122.2471345016164Clb=-37.4m/s p=98.3hPa t=-58.7C h=4.9% 401.40MHz Type=RS41-SGP batt=2.4V Join https://groups.io/g/Balloons
WA9ONY-10U22205572022-12-06 13:03:2044.4613-122.2481235716387Clb=-37.5m/s p=94.9hPa t=-58.3C h=4.7% 401.40MHz Type=RS41-SGP Join https://groups.io/g/Balloons
WA9ONY-14U22205572022-12-06 13:03:1444.4616-122.2481156116533Clb=-36.2m/s p=92.6hPa t=-58.5C h=4.8% 401.40MHz Type=RS41-SGP Join https://groups.io/g/Balloons
W7BDB-13U22205572022-12-06 13:03:0944.4618-122.2491166916679Clb=-37.2m/s p=90.6hPa t=-57.9C h=4.5% 401.40MHz Type=RS41-SGP Details on http://radiosondy.info
WA9ONY-10U22205572022-12-06 13:03:0744.462-122.2491176916753Clb=-38.0m/s p=89.3hPa t=-58.0C h=4.6% 401.40MHz Type=RS41-SGP Join https://groups.io/g/Balloons
KG7GDB-12U22205572022-12-06 13:03:0444.4623-122.251227216908Clb=-39.9m/s t=-57.7C h=1.4% p=87.5hPa 401.401 MHz Type=RS41-SGP ser=U2220557 Radiosonde
WA9ONY-14U22205572022-12-06 13:03:0244.4623-122.251236916908Clb=-39.8m/s p=87.4hPa t=-57.7C h=4.4% 401.40MHz Type=RS41-SGP Join https://groups.io/g/Balloons
K6GDP-11U22205572022-12-06 13:02:5544.4628-122.2511256717100Clb=-37.6m/s t=-57.9C h=1.4% p=84.8hPa 401.400 MHz Type=RS41-SGP ser=U2220557 Radiosonde
WA9ONY-10U22205572022-12-06 13:02:5244.4629-122.2511266517138Clb=-38.4m/s p=84.2hPa t=-57.9C h=4.5% 401.40MHz Type=RS41-SGP batt=2.5V Join https://groups.io/g/Balloons
WA9ONY-14U22205572022-12-06 13:02:4644.4633-122.2521246517296Clb=-40.9m/s p=82.4hPa t=-58.0C h=4.6% 401.40MHz Type=RS41-SGP batt=2.4V Join https://groups.io/g/Balloons
WA9ONY-10U22205572022-12-06 13:02:3844.4639-122.2531277017543Clb=-44.5m/s p=79.3hPa t=-58.0C h=4.5% 401.40MHz Type=RS41-SGP Join https://groups.io/g/Balloons
WA9ONY-14U22205572022-12-06 13:02:3244.4643-122.2541316917712Clb=-41.4m/s p=77.1hPa t=-58.2C h=4.6% 401.40MHz Type=RS41-SGP Join https://groups.io/g/Balloons
KJ7NUX-14U22205572022-12-06 13:02:2944.4645-122.2541335617794Clb=-41.9m/s p=76.0hPa t=-58.4C h=4.6% 401.40MHz Type=RS41-SGP batt=2.6V Details on http://radiosondy.info
WA9ONY-10U22205572022-12-06 13:02:2244.465-122.2551346117964Clb=-44.6m/s p=74.2hPa t=-58.3C h=4.5% 401.40MHz Type=RS41-SGP Join https://groups.io/g/Balloons
W7BDB-12U22205572022-12-06 13:02:1544.4658-122.2561335418280Clb=-45.8m/s t=-57.9C h=1.2% p=70.6hPa 401.399 MHz Type=RS41-SGP ser=U2220557 Radiosonde
WA9ONY-10U22205572022-12-06 13:02:0444.4661-122.2571275018416Clb=-45.8m/s p=69.0hPa t=-57.0C h=3.9% 401.40MHz Type=RS41-SGP TxOff=8h26m batt=2.6V Join https://groups.io/g/Balloons
WA9ONY-14U22205572022-12-06 13:01:5744.4664-122.2571245018596Clb=-44.9m/s p=67.1hPa t=-57.4C h=4.0% 401.40MHz Type=RS41-SGP TxOff=8h26m batt=2.5V Join https://groups.io/g/Balloons
W7BDB-13U22205572022-12-06 13:01:5444.4665-122.2571255018685Clb=-44.2m/s p=66.1hPa t=-57.9C h=4.1% 401.40MHz Type=RS41-SGP Details on http://radiosondy.info
WA9ONY-10U22205572022-12-06 13:01:4944.4668-122.2581215018859Clb=-44.5m/s p=64.3hPa t=-58.9C h=4.5% 401.40MHz Type=RS41-SGP Join https://groups.io/g/Balloons
WA9ONY-14U22205572022-12-06 13:01:4444.467-122.2591205019036Clb=-44.8m/s p=62.6hPa t=-59.1C h=4.5% 401.40MHz Type=RS41-SGP Join https://groups.io/g/Balloons
WA9ONY-10U22205572022-12-06 13:01:3744.4674-122.2591265219310Clb=-47.4m/s p=59.9hPa t=-58.9C h=4.5% 401.40MHz Type=RS41-SGP Join https://groups.io/g/Balloons
W7BDB-13U22205572022-12-06 13:01:3644.4674-122.261266119357Clb=-47.8m/s p=59.5hPa t=-58.9C h=4.5% 401.40MHz Type=RS41-SGP Details on http://radiosondy.info
WA9ONY-14U22205572022-12-06 13:01:3144.4677-122.261285719500Clb=-48.3m/s p=58.2hPa t=-59.2C h=4.7% 401.40MHz Type=RS41-SGP Join https://groups.io/g/Balloons
WA9ONY-10U22205572022-12-06 13:01:1844.4681-122.2611276919782Clb=-45.9m/s p=55.7hPa t=-59.8C h=4.9% 401.40MHz Type=RS41-SGP batt=2.6V Join https://groups.io/g/Balloons
K6GDP-11U22205572022-12-06 13:01:1744.4683-122.2611286519876Clb=-47.0m/s t=-60.0C h=1.4% p=54.9hPa 401.400 MHz Type=RS41-SGP ser=U2220557 Radiosonde
WA9ONY-14U22205572022-12-06 13:01:1044.4685-122.2621337019970Clb=-47.6m/s p=54.0hPa t=-59.7C h=4.9% 401.40MHz Type=RS41-SGP batt=2.5V Join https://groups.io/g/Balloons
W7BDB-13U22205572022-12-06 13:01:0044.4692-122.2621494620216Clb=-50.5m/s p=51.9hPa t=-58.6C h=4.6% 401.40MHz Type=RS41-SGP batt=2.5V Details on http://radiosondy.info
WA9ONY-10U22205572022-12-06 13:00:5944.4694-122.2631515720266Clb=-50.9m/s p=51.7hPa t=-58.6C h=4.5% 401.40MHz Type=RS41-SGP Join https://groups.io/g/Balloons
WA9ONY-14U22205572022-12-06 13:00:5244.47-122.2631564820462Clb=-49.0m/s p=50.0hPa t=-58.4C h=4.4% 401.40MHz Type=RS41-SGP Join https://groups.io/g/Balloons
WA9ONY-10U22205572022-12-06 13:00:4144.4706-122.2641424120755Clb=-49.9m/s p=47.8hPa t=-58.3C h=4.4% 401.40MHz Type=RS41-SGP Join https://groups.io/g/Balloons
WA9ONY-14U22205572022-12-06 13:00:3444.4709-122.2641364420955Clb=-51.1m/s p=46.2hPa t=-57.2C h=4.1% 401.40MHz Type=RS41-SGP Join https://groups.io/g/Balloons
W7BDB-12U22205572022-12-06 13:00:3144.4712-122.2651114321213Clb=-53.7m/s t=-56.8C h=1.0% p=44.5hPa 401.399 MHz Type=RS41-SGP ser=U2220557 Radiosonde
W7BDB-13U22205572022-12-06 13:00:2644.4712-122.2651125421213Clb=-53.6m/s p=44.5hPa t=-56.7C h=3.9% 401.40MHz Type=RS41-SGP Details on http://radiosondy.info
WA9ONY-10U22205572022-12-06 13:00:2344.4712-122.2651105421267Clb=-53.9m/s p=44.1hPa t=-57.3C h=4.1% 401.40MHz Type=RS41-SGP batt=2.5V Join https://groups.io/g/Balloons
K6GDP-11U22205572022-12-06 13:00:2044.4714-122.2651165221430Clb=-55.8m/s t=-58.2C h=1.1% p=43.1hPa 401.400 MHz Type=RS41-SGP ser=U2220557 Radiosonde
KJ7NUX-14U22205572022-12-06 13:00:1844.4714-122.2651175421430Clb=-55.8m/s p=43.0hPa t=-58.1C h=4.4% 401.40MHz Type=RS41-SGP Details on http://radiosondy.info
WA9ONY-14U22205572022-12-06 13:00:1544.4715-122.2651175721486Clb=-55.9m/s p=42.7hPa t=-58.5C h=4.6% 401.40MHz Type=RS41-SGP batt=2.5V Join https://groups.io/g/Balloons
KE7WWCU22205572022-12-06 13:00:0644.472-122.2661375721823Clb=-55.9m/s t=-59.9C h=1.3% p=40.5hPa 401.375 MHz Type=RS41-SGP ser=U2220557 Radiosonde
WA9ONY-10U22205572022-12-06 12:59:5844.472-122.2661385721823Clb=-55.8m/s p=40.5hPa t=-59.9C h=5.1% 401.40MHz Type=RS41-SGP Join https://groups.io/g/Balloons
W7BDB-13U22205572022-12-06 12:59:5144.4724-122.2671474822047Clb=-56.1m/s p=39.1hPa t=-59.7C h=5.2% 401.40MHz Type=RS41-SGP Details on http://radiosondy.info
WA9ONY-14U22205572022-12-06 12:59:5044.4724-122.2671475222047Clb=-56.1m/s p=39.1hPa t=-59.7C h=5.2% 401.40MHz Type=RS41-SGP Join https://groups.io/g/Balloons
WA9ONY-10U22205572022-12-06 12:59:4044.4731-122.2671454622387Clb=-58.2m/s p=37.0hPa t=-56.1C h=4.0% 401.40MHz Type=RS41-SGP Join https://groups.io/g/Balloons
WA9ONY-14U22205572022-12-06 12:59:3244.4735-122.2681524622620Clb=-59.7m/s p=35.8hPa t=-55.4C h=3.8% 401.40MHz Type=RS41-SGP Join https://groups.io/g/Balloons
KG7GDB-12U22205572022-12-06 12:59:2744.4739-122.2681554322861Clb=-62.2m/s t=-56.0C h=0.9% p=34.5hPa 401.401 MHz Type=RS41-SGP ser=U2220557 Radiosonde
WA9ONY-10U22205572022-12-06 12:59:1944.4741-122.2681553922984Clb=-61.4m/s p=33.8hPa t=-56.5C h=4.2% 401.40MHz Type=RS41-SGP TxOff=8h28m batt=2.5V Join https://groups.io/g/Balloons
WA9ONY-14U22205572022-12-06 12:59:0744.4745-122.2681533523226Clb=-60.8m/s p=32.5hPa t=-56.7C h=4.4% 401.40MHz Type=RS41-SGP TxOff=8h28m batt=2.6V Join https://groups.io/g/Balloons
KJ7NUX-14U22205572022-12-06 12:59:0444.4747-122.2691413123348Clb=-61.1m/s p=32.0hPa t=-55.8C h=4.0% 401.40MHz Type=RS41-SGP Details on http://radiosondy.info
KE7WWCU22205572022-12-06 12:59:0044.4749-122.2691243023531Clb=-62.1m/s t=-55.8C h=0.9% p=31.1hPa 401.375 MHz Type=RS41-SGP ser=U2220557 Radiosonde
WA9ONY-10U22205572022-12-06 12:58:5644.4749-122.2691213023594Clb=-62.9m/s p=30.8hPa t=-56.0C h=4.0% 401.40MHz Type=RS41-SGP Join https://groups.io/g/Balloons
WA9ONY-14U22205572022-12-06 12:58:4944.4751-122.2691292823845Clb=-63.8m/s p=29.6hPa t=-55.5C h=3.9% 401.40MHz Type=RS41-SGP Join https://groups.io/g/Balloons
W7BDB-13U22205572022-12-06 12:58:4844.4751-122.2691252823909Clb=-64.4m/s p=29.3hPa t=-55.5C h=3.9% 401.40MHz Type=RS41-SGP Details on http://radiosondy.info
WA9ONY-10U22205572022-12-06 12:58:3844.4754-122.271442624231Clb=-65.5m/s p=27.8hPa t=-54.6C h=3.6% 401.40MHz Type=RS41-SGP Join https://groups.io/g/Balloons
KJ7NUX-14U22205572022-12-06 12:58:3544.4755-122.271302424363Clb=-67.1m/s p=27.3hPa t=-54.7C h=3.5% 401.40MHz Type=RS41-SGP batt=2.5V Details on http://radiosondy.info
WA9ONY-14U22205572022-12-06 12:58:3044.4756-122.271292624495Clb=-65.8m/s p=26.7hPa t=-55.0C h=3.7% 401.40MHz Type=RS41-SGP Join https://groups.io/g/Balloons
KG7GDB-12U22205572022-12-06 12:58:2144.4758-122.271182424901Clb=-71.9m/s t=-54.6C h=0.8% p=25.3hPa 401.401 MHz Type=RS41-SGP ser=U2220557 Radiosonde
W7BDB-13U22205572022-12-06 12:58:1644.4758-122.271192224901Clb=-71.8m/s p=25.2hPa t=-54.6C h=3.3% 401.40MHz Type=RS41-SGP Details on http://radiosondy.info
WA9ONY-10U22205572022-12-06 12:58:1544.4758-122.271192224901Clb=-71.8m/s p=25.2hPa t=-54.6C h=3.3% 401.40MHz Type=RS41-SGP batt=2.6V Join https://groups.io/g/Balloons
K6GDP-11U22205572022-12-06 12:58:0644.4759-122.2711252225193Clb=-75.2m/s t=-55.7C h=0.8% p=24.2hPa 401.400 MHz Type=RS41-SGP ser=U2220557 Radiosonde
KJ7NUX-14U22205572022-12-06 12:57:5844.476-122.2711232825495Clb=-73.8m/s p=23.1hPa t=-54.8C h=3.4% 401.40MHz Type=RS41-SGP Details on http://radiosondy.info
WA9ONY-10U22205572022-12-06 12:57:5244.4761-122.2711262625639Clb=-71.5m/s p=22.5hPa t=-55.1C h=3.5% 401.40MHz Type=RS41-SGP Join https://groups.io/g/Balloons
WA9ONY-14U22205572022-12-06 12:57:4444.4762-122.2711223025932Clb=-73.9m/s p=21.4hPa t=-56.7C h=4.0% 401.40MHz Type=RS41-SGP Join https://groups.io/g/Balloons
W7BDB-13U22205572022-12-06 12:57:4344.4763-122.2711173526006Clb=-73.8m/s p=21.2hPa t=-57.3C h=4.2% 401.40MHz Type=RS41-SGP TxPastBurst=8h30m batt=2.5V Details on http://radiosondy.info
WA9ONY-10U22205572022-12-06 12:57:3544.4765-122.2721173726380Clb=-77.7m/s p=20.2hPa t=-57.8C h=4.5% 401.40MHz Type=RS41-SGP Join https://groups.io/g/Balloons
KJ7NUX-14U22205572022-12-06 12:57:2544.4766-122.2721094826693Clb=-80.2m/s p=19.1hPa t=-57.5C h=4.4% 401.40MHz Type=RS41-SGP Details on http://radiosondy.info
KG7GDB-12U22205572022-12-06 12:57:1744.4768-122.2731164827097Clb=-81.9m/s t=-56.7C h=1.0% p=18.0hPa 401.401 MHz Type=RS41-SGP ser=U2220557 Radiosonde
W7BDB-13U22205572022-12-06 12:57:1544.4768-122.2731185627179Clb=-82.9m/s p=17.7hPa t=-56.4C h=4.0% 401.40MHz Type=RS41-SGP Details on http://radiosondy.info
WA9ONY-14U22205572022-12-06 12:57:0744.4771-122.2741245727514Clb=-85.2m/s p=16.9hPa t=-56.8C h=4.1% 401.40MHz Type=RS41-SGP batt=2.5V Join https://groups.io/g/Balloons
KJ7NUX-14U22205572022-12-06 12:56:5644.4775-122.2751206128033Clb=-87.3m/s p=15.6hPa t=-56.5C h=4.1% 401.40MHz Type=RS41-SGP TxPastBurst=8h30m batt=2.5V Details on http://radiosondy.info
WA9ONY-10U22205572022-12-06 12:56:5544.4775-122.2751205928033Clb=-87.3m/s p=15.6hPa t=-56.5C h=4.1% 401.40MHz Type=RS41-SGP Join https://groups.io/g/Balloons
WA9ONY-14U22205572022-12-06 12:56:4944.4778-122.2751176128382Clb=-89.9m/s p=14.8hPa t=-57.0C h=4.2% 401.40MHz Type=RS41-SGP Join https://groups.io/g/Balloons
W7BDB-13U22205572022-12-06 12:56:4644.4779-122.2761186728566Clb=-92.9m/s p=14.4hPa t=-56.7C h=4.1% 401.40MHz Type=RS41-SGP Details on http://radiosondy.info
WA9ONY-10U22205572022-12-06 12:56:4044.4782-122.2771216728944Clb=-96.4m/s p=13.6hPa t=-56.1C h=4.0% 401.40MHz Type=RS41-SGP Join https://groups.io/g/Balloons
WA9ONY-14U22205572022-12-06 12:56:3444.4785-122.2771227029327Clb=-97.4m/s p=12.8hPa t=-56.8C h=4.4% 401.40MHz Type=RS41-SGP Join https://groups.io/g/Balloons
KJ7NUX-14U22205572022-12-06 12:56:3144.4787-122.2781217429523Clb=-98.7m/s p=12.5hPa t=-57.1C h=4.6% 401.40MHz Type=RS41-SGP Details on http://radiosondy.info
WA9ONY-10U22205572022-12-06 12:56:2344.479-122.2781187629922Clb=-101.4m/s p=11.7hPa t=-56.6C h=4.5% 401.40MHz Type=RS41-SGP TxPastBurst=8h30m batt=2.5V Join https://groups.io/g/Balloons
W7BDB-12U22205572022-12-06 12:56:2144.4793-122.2791217430227Clb=-102.6m/s t=-56.4C h=1.0% p=11.3hPa 401.399 MHz Type=RS41-SGP ser=U2220557 Radiosonde
W7BDB-13U22205572022-12-06 12:56:1544.4794-122.2791228030330Clb=-104.0m/s p=11.0hPa t=-56.2C h=4.2% 401.40MHz Type=RS41-SGP batt=2.6V Details on http://radiosondy.info
K6GDP-11U22205572022-12-06 12:56:1144.48-122.2811148030956Clb=-108.2m/s t=-56.8C h=1.1% p=10.0hPa 401.400 MHz Type=RS41-SGP ser=U2220557 Radiosonde
WA9ONY-10U22205572022-12-06 12:56:0644.48-122.2811158130957Clb=-108.2m/s p=9.9hPa t=-56.7C h=4.9% 401.40MHz Type=RS41-SGP Join https://groups.io/g/Balloons
KJ7NUX-14U22205572022-12-06 12:56:0344.4801-122.2811168731175Clb=-110.1m/s p=9.7hPa t=-53.9C h=3.7% 401.40MHz Type=RS41-SGP Details on http://radiosondy.info
WA9ONY-14U22205572022-12-06 12:55:5944.4803-122.2821168331395Clb=-110.6m/s p=9.4hPa t=-52.8C h=3.2% 401.40MHz Type=RS41-SGP Join https://groups.io/g/Balloons
WA9ONY-10U22205572022-12-06 12:55:4844.4808-122.2831079332054Clb=-109.6m/s p=8.4hPa t=-53.2C h=3.3% 401.40MHz Type=RS41-SGP Join https://groups.io/g/Balloons
WA9ONY-14U22205572022-12-06 12:55:4144.481-122.2851069632495Clb=-111.9m/s p=7.8hPa t=-53.0C h=3.1% 401.40MHz Type=RS41-SGP Join https://groups.io/g/Balloons
KJ7NUX-14U22205572022-12-06 12:55:3444.4812-122.2861039832935Clb=-108.1m/s p=7.4hPa t=-53.2C h=3.2% 401.40MHz Type=RS41-SGP batt=2.6V Details on http://radiosondy.info
WA9ONY-10U22205572022-12-06 12:55:2944.4813-122.2871039833149Clb=-105.3m/s p=7.0hPa t=-53.6C h=3.4% 401.40MHz Type=RS41-SGP batt=2.5V Join https://groups.io/g/Balloons
WA9ONY-14U22205572022-12-06 12:55:2144.4816-122.2881019833558Clb=-99.7m/s p=6.5hPa t=-54.3C h=3.5% 401.40MHz Type=RS41-SGP batt=2.6V Join https://groups.io/g/Balloons
W7BDB-13U22205572022-12-06 12:55:2044.4816-122.2881029833656Clb=-97.8m/s p=6.4hPa t=-55.1C h=3.8% 401.40MHz Type=RS41-SGP Details on http://radiosondy.info
K6GDP-11U22205572022-12-06 12:55:1544.4818-122.2891019633936Clb=-89.7m/s t=-55.8C h=0.9% p=6.2hPa 401.400 MHz Type=RS41-SGP ser=U2220557 Radiosonde
WA9ONY-10U22205572022-12-06 12:55:0744.4818-122.291029834109Clb=-83.7m/s p=5.9hPa t=-55.4C h=3.9% 401.40MHz Type=RS41-SGP Join https://groups.io/g/Balloons
KE7WWCU22205572022-12-06 12:55:0344.482-122.2911049834340Clb=-72.6m/s t=-55.8C h=0.9% p=5.7hPa 401.375 MHz Type=RS41-SGP ser=U2220557 Radiosonde
KJ7NUX-14U22205572022-12-06 12:55:0044.4821-122.29110410234409Clb=-66.8m/s p=5.6hPa t=-55.8C h=4.0% 401.40MHz Type=RS41-SGP Details on http://radiosondy.info
WA9ONY-10U22205572022-12-06 12:54:5044.4824-122.29310310734720Clb=-34.3m/s p=5.2hPa t=-54.3C h=3.5% 401.40MHz Type=RS41-SGP Join https://groups.io/g/Balloons
WA9ONY-14U22205572022-12-06 12:54:4444.4827-122.29510810634788Clb=-7.1m/s p=5.1hPa t=-54.4C h=3.5% 401.40MHz Type=RS41-SGP Join https://groups.io/g/Balloons
KJ7NUX-14U22205572022-12-06 12:54:3644.4831-122.29610810434773Clb=6.1m/s p=5.1hPa t=-54.7C h=3.5% 401.40MHz Type=RS41-SGP Details on http://radiosondy.info
WA9ONY-10U22205572022-12-06 12:54:3244.4832-122.29710510634767Clb=7.3m/s p=5.1hPa t=-54.8C h=3.5% 401.40MHz Type=RS41-SGP batt=2.6V Join https://groups.io/g/Balloons
KG7GDB-12U22205572022-12-06 12:54:3044.4834-122.29810210634742Clb=7.1m/s t=-55.2C h=0.8% p=5.2hPa 401.401 MHz Type=RS41-SGP ser=U2220557 Radiosonde
WA9ONY-14U22205572022-12-06 12:54:2744.4834-122.29810310434742Clb=7.0m/s p=5.2hPa t=-55.1C h=3.6% 401.40MHz Type=RS41-SGP batt=2.5V Join https://groups.io/g/Balloons
W7BDB-13U22205572022-12-06 12:54:2544.4834-122.29910610234736Clb=6.3m/s p=5.1hPa t=-55.3C h=3.5% 401.40MHz Type=RS41-SGP Details on http://radiosondy.info
K6GDP-11U22205572022-12-06 12:54:2044.4837-122.310610234712Clb=6.3m/s t=-55.9C h=0.8% p=5.2hPa 401.400 MHz Type=RS41-SGP ser=U2220557 Radiosonde
WA9ONY-10U22205572022-12-06 12:54:1744.4838-122.310710034706Clb=5.7m/s p=5.2hPa t=-55.9C h=3.8% 401.40MHz Type=RS41-SGP Join https://groups.io/g/Balloons
KE7WWCU22205572022-12-06 12:54:1144.4842-122.30211110234681Clb=4.9m/s t=-56.2C h=0.9% p=5.2hPa 401.375 MHz Type=RS41-SGP ser=U2220557 Radiosonde
WA9ONY-14U22205572022-12-06 12:54:1044.4842-122.30211210034681Clb=4.8m/s p=5.1hPa t=-56.2C h=3.9% 401.40MHz Type=RS41-SGP Join https://groups.io/g/Balloons
KJ7NUX-14U22205572022-12-06 12:54:0944.4843-122.3021119634676Clb=4.5m/s p=5.2hPa t=-56.2C h=3.8% 401.40MHz Type=RS41-SGP batt=2.5V Details on http://radiosondy.info
WA9ONY-10U22205572022-12-06 12:54:0044.4846-122.3041009634645Clb=5.3m/s p=5.2hPa t=-56.5C h=4.0% 401.40MHz Type=RS41-SGP Join https://groups.io/g/Balloons
W7BDB-13U22205572022-12-06 12:53:5944.4846-122.3041019634640Clb=6.4m/s p=5.2hPa t=-56.5C h=4.0% 401.40MHz Type=RS41-SGP Details on http://radiosondy.info
WA9ONY-14U22205572022-12-06 12:53:5344.4848-122.3051069134622Clb=4.8m/s p=5.2hPa t=-56.6C h=4.1% 401.40MHz Type=RS41-SGP Join https://groups.io/g/Balloons
WA9ONY-10U22205572022-12-06 12:53:4144.485-122.307999134587Clb=6.0m/s p=5.3hPa t=-57.0C h=4.1% 401.40MHz Type=RS41-SGP TxPastBurst=8h30m batt=2.6V Join https://groups.io/g/Balloons
KJ7NUX-14U22205572022-12-06 12:53:4044.4851-122.3071019334580Clb=7.1m/s p=5.3hPa t=-57.0C h=4.1% 401.40MHz Type=RS41-SGP Details on http://radiosondy.info
WA9ONY-14U22205572022-12-06 12:53:3444.4852-122.3081029434563Clb=5.2m/s p=5.3hPa t=-57.2C h=4.1% 401.40MHz Type=RS41-SGP TxPastBurst=8h30m batt=2.5V Join https://groups.io/g/Balloons
W7BDB-13U22205572022-12-06 12:53:3144.4853-122.309999634551Clb=6.9m/s p=5.3hPa t=-57.3C h=4.2% 401.40MHz Type=RS41-SGP TxPastBurst=8h30m batt=2.6V Details on http://radiosondy.info
K6GDP-11U22205572022-12-06 12:53:2544.4855-122.311069134528Clb=6.5m/s t=-57.5C h=1.0% p=5.4hPa 401.400 MHz Type=RS41-SGP ser=U2220557 Radiosonde
WA9ONY-10U22205572022-12-06 12:53:2444.4855-122.311079634528Clb=6.5m/s p=5.3hPa t=-57.4C h=4.2% 401.40MHz Type=RS41-SGP Join https://groups.io/g/Balloons
WA9ONY-14U22205572022-12-06 12:53:1744.4858-122.3111139634504Clb=5.0m/s p=5.3hPa t=-57.4C h=4.1% 401.40MHz Type=RS41-SGP Join https://groups.io/g/Balloons
KE7WWCU22205572022-12-06 12:53:1644.4859-122.31211110234498Clb=6.4m/s t=-57.5C h=0.9% p=5.4hPa 401.375 MHz Type=RS41-SGP ser=U2220557 Radiosonde
KJ7NUX-14U22205572022-12-06 12:53:0944.4862-122.31310910434473Clb=6.6m/s p=5.4hPa t=-57.5C h=4.2% 401.40MHz Type=RS41-SGP Details on http://radiosondy.info
WA9ONY-10U22205572022-12-06 12:53:0644.4863-122.31310910634466Clb=6.7m/s p=5.4hPa t=-57.5C h=4.3% 401.40MHz Type=RS41-SGP Join https://groups.io/g/Balloons
W7BDB-13U22205572022-12-06 12:53:0444.4864-122.31410910234455Clb=5.1m/s p=5.4hPa t=-57.5C h=4.3% 401.40MHz Type=RS41-SGP Details on http://radiosondy.info
WA9ONY-14U22205572022-12-06 12:52:5944.4866-122.31410510734442Clb=7.1m/s p=5.3hPa t=-57.5C h=4.2% 401.40MHz Type=RS41-SGP Join https://groups.io/g/Balloons
WA9ONY-10U22205572022-12-06 12:52:4844.487-122.3171099634406Clb=4.8m/s p=5.4hPa t=-57.7C h=4.4% 401.40MHz Type=RS41-SGP batt=2.6V Join https://groups.io/g/Balloons
WA9ONY-14U22205572022-12-06 12:52:4144.4873-122.31810010034381Clb=6.8m/s p=5.4hPa t=-57.6C h=4.4% 401.40MHz Type=RS41-SGP batt=2.5V Join https://groups.io/g/Balloons
KJ7NUX-14U22205572022-12-06 12:52:4044.4873-122.318989834375Clb=4.9m/s p=5.4hPa t=-57.5C h=4.3% 401.40MHz Type=RS41-SGP TxPastBurst=8h30m batt=2.5V Details on http://radiosondy.info
W7BDB-13U22205572022-12-06 12:52:3544.4874-122.31910310034358Clb=7.2m/s p=5.4hPa t=-57.4C h=4.3% 401.40MHz Type=RS41-SGP Details on http://radiosondy.info
WA9ONY-10U22205572022-12-06 12:52:2944.4875-122.3210610234345Clb=5.9m/s p=5.5hPa t=-57.3C h=4.2% 401.40MHz Type=RS41-SGP Join https://groups.io/g/Balloons
K6GDP-11U22205572022-12-06 12:52:2744.4876-122.3210511334339Clb=5.2m/s t=-57.3C h=0.9% p=5.5hPa 401.400 MHz Type=RS41-SGP ser=U2220557 Radiosonde
WA9ONY-14U22205572022-12-06 12:52:1944.4878-122.3211009434320Clb=5.8m/s p=5.5hPa t=-57.3C h=4.3% 401.40MHz Type=RS41-SGP Join https://groups.io/g/Balloons
KE7WWCU22205572022-12-06 12:52:1544.4879-122.322979334309Clb=5.9m/s t=-57.4C h=0.9% p=5.5hPa 401.375 MHz Type=RS41-SGP ser=U2220557 Radiosonde
WA9ONY-10U22205572022-12-06 12:52:0444.488-122.32310010434284Clb=5.8m/s p=5.5hPa t=-57.5C h=4.3% 401.40MHz Type=RS41-SGP Join https://groups.io/g/Balloons
KJ7NUX-14U22205572022-12-06 12:52:0044.4881-122.3249910434277Clb=6.2m/s p=5.5hPa t=-57.5C h=4.2% 401.40MHz Type=RS41-SGP Details on http://radiosondy.info
WA9ONY-14U22205572022-12-06 12:51:5544.4881-122.3259510234258Clb=5.0m/s p=5.5hPa t=-57.6C h=4.2% 401.40MHz Type=RS41-SGP Join https://groups.io/g/Balloons
WA9ONY-10U22205572022-12-06 12:51:4344.4884-122.327999134222Clb=4.4m/s p=5.6hPa t=-57.6C h=4.2% 401.40MHz Type=RS41-SGP batt=2.5V Join https://groups.io/g/Balloons
WA9ONY-14U22205572022-12-06 12:51:3644.4884-122.3289210234196Clb=5.3m/s p=5.6hPa t=-57.6C h=4.1% 401.40MHz Type=RS41-SGP batt=2.6V Join https://groups.io/g/Balloons
KJ7NUX-14U22205572022-12-06 12:51:3344.4885-122.3299810234186Clb=6.2m/s p=5.6hPa t=-57.7C h=4.2% 401.40MHz Type=RS41-SGP Details on http://radiosondy.info
W7BDB-12U22205572022-12-06 12:51:3244.4886-122.3310111134166Clb=6.8m/s t=-57.8C h=1.0% p=5.7hPa 401.399 MHz Type=RS41-SGP ser=U2220557 Radiosonde
WA9ONY-10U22205572022-12-06 12:51:2444.4886-122.3310010934159Clb=7.4m/s p=5.7hPa t=-57.8C h=4.3% 401.40MHz Type=RS41-SGP Join https://groups.io/g/Balloons
WA9ONY-14U22205572022-12-06 12:51:1644.4888-122.332979634135Clb=5.3m/s p=5.6hPa t=-57.9C h=4.2% 401.40MHz Type=RS41-SGP Join https://groups.io/g/Balloons
KE7WWCU22205572022-12-06 12:51:1244.4889-122.3331019834114Clb=6.6m/s t=-57.9C h=0.9% p=5.7hPa 401.375 MHz Type=RS41-SGP ser=U2220557 Radiosonde
WA9ONY-10U22205572022-12-06 12:51:0644.489-122.3349910634096Clb=7.4m/s p=5.7hPa t=-57.9C h=4.2% 401.40MHz Type=RS41-SGP Join https://groups.io/g/Balloons
KJ7NUX-14U22205572022-12-06 12:51:0344.4891-122.3349510034082Clb=5.2m/s p=5.7hPa t=-58.0C h=4.2% 401.40MHz Type=RS41-SGP batt=2.6V Details on http://radiosondy.info
WA9ONY-14U22205572022-12-06 12:50:5944.4891-122.3359810934072Clb=6.7m/s p=5.7hPa t=-58.2C h=4.2% 401.40MHz Type=RS41-SGP Join https://groups.io/g/Balloons
W7BDB-13U22205572022-12-06 12:50:5644.4892-122.33610410034056Clb=7.7m/s p=5.7hPa t=-58.5C h=4.3% 401.40MHz Type=RS41-SGP Details on http://radiosondy.info
WA9ONY-10U22205572022-12-06 12:50:4844.4895-122.3381009434033Clb=7.2m/s p=5.8hPa t=-58.7C h=4.5% 401.40MHz Type=RS41-SGP TxPastBurst=8h30m batt=2.5V Join https://groups.io/g/Balloons
WA9ONY-14U22205572022-12-06 12:50:4044.4896-122.339939634003Clb=6.8m/s p=5.7hPa t=-58.7C h=4.5% 401.40MHz Type=RS41-SGP TxPastBurst=8h30m batt=2.6V Join https://groups.io/g/Balloons
KJ7NUX-14U22205572022-12-06 12:50:3444.4897-122.341049433978Clb=7.0m/s p=5.8hPa t=-58.6C h=4.4% 401.40MHz Type=RS41-SGP Details on http://radiosondy.info
WA9ONY-10U22205572022-12-06 12:50:3044.4898-122.3411039833963Clb=7.0m/s p=5.8hPa t=-58.6C h=4.5% 401.40MHz Type=RS41-SGP Join https://groups.io/g/Balloons
W7BDB-13U22205572022-12-06 12:50:2344.4899-122.3411009433950Clb=6.6m/s p=5.8hPa t=-58.6C h=4.4% 401.40MHz Type=RS41-SGP batt=2.5V Details on http://radiosondy.info
WA9ONY-14U22205572022-12-06 12:50:1944.49-122.342988933936Clb=6.2m/s p=5.9hPa t=-58.6C h=4.4% 401.40MHz Type=RS41-SGP Join https://groups.io/g/Balloons
KE7WWCU22205572022-12-06 12:50:1244.4901-122.344867233903Clb=6.5m/s t=-58.6C h=1.0% p=5.9hPa 401.375 MHz Type=RS41-SGP ser=U2220557 Radiosonde
WA9ONY-10U22205572022-12-06 12:50:0644.4901-122.344899133897Clb=5.2m/s p=5.8hPa t=-58.6C h=4.4% 401.40MHz Type=RS41-SGP Join https://groups.io/g/Balloons
KJ7NUX-14U22205572022-12-06 12:49:5944.4901-122.3451008533871Clb=6.5m/s p=5.9hPa t=-58.6C h=4.5% 401.40MHz Type=RS41-SGP Details on http://radiosondy.info
WA9ONY-14U22205572022-12-06 12:49:5844.4901-122.3451009433871Clb=6.5m/s p=5.9hPa t=-58.6C h=4.5% 401.40MHz Type=RS41-SGP Join https://groups.io/g/Balloons
W7BDB-13U22205572022-12-06 12:49:5244.4902-122.347908333845Clb=5.4m/s p=5.9hPa t=-58.8C h=4.6% 401.40MHz Type=RS41-SGP Details on http://radiosondy.info
WA9ONY-10U22205572022-12-06 12:49:4744.4902-122.347907233832Clb=7.1m/s p=5.9hPa t=-58.9C h=4.7% 401.40MHz Type=RS41-SGP batt=2.6V Join https://groups.io/g/Balloons
WA9ONY-14U22205572022-12-06 12:49:3844.4902-122.348878033804Clb=8.4m/s p=5.9hPa t=-58.9C h=4.7% 401.40MHz Type=RS41-SGP batt=2.5V Join https://groups.io/g/Balloons
KJ7NUX-14U22205572022-12-06 12:49:2744.4903-122.351008733766Clb=7.7m/s p=5.9hPa t=-58.7C h=4.6% 401.40MHz Type=RS41-SGP batt=2.6V Details on http://radiosondy.info
WA9ONY-10U22205572022-12-06 12:49:2544.4903-122.351008933765Clb=7.7m/s p=5.9hPa t=-58.7C h=4.6% 401.40MHz Type=RS41-SGP Join https://groups.io/g/Balloons
W7BDB-13U22205572022-12-06 12:49:1844.4904-122.351918733739Clb=5.7m/s p=6.0hPa t=-58.6C h=4.6% 401.40MHz Type=RS41-SGP Details on http://radiosondy.info
KE7WWCU22205572022-12-06 12:49:0744.4905-122.3531056733704Clb=6.3m/s t=-58.4C h=1.1% p=6.1hPa 401.375 MHz Type=RS41-SGP ser=U2220557 Radiosonde
WA9ONY-10U22205572022-12-06 12:49:0444.4905-122.3531079433699Clb=5.8m/s p=6.2hPa t=-58.3C h=4.6% 401.40MHz Type=RS41-SGP Join https://groups.io/g/Balloons
WA9ONY-14U22205572022-12-06 12:48:5544.4907-122.35410210033674Clb=6.1m/s p=6.0hPa t=-58.1C h=4.6% 401.40MHz Type=RS41-SGP Join https://groups.io/g/Balloons
KJ7NUX-14U22205572022-12-06 12:48:5244.4908-122.3551029333658Clb=8.7m/s p=6.0hPa t=-58.0C h=4.5% 401.40MHz Type=RS41-SGP Details on http://radiosondy.info
W7BDB-13U22205572022-12-06 12:48:4744.491-122.3561019633640Clb=4.3m/s p=6.1hPa t=-57.9C h=4.4% 401.40MHz Type=RS41-SGP TxPastBurst=8h30m batt=2.5V Details on http://radiosondy.info
WA9ONY-10U22205572022-12-06 12:48:4344.491-122.356998733634Clb=6.4m/s p=6.2hPa t=-57.9C h=4.5% 401.40MHz Type=RS41-SGP batt=2.6V Join https://groups.io/g/Balloons
WA9ONY-14U22205572022-12-06 12:48:3444.4911-122.3571009333608Clb=5.6m/s p=6.2hPa t=-57.6C h=4.5% 401.40MHz Type=RS41-SGP batt=2.5V Join https://groups.io/g/Balloons
WA9ONY-10U22205572022-12-06 12:48:2344.4915-122.35910910033568Clb=7.5m/s p=6.1hPa t=-57.3C h=4.3% 401.40MHz Type=RS41-SGP Join https://groups.io/g/Balloons
KJ7NUX-14U22205572022-12-06 12:48:2044.4916-122.3610710233554Clb=6.1m/s p=6.2hPa t=-57.2C h=4.3% 401.40MHz Type=RS41-SGP Details on http://radiosondy.info
WA9ONY-14U22205572022-12-06 12:48:1544.4918-122.361079133542Clb=6.0m/s p=6.2hPa t=-57.2C h=4.2% 401.40MHz Type=RS41-SGP Join https://groups.io/g/Balloons
W7BDB-13U22205572022-12-06 12:48:1444.4918-122.36110810233535Clb=7.5m/s p=6.2hPa t=-57.1C h=4.1% 401.40MHz Type=RS41-SGP Details on http://radiosondy.info
KE7WWCU22205572022-12-06 12:48:0344.4922-122.3621048133501Clb=7.8m/s t=-57.1C h=1.0% p=6.3hPa 401.375 MHz Type=RS41-SGP ser=U2220557 Radiosonde
WA9ONY-10U22205572022-12-06 12:48:0244.4922-122.36210510433501Clb=7.7m/s p=6.2hPa t=-57.1C h=4.2% 401.40MHz Type=RS41-SGP Join https://groups.io/g/Balloons
WA9ONY-14U22205572022-12-06 12:47:5244.4924-122.36310610733477Clb=7.6m/s p=6.2hPa t=-57.1C h=4.1% 401.40MHz Type=RS41-SGP Join https://groups.io/g/Balloons
KJ7NUX-14U22205572022-12-06 12:47:4044.493-122.36611510433436Clb=6.9m/s p=6.3hPa t=-57.3C h=4.2% 401.40MHz Type=RS41-SGP TxPastBurst=8h30m batt=2.5V Details on http://radiosondy.info
WA9ONY-10U22205572022-12-06 12:47:3944.493-122.3661159833436Clb=6.9m/s p=6.3hPa t=-57.3C h=4.2% 401.40MHz Type=RS41-SGP TxPastBurst=8h30m batt=2.5V Join https://groups.io/g/Balloons
W7BDB-13U22205572022-12-06 12:47:3844.4931-122.36611610433429Clb=6.9m/s p=6.3hPa t=-57.3C h=4.2% 401.40MHz Type=RS41-SGP Details on http://radiosondy.info
WA9ONY-14U22205572022-12-06 12:47:3244.4934-122.36711410733408Clb=6.5m/s p=6.4hPa t=-57.4C h=4.2% 401.40MHz Type=RS41-SGP TxPastBurst=8h30m batt=2.5V Join https://groups.io/g/Balloons
KG7GDB-12U22205572022-12-06 12:47:2144.4939-122.36910911533370Clb=5.7m/s t=-57.5C h=1.0% p=6.4hPa 401.401 MHz Type=RS41-SGP ser=U2220557 Radiosonde
WA9ONY-10U22205572022-12-06 12:47:2044.4939-122.36911010933370Clb=5.7m/s p=6.4hPa t=-57.5C h=4.2% 401.40MHz Type=RS41-SGP Join https://groups.io/g/Balloons
W7BDB-12U22205572022-12-06 12:47:1944.4942-122.3711612033350Clb=5.3m/s t=-57.7C h=1.0% p=6.4hPa 401.399 MHz Type=RS41-SGP ser=U2220557 Radiosonde
WA9ONY-14U22205572022-12-06 12:47:1144.4944-122.3711710433344Clb=4.6m/s p=6.4hPa t=-57.6C h=4.2% 401.40MHz Type=RS41-SGP Join https://groups.io/g/Balloons
KJ7NUX-14U22205572022-12-06 12:47:0744.4946-122.37111410633331Clb=7.6m/s p=6.4hPa t=-57.7C h=4.2% 401.40MHz Type=RS41-SGP Details on http://radiosondy.info
W7BDB-13U22205572022-12-06 12:47:0244.4948-122.37210310633313Clb=5.4m/s p=6.4hPa t=-57.7C h=4.2% 401.40MHz Type=RS41-SGP batt=2.5V Details on http://radiosondy.info
WA9ONY-10U22205572022-12-06 12:47:0044.4949-122.37210310933308Clb=6.3m/s p=6.4hPa t=-57.7C h=4.2% 401.40MHz Type=RS41-SGP Join https://groups.io/g/Balloons
KE7WWCU22205572022-12-06 12:46:5944.4949-122.37310310633300Clb=6.8m/s t=-57.8C h=1.0% p=6.5hPa 401.375 MHz Type=RS41-SGP ser=U2220557 Radiosonde
WA9ONY-14U22205572022-12-06 12:46:5344.4952-122.37411010733282Clb=6.5m/s p=6.4hPa t=-57.8C h=4.3% 401.40MHz Type=RS41-SGP Join https://groups.io/g/Balloons
WA9ONY-10U22205572022-12-06 12:46:4344.4958-122.37610910633241Clb=5.3m/s p=6.5hPa t=-58.0C h=4.4% 401.40MHz Type=RS41-SGP batt=2.6V Join https://groups.io/g/Balloons
KJ7NUX-14U22205572022-12-06 12:46:3544.4959-122.3779310233216Clb=7.5m/s p=6.5hPa t=-57.9C h=4.4% 401.40MHz Type=RS41-SGP Details on http://radiosondy.info
W7BDB-13U22205572022-12-06 12:46:3444.4959-122.3779310233216Clb=7.5m/s p=6.5hPa t=-57.9C h=4.4% 401.40MHz Type=RS41-SGP Details on http://radiosondy.info
WA9ONY-10U22205572022-12-06 12:46:2644.4962-122.37911010033179Clb=5.7m/s p=6.6hPa t=-57.8C h=4.3% 401.40MHz Type=RS41-SGP Join https://groups.io/g/Balloons
WA9ONY-14U22205572022-12-06 12:46:1844.4965-122.3811049633153Clb=5.5m/s p=6.6hPa t=-57.8C h=4.2% 401.40MHz Type=RS41-SGP Join https://groups.io/g/Balloons
K6GDP-11U22205572022-12-06 12:46:1344.4967-122.3821019333135Clb=7.0m/s t=-57.9C h=1.0% p=6.7hPa 401.400 MHz Type=RS41-SGP ser=U2220557 Radiosonde
KJ7NUX-14U22205572022-12-06 12:46:0644.4968-122.3831009433118Clb=5.2m/s p=6.6hPa t=-57.9C h=4.4% 401.40MHz Type=RS41-SGP batt=2.5V Details on http://radiosondy.info
WA9ONY-10U22205572022-12-06 12:46:0544.4968-122.38310010233117Clb=5.2m/s p=6.6hPa t=-57.9C h=4.4% 401.40MHz Type=RS41-SGP Join https://groups.io/g/Balloons
KE7WWCU22205572022-12-06 12:46:0244.4969-122.383959833105Clb=6.8m/s t=-58.0C h=1.1% p=6.7hPa 401.375 MHz Type=RS41-SGP ser=U2220557 Radiosonde
WA9ONY-14U22205572022-12-06 12:45:5744.4969-122.384969633092Clb=5.0m/s p=6.7hPa t=-58.0C h=4.5% 401.40MHz Type=RS41-SGP Join https://groups.io/g/Balloons
WA9ONY-10U22205572022-12-06 12:45:4644.4972-122.3861068733057Clb=7.4m/s p=6.7hPa t=-57.8C h=4.4% 401.40MHz Type=RS41-SGP batt=2.6V Join https://groups.io/g/Balloons
WA9ONY-14U22205572022-12-06 12:45:3844.4974-122.3871029133031Clb=6.8m/s p=6.8hPa t=-57.7C h=4.3% 401.40MHz Type=RS41-SGP batt=2.5V Join https://groups.io/g/Balloons
W7BDB-13U22205572022-12-06 12:45:3744.4975-122.3871028933024Clb=6.1m/s p=6.7hPa t=-57.7C h=4.3% 401.40MHz Type=RS41-SGP batt=2.5V Details on http://radiosondy.info
KJ7NUX-14U22205572022-12-06 12:45:3544.4975-122.3881008733018Clb=5.3m/s p=6.7hPa t=-57.7C h=4.3% 401.40MHz Type=RS41-SGP Details on http://radiosondy.info
WA9ONY-10U22205572022-12-06 12:45:2244.4976-122.389988132987Clb=5.4m/s p=6.8hPa t=-57.7C h=4.3% 401.40MHz Type=RS41-SGP Join https://groups.io/g/Balloons
WA9ONY-14U22205572022-12-06 12:45:1644.4978-122.391067832968Clb=4.8m/s p=6.8hPa t=-57.7C h=4.2% 401.40MHz Type=RS41-SGP Join https://groups.io/g/Balloons
K6GDP-11U22205572022-12-06 12:45:0644.498-122.392967232933Clb=7.0m/s t=-57.7C h=0.9% p=6.9hPa 401.400 MHz Type=RS41-SGP ser=U2220557 Radiosonde
W7BDB-13U22205572022-12-06 12:45:0244.498-122.392977832932Clb=6.9m/s p=6.8hPa t=-57.7C h=4.1% 401.40MHz Type=RS41-SGP Details on http://radiosondy.info
WA9ONY-10U22205572022-12-06 12:44:5944.498-122.392998132926Clb=6.5m/s p=6.8hPa t=-57.7C h=4.1% 401.40MHz Type=RS41-SGP Join https://groups.io/g/Balloons
KJ7NUX-14U22205572022-12-06 12:44:5844.498-122.3921018032920Clb=6.1m/s p=6.8hPa t=-57.7C h=4.1% 401.40MHz Type=RS41-SGP Details on http://radiosondy.info
KE7WWCU22205572022-12-06 12:44:5644.4981-122.3931018932907Clb=6.1m/s t=-57.9C h=0.9% p=6.9hPa 401.375 MHz Type=RS41-SGP ser=U2220557 Radiosonde
WA9ONY-14U22205572022-12-06 12:44:5344.4981-122.3931028032907Clb=6.0m/s p=6.9hPa t=-57.8C h=4.1% 401.40MHz Type=RS41-SGP Join https://groups.io/g/Balloons
WA9ONY-10U22205572022-12-06 12:44:4144.4985-122.3951107032867Clb=4.5m/s p=6.9hPa t=-58.2C h=4.3% 401.40MHz Type=RS41-SGP TxPastBurst=8h30m batt=2.5V Join https://groups.io/g/Balloons
WA9ONY-14U22205572022-12-06 12:44:3544.4986-122.396976932850Clb=7.3m/s p=6.9hPa t=-58.4C h=4.3% 401.40MHz Type=RS41-SGP TxPastBurst=8h30m batt=2.6V Join https://groups.io/g/Balloons
W7BDB-13U22205572022-12-06 12:44:3144.4986-122.396946732837Clb=5.4m/s p=6.9hPa t=-58.7C h=4.4% 401.40MHz Type=RS41-SGP Details on http://radiosondy.info
KJ7NUX-14U22205572022-12-06 12:44:2844.4987-122.3971036732824Clb=6.7m/s p=6.9hPa t=-58.8C h=4.5% 401.40MHz Type=RS41-SGP batt=2.6V Details on http://radiosondy.info
WA9ONY-10U22205572022-12-06 12:44:2144.4988-122.3971116532807Clb=6.1m/s p=7.0hPa t=-59.0C h=4.5% 401.40MHz Type=RS41-SGP Join https://groups.io/g/Balloons
WA9ONY-14U22205572022-12-06 12:44:1544.499-122.3981076332789Clb=5.3m/s p=7.0hPa t=-59.0C h=4.6% 401.40MHz Type=RS41-SGP Join https://groups.io/g/Balloons
K6GDP-11U22205572022-12-06 12:44:0244.4993-122.3991135932757Clb=5.9m/s t=-59.1C h=1.1% p=7.0hPa 401.400 MHz Type=RS41-SGP ser=U2220557 Radiosonde
WA9ONY-10U22205572022-12-06 12:44:0044.4994-122.3991086732744Clb=6.2m/s p=7.0hPa t=-59.0C h=4.6% 401.40MHz Type=RS41-SGP Join https://groups.io/g/Balloons
WA9ONY-10U22205572022-12-06 12:43:5944.5002-122.4011176732687Clb=5.2m/s p=7.1hPa t=-58.9C h=4.5% 401.40MHz Type=RS41-SGP batt=2.5V Join https://groups.io/g/Balloons
W7BDB-13U22205572022-12-06 12:43:5844.5006-122.4031137432652Clb=6.7m/s p=7.2hPa t=-58.6C h=4.6% 401.40MHz Type=RS41-SGP Details on http://radiosondy.info
WA9ONY-10U22205572022-12-06 12:43:5744.5009-122.4041177832627Clb=7.7m/s p=7.2hPa t=-58.4C h=4.4% 401.40MHz Type=RS41-SGP Join https://groups.io/g/Balloons
WA9ONY-14U22205572022-12-06 12:43:5444.5012-122.4041187432610Clb=4.9m/s p=7.2hPa t=-58.2C h=4.2% 401.40MHz Type=RS41-SGP Join https://groups.io/g/Balloons
K6GDP-11U22205572022-12-06 12:43:5244.5016-122.4061116932572Clb=6.4m/s t=-58.2C h=0.9% p=7.3hPa 401.400 MHz Type=RS41-SGP ser=U2220557 Radiosonde
WA9ONY-14U22205572022-12-06 12:43:5144.5019-122.4071128132548Clb=7.1m/s p=7.3hPa t=-58.7C h=4.2% 401.40MHz Type=RS41-SGP Join https://groups.io/g/Balloons
W7BDB-13U22205572022-12-06 12:43:5044.5028-122.411107832462Clb=5.1m/s p=7.4hPa t=-59.9C h=4.9% 401.40MHz Type=RS41-SGP batt=2.6V Details on http://radiosondy.info
K6GDP-11U22205572022-12-06 12:43:4944.5035-122.4141007432381Clb=6.9m/s t=-59.2C h=1.1% p=7.5hPa 401.400 MHz Type=RS41-SGP ser=U2220557 Radiosonde
WA9ONY-14U22205572022-12-06 12:43:4844.5041-122.4171188032298Clb=4.6m/s p=7.5hPa t=-58.8C h=4.6% 401.40MHz Type=RS41-SGP TxPastBurst=8h30m batt=2.5V Join https://groups.io/g/Balloons
W7BDB-13U22205572022-12-06 12:43:4744.5045-122.4191117232256Clb=6.8m/s p=7.6hPa t=-58.7C h=4.6% 401.40MHz Type=RS41-SGP Details on http://radiosondy.info
WA9ONY-14U22205572022-12-06 12:43:4644.5048-122.421247032237Clb=5.6m/s p=7.6hPa t=-58.6C h=4.6% 401.40MHz Type=RS41-SGP Join https://groups.io/g/Balloons
KJ7NUX-14U22205572022-12-06 12:43:4544.5049-122.421166932224Clb=6.6m/s p=7.6hPa t=-58.5C h=4.6% 401.40MHz Type=RS41-SGP batt=2.6V Details on http://radiosondy.info
WA9ONY-10U22205572022-12-06 12:43:4444.5052-122.4211117032192Clb=7.1m/s p=7.7hPa t=-58.3C h=4.4% 401.40MHz Type=RS41-SGP Join https://groups.io/g/Balloons
WA9ONY-14U22205572022-12-06 12:43:4344.5054-122.4221166532173Clb=6.0m/s p=7.7hPa t=-58.2C h=4.4% 401.40MHz Type=RS41-SGP Join https://groups.io/g/Balloons
W7BDB-13U22205572022-12-06 12:43:4244.5056-122.4221126932160Clb=7.2m/s p=7.7hPa t=-58.1C h=4.3% 401.40MHz Type=RS41-SGP batt=2.5V Details on http://radiosondy.info
WA9ONY-10U22205572022-12-06 12:43:3944.5059-122.4231267032125Clb=6.3m/s p=7.8hPa t=-58.0C h=4.3% 401.40MHz Type=RS41-SGP batt=2.6V Join https://groups.io/g/Balloons
KJ7NUX-14U22205572022-12-06 12:43:3844.506-122.4231266532119Clb=5.0m/s p=7.8hPa t=-58.0C h=4.2% 401.40MHz Type=RS41-SGP Details on http://radiosondy.info
WA9ONY-14U22205572022-12-06 12:43:3644.5061-122.4241177232108Clb=7.3m/s p=7.8hPa t=-58.0C h=4.2% 401.40MHz Type=RS41-SGP batt=2.5V Join https://groups.io/g/Balloons
WA9ONY-10U22205572022-12-06 12:43:3444.5067-122.4251235732059Clb=6.7m/s p=7.9hPa t=-58.2C h=4.2% 401.40MHz Type=RS41-SGP Join https://groups.io/g/Balloons
W7BDB-13U22205572022-12-06 12:43:3344.5067-122.4261245932052Clb=8.0m/s p=7.8hPa t=-58.2C h=4.2% 401.40MHz Type=RS41-SGP Details on http://radiosondy.info
KG7GDB-12U22205572022-12-06 12:43:3244.5071-122.4261345232018Clb=6.6m/s t=-58.4C h=1.0% p=8.0hPa 401.401 MHz Type=RS41-SGP ser=U2220557 Radiosonde
KJ7NUX-14U22205572022-12-06 12:43:3144.5072-122.4261305932012Clb=5.6m/s p=7.9hPa t=-58.4C h=4.3% 401.40MHz Type=RS41-SGP Details on http://radiosondy.info
WA9ONY-10U22205572022-12-06 12:43:2944.5075-122.4271155931989Clb=7.1m/s p=7.9hPa t=-58.6C h=4.3% 401.40MHz Type=RS41-SGP Join https://groups.io/g/Balloons
K6GDP-11U22205572022-12-06 12:43:2844.5076-122.4281177031978Clb=5.7m/s t=-58.9C h=1.1% p=8.0hPa 401.400 MHz Type=RS41-SGP ser=U2220557 Radiosonde
W7BDB-13U22205572022-12-06 12:43:2544.5081-122.4281476331944Clb=7.5m/s p=8.0hPa t=-59.0C h=4.6% 401.40MHz Type=RS41-SGP Details on http://radiosondy.info
WA9ONY-10U22205572022-12-06 12:43:2344.5084-122.4281506731926Clb=5.9m/s p=8.0hPa t=-58.9C h=4.6% 401.40MHz Type=RS41-SGP batt=2.6V Join https://groups.io/g/Balloons
KJ7NUX-14U22205572022-12-06 12:43:2244.5088-122.4291436731905Clb=6.1m/s p=8.0hPa t=-58.8C h=4.6% 401.40MHz Type=RS41-SGP batt=2.5V Details on http://radiosondy.info
WA9ONY-10U22205572022-12-06 12:43:1844.5096-122.431396731856Clb=6.4m/s p=8.1hPa t=-58.8C h=4.5% 401.40MHz Type=RS41-SGP Join https://groups.io/g/Balloons
WA9ONY-14U22205572022-12-06 12:43:1444.51-122.4311487431835Clb=7.9m/s p=8.1hPa t=-58.7C h=4.6% 401.40MHz Type=RS41-SGP Join https://groups.io/g/Balloons
KG7GDB-12U22205572022-12-06 12:43:0844.5105-122.4311437031809Clb=7.4m/s t=-58.8C h=1.1% p=8.2hPa 401.401 MHz Type=RS41-SGP ser=U2220557 Radiosonde
KJ7NUX-14U22205572022-12-06 12:43:0744.5108-122.4311368031796Clb=5.7m/s p=8.1hPa t=-58.7C h=4.7% 401.40MHz Type=RS41-SGP Details on http://radiosondy.info
WA9ONY-10U22205572022-12-06 12:43:0644.5109-122.4321328131789Clb=8.2m/s p=8.2hPa t=-58.7C h=4.6% 401.40MHz Type=RS41-SGP Join https://groups.io/g/Balloons
K6GDP-11U22205572022-12-06 12:43:0344.5113-122.4321238731767Clb=5.5m/s t=-58.7C h=1.1% p=8.3hPa 401.400 MHz Type=RS41-SGP ser=U2220557 Radiosonde
KE7WWCU22205572022-12-06 12:42:5944.5122-122.4331486731726Clb=7.8m/s t=-58.5C h=1.0% p=8.3hPa 401.374 MHz Type=RS41-SGP ser=U2220557 Radiosonde
W7BDB-13U22205572022-12-06 12:42:5644.5122-122.4331498131726Clb=7.7m/s p=8.3hPa t=-58.5C h=4.4% 401.40MHz Type=RS41-SGP Details on http://radiosondy.info
WA9ONY-10U22205572022-12-06 12:42:5344.5123-122.4341478331719Clb=5.8m/s p=8.3hPa t=-58.4C h=4.4% 401.40MHz Type=RS41-SGP TxPastBurst=8h30m batt=2.6V Join https://groups.io/g/Balloons
WA9ONY-14U22205572022-12-06 12:42:4844.5127-122.4341388931701Clb=7.8m/s p=8.3hPa t=-58.4C h=4.4% 401.40MHz Type=RS41-SGP TxPastBurst=8h30m batt=2.5V Join https://groups.io/g/Balloons
KJ7NUX-14U22205572022-12-06 12:42:4744.513-122.4341318131687Clb=6.0m/s p=8.3hPa t=-58.4C h=4.4% 401.40MHz Type=RS41-SGP Details on http://radiosondy.info
WA9ONY-10U22205572022-12-06 12:42:3944.5137-122.4361277631654Clb=6.6m/s p=8.4hPa t=-58.5C h=4.5% 401.40MHz Type=RS41-SGP Join https://groups.io/g/Balloons
WA9ONY-14U22205572022-12-06 12:42:3444.5141-122.4361417831633Clb=6.0m/s p=8.4hPa t=-58.5C h=4.6% 401.40MHz Type=RS41-SGP Join https://groups.io/g/Balloons
W7BDB-13U22205572022-12-06 12:42:3344.5142-122.4371408031625Clb=7.8m/s p=8.4hPa t=-58.5C h=4.6% 401.40MHz Type=RS41-SGP Details on http://radiosondy.info
KG7GDB-12U22205572022-12-06 12:42:2744.5148-122.4371268031590Clb=5.9m/s t=-58.4C h=1.1% p=8.5hPa 401.401 MHz Type=RS41-SGP ser=U2220557 Radiosonde
WA9ONY-10U22205572022-12-06 12:42:2244.5149-122.4381228131584Clb=5.3m/s p=8.5hPa t=-58.3C h=4.6% 401.40MHz Type=RS41-SGP Join https://groups.io/g/Balloons
KJ7NUX-14U22205572022-12-06 12:42:1644.5152-122.4381138131562Clb=5.9m/s p=8.5hPa t=-58.2C h=4.5% 401.40MHz Type=RS41-SGP TxPastBurst=8h30m batt=2.5V Details on http://radiosondy.info
WA9ONY-14U22205572022-12-06 12:42:1544.5152-122.4381138031562Clb=5.9m/s p=8.5hPa t=-58.2C h=4.5% 401.40MHz Type=RS41-SGP Join https://groups.io/g/Balloons
K6GDP-11U22205572022-12-06 12:42:1044.5153-122.4391148331557Clb=5.3m/s t=-58.2C h=1.1% p=8.5hPa 401.400 MHz Type=RS41-SGP ser=U2220557 Radiosonde
W7BDB-13U22205572022-12-06 12:42:0544.5159-122.441308031522Clb=7.3m/s p=8.5hPa t=-57.9C h=4.5% 401.40MHz Type=RS41-SGP batt=2.5V Details on http://radiosondy.info
WA9ONY-14U22205572022-12-06 12:42:0144.5163-122.4411268131497Clb=7.6m/s p=8.5hPa t=-57.6C h=4.4% 401.40MHz Type=RS41-SGP batt=2.5V Join https://groups.io/g/Balloons
KJ7NUX-14U22205572022-12-06 12:42:0044.5169-122.4421108331456Clb=5.2m/s p=8.6hPa t=-57.3C h=4.3% 401.40MHz Type=RS41-SGP Details on http://radiosondy.info
KG7GDB-12U22205572022-12-06 12:41:5944.5181-122.4451118931387Clb=7.0m/s t=-56.8C h=0.9% p=8.8hPa 401.401 MHz Type=RS41-SGP ser=U2220557 Radiosonde
W7BDB-13U22205572022-12-06 12:41:5744.519-122.4481238931321Clb=6.4m/s p=8.8hPa t=-56.6C h=3.7% 401.40MHz Type=RS41-SGP Details on http://radiosondy.info
WA9ONY-10U22205572022-12-06 12:41:5644.5198-122.451159631258Clb=5.4m/s p=8.9hPa t=-57.9C h=3.9% 401.40MHz Type=RS41-SGP Join https://groups.io/g/Balloons
W7BDB-13U22205572022-12-06 12:41:5544.5203-122.4521088131222Clb=7.5m/s p=8.9hPa t=-58.5C h=4.2% 401.40MHz Type=RS41-SGP batt=2.6V Details on http://radiosondy.info
WA9ONY-10U22205572022-12-06 12:41:5444.5206-122.4541047031201Clb=6.4m/s p=9.0hPa t=-59.0C h=4.3% 401.40MHz Type=RS41-SGP Join https://groups.io/g/Balloons
KJ7NUX-14U22205572022-12-06 12:41:5344.5209-122.4551167031156Clb=5.3m/s p=9.0hPa t=-59.3C h=4.3% 401.40MHz Type=RS41-SGP Details on http://radiosondy.info
WA9ONY-10U22205572022-12-06 12:41:5244.5217-122.4581076131076Clb=5.2m/s p=9.2hPa t=-60.6C h=4.7% 401.40MHz Type=RS41-SGP Join https://groups.io/g/Balloons
WA9ONY-10U22205572022-12-06 12:41:5144.5223-122.461186131012Clb=5.9m/s p=9.2hPa t=-61.0C h=4.8% 401.40MHz Type=RS41-SGP Join https://groups.io/g/Balloons
WA9ONY-14U22205572022-12-06 12:41:5044.5239-122.4641306530868Clb=6.6m/s p=9.4hPa t=-61.2C h=5.0% 401.40MHz Type=RS41-SGP Join https://groups.io/g/Balloons
KJ7NUX-14U22205572022-12-06 12:41:4944.5241-122.4651276730856Clb=6.1m/s p=9.5hPa t=-61.2C h=5.0% 401.40MHz Type=RS41-SGP Details on http://radiosondy.info
KJ7NUX-14U22205572022-12-06 12:41:4844.5261-122.4681287830742Clb=5.2m/s p=9.7hPa t=-61.6C h=5.2% 401.40MHz Type=RS41-SGP Details on http://radiosondy.info
KJ7NUX-14U22205572022-12-06 12:41:4744.5282-122.4711287230645Clb=4.8m/s p=9.8hPa t=-61.2C h=5.2% 401.40MHz Type=RS41-SGP TxPastBurst=8h30m batt=2.6V Details on http://radiosondy.info
K6GDP-11U22205572022-12-06 12:41:4644.5295-122.4731327430575Clb=6.0m/s t=-60.9C h=1.2% p=10.0hPa 401.400 MHz Type=RS41-SGP ser=U2220557 Radiosonde
WA9ONY-14U22205572022-12-06 12:41:4544.5311-122.4761257430494Clb=7.4m/s p=10.0hPa t=-60.5C h=4.8% 401.40MHz Type=RS41-SGP Join https://groups.io/g/Balloons
W7BDB-13U22205572022-12-06 12:41:4444.5314-122.4761277830474Clb=6.3m/s p=10.1hPa t=-60.5C h=4.9% 401.40MHz Type=RS41-SGP Details on http://radiosondy.info
WA9ONY-10U22205572022-12-06 12:41:4344.5318-122.4771268030450Clb=6.4m/s p=10.1hPa t=-60.6C h=4.9% 401.40MHz Type=RS41-SGP Join https://groups.io/g/Balloons
WA9ONY-14U22205572022-12-06 12:41:4244.5322-122.4781287830430Clb=4.7m/s p=10.1hPa t=-60.6C h=5.0% 401.40MHz Type=RS41-SGP Join https://groups.io/g/Balloons
KG7GDB-12U22205572022-12-06 12:41:4144.5324-122.4781208030418Clb=7.3m/s t=-60.7C h=1.2% p=10.2hPa 401.401 MHz Type=RS41-SGP ser=U2220557 Radiosonde
WA9ONY-10U22205572022-12-06 12:41:3844.5328-122.4791187030388Clb=6.3m/s p=10.3hPa t=-60.6C h=4.9% 401.40MHz Type=RS41-SGP batt=2.5V Join https://groups.io/g/Balloons
K6GDP-11U22205572022-12-06 12:41:3744.5329-122.481197230381Clb=5.7m/s t=-60.6C h=1.1% p=10.3hPa 401.400 MHz Type=RS41-SGP ser=U2220557 Radiosonde
WA9ONY-14U22205572022-12-06 12:41:3344.5331-122.481207230369Clb=7.5m/s p=10.3hPa t=-60.5C h=4.9% 401.40MHz Type=RS41-SGP batt=2.6V Join https://groups.io/g/Balloons
KE7WWCU22205572022-12-06 12:41:3044.5333-122.4811146530349Clb=5.7m/s t=-60.5C h=1.2% p=10.3hPa 401.375 MHz Type=RS41-SGP ser=U2220557 Radiosonde
KJ7NUX-14U22205572022-12-06 12:41:2944.5333-122.4811166930342Clb=7.5m/s p=10.3hPa t=-60.4C h=4.8% 401.40MHz Type=RS41-SGP batt=2.6V Details on http://radiosondy.info
WA9ONY-10U22205572022-12-06 12:41:2544.5336-122.4821137030323Clb=6.5m/s p=10.3hPa t=-60.4C h=4.7% 401.40MHz Type=RS41-SGP Join https://groups.io/g/Balloons
WA9ONY-14U22205572022-12-06 12:41:2244.5338-122.4821066530304Clb=4.6m/s p=10.4hPa t=-60.6C h=4.9% 401.40MHz Type=RS41-SGP Join https://groups.io/g/Balloons
W7BDB-13U22205572022-12-06 12:41:1744.534-122.4831146530279Clb=6.3m/s p=10.4hPa t=-60.6C h=4.8% 401.40MHz Type=RS41-SGP Details on http://radiosondy.info
WA9ONY-10U22205572022-12-06 12:41:1444.5342-122.4841176730258Clb=5.7m/s p=10.4hPa t=-60.8C h=5.0% 401.40MHz Type=RS41-SGP Join https://groups.io/g/Balloons
KJ7NUX-14U22205572022-12-06 12:41:1244.5344-122.4841256130237Clb=7.0m/s p=10.4hPa t=-60.9C h=5.0% 401.40MHz Type=RS41-SGP Details on http://radiosondy.info
WA9ONY-14U22205572022-12-06 12:41:1144.5344-122.4841256930237Clb=7.0m/s p=10.4hPa t=-60.9C h=5.0% 401.40MHz Type=RS41-SGP Join https://groups.io/g/Balloons
KG7GDB-12U22205572022-12-06 12:41:0944.5347-122.4851197230219Clb=7.4m/s t=-60.9C h=1.2% p=10.5hPa 401.401 MHz Type=RS41-SGP ser=U2220557 Radiosonde
W7BDB-12U22205572022-12-06 12:41:0844.535-122.4861156530199Clb=6.2m/s t=-60.9C h=1.1% p=10.6hPa 401.399 MHz Type=RS41-SGP ser=U2220557 Radiosonde
WA9ONY-10U22205572022-12-06 12:41:0544.535-122.4861195630193Clb=7.4m/s p=10.6hPa t=-60.8C h=5.0% 401.40MHz Type=RS41-SGP batt=2.6V Join https://groups.io/g/Balloons
K6GDP-11U22205572022-12-06 12:41:0344.5352-122.4861285730179Clb=5.6m/s t=-60.9C h=1.2% p=10.6hPa 401.400 MHz Type=RS41-SGP ser=U2220557 Radiosonde
W7BDB-13U22205572022-12-06 12:41:0144.5353-122.4861326530173Clb=6.9m/s p=10.6hPa t=-60.8C h=5.0% 401.40MHz Type=RS41-SGP Details on http://radiosondy.info
KE7WWCU22205572022-12-06 12:40:5544.5356-122.4871315230147Clb=6.5m/s t=-60.8C h=1.2% p=10.7hPa 401.375 MHz Type=RS41-SGP ser=U2220557 Radiosonde
KJ7NUX-14U22205572022-12-06 12:40:5044.5358-122.4871226330134Clb=5.7m/s p=10.6hPa t=-60.7C h=5.0% 401.40MHz Type=RS41-SGP Details on http://radiosondy.info
WA9ONY-10U22205572022-12-06 12:40:4844.5359-122.4871176730129Clb=5.5m/s p=10.7hPa t=-60.7C h=5.0% 401.40MHz Type=RS41-SGP Join https://groups.io/g/Balloons
WA9ONY-14U22205572022-12-06 12:40:4244.5361-122.4881035930108Clb=6.2m/s p=10.7hPa t=-60.6C h=5.0% 401.40MHz Type=RS41-SGP Join https://groups.io/g/Balloons
W7BDB-13U22205572022-12-06 12:40:3344.5363-122.4891146730076Clb=6.2m/s p=10.7hPa t=-60.4C h=4.9% 401.40MHz Type=RS41-SGP TxPastBurst=8h30m batt=2.6V Details on http://radiosondy.info
WA9ONY-10U22205572022-12-06 12:40:2944.5364-122.491106930062Clb=6.6m/s p=10.8hPa t=-60.4C h=4.9% 401.40MHz Type=RS41-SGP Join https://groups.io/g/Balloons
WA9ONY-14U22205572022-12-06 12:40:2444.5365-122.491087030044Clb=7.9m/s p=10.8hPa t=-60.4C h=4.7% 401.40MHz Type=RS41-SGP Join https://groups.io/g/Balloons
KJ7NUX-14U22205572022-12-06 12:40:2144.5366-122.4911046930030Clb=5.9m/s p=10.8hPa t=-60.4C h=4.9% 401.40MHz Type=RS41-SGP batt=2.6V Details on http://radiosondy.info
KG7GDB-12U22205572022-12-06 12:40:1844.5367-122.491968030017Clb=7.3m/s t=-60.6C h=1.2% p=10.9hPa 401.401 MHz Type=RS41-SGP ser=U2220557 Radiosonde
WA9ONY-10U22205572022-12-06 12:40:1044.5367-122.492976329999Clb=6.2m/s p=10.9hPa t=-60.6C h=4.9% 401.40MHz Type=RS41-SGP TxPastBurst=8h30m batt=2.6V Join https://groups.io/g/Balloons
K6GDP-11U22205572022-12-06 12:40:0444.5368-122.4931025929980Clb=5.4m/s t=-60.7C h=1.2% p=11.0hPa 401.400 MHz Type=RS41-SGP ser=U2220557 Radiosonde
W7BDB-13U22205572022-12-06 12:40:0344.5368-122.4931036329980Clb=5.4m/s p=10.9hPa t=-60.7C h=5.0% 401.40MHz Type=RS41-SGP Details on http://radiosondy.info
WA9ONY-14U22205572022-12-06 12:40:0044.5368-122.4931006529973Clb=7.3m/s p=10.9hPa t=-60.7C h=4.9% 401.40MHz Type=RS41-SGP TxPastBurst=8h30m batt=2.6V Join https://groups.io/g/Balloons
KE7WWCU22205572022-12-06 12:39:5444.5368-122.494946729946Clb=7.9m/s t=-60.7C h=1.2% p=10.9hPa 401.375 MHz Type=RS41-SGP ser=U2220557 Radiosonde
WA9ONY-10U22205572022-12-06 12:39:4844.5369-122.4941026329932Clb=5.9m/s p=11.0hPa t=-60.7C h=4.9% 401.40MHz Type=RS41-SGP Join https://groups.io/g/Balloons
KJ7NUX-14U22205572022-12-06 12:39:4744.5369-122.4941025929926Clb=6.1m/s p=11.0hPa t=-60.6C h=4.9% 401.40MHz Type=RS41-SGP Details on http://radiosondy.info
WA9ONY-14U22205572022-12-06 12:39:4244.537-122.4951045729907Clb=5.3m/s p=11.0hPa t=-60.5C h=4.9% 401.40MHz Type=RS41-SGP Join https://groups.io/g/Balloons
W7BDB-13U22205572022-12-06 12:39:3344.5372-122.4961165629880Clb=6.0m/s p=11.1hPa t=-60.5C h=5.0% 401.40MHz Type=RS41-SGP Details on http://radiosondy.info
WA9ONY-10U22205572022-12-06 12:39:2944.5373-122.4961095629865Clb=7.0m/s p=11.1hPa t=-60.5C h=4.9% 401.40MHz Type=RS41-SGP Join https://groups.io/g/Balloons
WA9ONY-14U22205572022-12-06 12:39:1944.5375-122.4971095729838Clb=6.7m/s p=11.1hPa t=-60.5C h=5.0% 401.40MHz Type=RS41-SGP Join https://groups.io/g/Balloons
KJ7NUX-14U22205572022-12-06 12:39:1444.5376-122.4971035229816Clb=6.7m/s p=11.2hPa t=-60.4C h=5.0% 401.40MHz Type=RS41-SGP Details on http://radiosondy.info
KG7GDB-12U22205572022-12-06 12:39:1244.5377-122.4981035929810Clb=5.2m/s t=-60.4C h=1.2% p=11.2hPa 401.401 MHz Type=RS41-SGP ser=U2220557 Radiosonde
WA9ONY-10U22205572022-12-06 12:39:0544.5377-122.4981134829797Clb=7.9m/s p=11.2hPa t=-60.3C h=4.9% 401.40MHz Type=RS41-SGP batt=2.6V Join https://groups.io/g/Balloons
W7BDB-13U22205572022-12-06 12:38:5844.5379-122.4991224629777Clb=7.9m/s p=11.3hPa t=-60.2C h=4.9% 401.40MHz Type=RS41-SGP batt=2.5V Details on http://radiosondy.info
K6GDP-11U22205572022-12-06 12:38:5644.538-122.4991184329769Clb=7.7m/s t=-60.2C h=1.2% p=11.3hPa 401.400 MHz Type=RS41-SGP ser=U2220557 Radiosonde
WA9ONY-14U22205572022-12-06 12:38:5544.538-122.4991194629769Clb=7.6m/s p=11.2hPa t=-60.2C h=4.9% 401.40MHz Type=RS41-SGP batt=2.5V Join https://groups.io/g/Balloons
WA9ONY-10U22205572022-12-06 12:38:4344.5383-122.4991085029728Clb=7.9m/s p=11.4hPa t=-60.0C h=4.8% 401.40MHz Type=RS41-SGP Join https://groups.io/g/Balloons
KJ7NUX-14U22205572022-12-06 12:38:3744.5384-122.51084829707Clb=6.5m/s p=11.4hPa t=-59.9C h=4.7% 401.40MHz Type=RS41-SGP TxPastBurst=8h30m batt=2.6V Details on http://radiosondy.info
WA9ONY-14U22205572022-12-06 12:38:3444.5384-122.51134629699Clb=7.9m/s p=11.5hPa t=-59.8C h=4.7% 401.40MHz Type=RS41-SGP Join https://groups.io/g/Balloons
W7BDB-13U22205572022-12-06 12:38:2644.5387-122.5011234629672Clb=7.5m/s p=11.5hPa t=-59.7C h=4.5% 401.40MHz Type=RS41-SGP Details on http://radiosondy.info
WA9ONY-10U22205572022-12-06 12:38:2144.5388-122.5011244629658Clb=6.3m/s p=11.5hPa t=-59.6C h=4.5% 401.40MHz Type=RS41-SGP Join https://groups.io/g/Balloons
WA9ONY-14U22205572022-12-06 12:38:1344.5391-122.5021265029631Clb=5.9m/s p=11.5hPa t=-59.5C h=4.4% 401.40MHz Type=RS41-SGP Join https://groups.io/g/Balloons
KJ7NUX-14U22205572022-12-06 12:38:0144.5393-122.5021174829597Clb=6.7m/s p=11.6hPa t=-60.3C h=4.8% 401.40MHz Type=RS41-SGP Details on http://radiosondy.info
WA9ONY-10U22205572022-12-06 12:37:5844.5394-122.5021225029590Clb=7.4m/s p=11.6hPa t=-60.5C h=4.8% 401.40MHz Type=RS41-SGP batt=2.5V Join https://groups.io/g/Balloons
W7BDB-13U22205572022-12-06 12:37:5044.5396-122.5031264829571Clb=8.2m/s p=11.7hPa t=-60.7C h=4.9% 401.40MHz Type=RS41-SGP Details on http://radiosondy.info
WA9ONY-14U22205572022-12-06 12:37:4744.5397-122.5031264629563Clb=7.0m/s p=11.7hPa t=-60.7C h=5.0% 401.40MHz Type=RS41-SGP batt=2.6V Join https://groups.io/g/Balloons
K6GDP-11U22205572022-12-06 12:37:4644.5398-122.5031274429556Clb=5.9m/s t=-60.8C h=1.2% p=11.7hPa 401.400 MHz Type=RS41-SGP ser=U2220557 Radiosonde
WA9ONY-10U22205572022-12-06 12:37:3444.5402-122.5041344629521Clb=7.9m/s p=11.7hPa t=-60.7C h=5.0% 401.40MHz Type=RS41-SGP Join https://groups.io/g/Balloons
WA9ONY-14U22205572022-12-06 12:37:2444.5405-122.5041365229495Clb=7.6m/s p=11.8hPa t=-60.7C h=5.0% 401.40MHz Type=RS41-SGP Join https://groups.io/g/Balloons
KJ7NUX-14U22205572022-12-06 12:37:2344.5406-122.5041395229488Clb=6.7m/s p=11.8hPa t=-60.7C h=5.0% 401.40MHz Type=RS41-SGP Details on http://radiosondy.info
W7BDB-13U22205572022-12-06 12:37:1744.5408-122.5051405229467Clb=7.1m/s p=11.8hPa t=-60.6C h=5.1% 401.40MHz Type=RS41-SGP batt=2.5V Details on http://radiosondy.info
WA9ONY-10U22205572022-12-06 12:37:1244.541-122.5051445429454Clb=7.0m/s p=11.8hPa t=-60.6C h=5.0% 401.40MHz Type=RS41-SGP Join https://groups.io/g/Balloons
WA9ONY-14U22205572022-12-06 12:37:0244.5415-122.5051425029426Clb=7.9m/s p=11.9hPa t=-60.5C h=5.0% 401.40MHz Type=RS41-SGP Join https://groups.io/g/Balloons
WA9ONY-10U22205572022-12-06 12:36:4744.5421-122.5061434629386Clb=6.2m/s p=12.0hPa t=-60.2C h=4.9% 401.40MHz Type=RS41-SGP TxPastBurst=8h30m batt=2.5V Join https://groups.io/g/Balloons
W7BDB-13U22205572022-12-06 12:36:4144.5423-122.5061434629364Clb=6.5m/s p=12.0hPa t=-60.1C h=4.9% 401.40MHz Type=RS41-SGP Details on http://radiosondy.info
WA9ONY-14U22205572022-12-06 12:36:3944.5424-122.5061424829356Clb=7.6m/s p=11.9hPa t=-60.1C h=4.9% 401.40MHz Type=RS41-SGP TxPastBurst=8h30m batt=2.6V Join https://groups.io/g/Balloons
K6GDP-11U22205572022-12-06 12:36:3644.5426-122.5071355029341Clb=5.9m/s t=-60.1C h=1.1% p=12.1hPa 401.400 MHz Type=RS41-SGP ser=U2220557 Radiosonde
WA9ONY-10U22205572022-12-06 12:36:2744.5429-122.5071274829315Clb=5.9m/s p=12.1hPa t=-60.0C h=5.0% 401.40MHz Type=RS41-SGP Join https://groups.io/g/Balloons
WA9ONY-14U22205572022-12-06 12:36:1744.5432-122.5081435229289Clb=6.4m/s p=12.2hPa t=-59.8C h=4.9% 401.40MHz Type=RS41-SGP Join https://groups.io/g/Balloons
KE7WWCU22205572022-12-06 12:36:1044.5436-122.5081344629260Clb=7.0m/s t=-59.7C h=1.1% p=12.3hPa 401.375 MHz Type=RS41-SGP ser=U2220557 Radiosonde
W7BDB-13U22205572022-12-06 12:36:0844.5436-122.5081355429260Clb=7.0m/s p=12.2hPa t=-59.6C h=4.8% 401.40MHz Type=RS41-SGP Details on http://radiosondy.info
KJ7NUX-14U22205572022-12-06 12:36:0744.5437-122.5081315429253Clb=7.3m/s p=12.2hPa t=-59.5C h=4.8% 401.40MHz Type=RS41-SGP Details on http://radiosondy.info
WA9ONY-10U22205572022-12-06 12:36:0344.5437-122.5081245629247Clb=5.7m/s p=12.3hPa t=-59.5C h=4.7% 401.40MHz Type=RS41-SGP Join https://groups.io/g/Balloons
WA9ONY-14U22205572022-12-06 12:35:5644.544-122.5091065229220Clb=5.9m/s p=12.3hPa t=-59.2C h=4.5% 401.40MHz Type=RS41-SGP Join https://groups.io/g/Balloons
WA9ONY-10U22205572022-12-06 12:35:4244.5443-122.511305229178Clb=7.0m/s p=12.4hPa t=-59.1C h=4.4% 401.40MHz Type=RS41-SGP batt=2.6V Join https://groups.io/g/Balloons
KG7GDB-12U22205572022-12-06 12:35:4044.5444-122.511294429171Clb=5.8m/s t=-59.1C h=1.0% p=12.5hPa 401.401 MHz Type=RS41-SGP ser=U2220557 Radiosonde
W7BDB-13U22205572022-12-06 12:35:3244.5446-122.5111285429152Clb=6.4m/s p=12.4hPa t=-59.1C h=4.3% 401.40MHz Type=RS41-SGP TxPastBurst=8h30m batt=2.5V Details on http://radiosondy.info
KJ7NUX-14U22205572022-12-06 12:35:3044.5447-122.5111255429146Clb=4.9m/s p=12.4hPa t=-59.2C h=4.3% 401.40MHz Type=RS41-SGP Details on http://radiosondy.info
K6GDP-11U22205572022-12-06 12:35:2544.5449-122.5111105029126Clb=7.2m/s t=-59.4C h=1.1% p=12.6hPa 401.400 MHz Type=RS41-SGP ser=U2220557 Radiosonde
WA9ONY-10U22205572022-12-06 12:35:1544.545-122.5121145429113Clb=7.0m/s p=12.5hPa t=-59.5C h=4.6% 401.40MHz Type=RS41-SGP Join https://groups.io/g/Balloons
WA9ONY-14U22205572022-12-06 12:35:0444.5453-122.5121205429086Clb=7.9m/s p=12.6hPa t=-59.8C h=4.7% 401.40MHz Type=RS41-SGP Join https://groups.io/g/Balloons
KE7WWCU22205572022-12-06 12:34:5044.5456-122.5131175629053Clb=5.6m/s t=-59.9C h=1.1% p=12.7hPa 401.375 MHz Type=RS41-SGP ser=U2220557 Radiosonde
W7BDB-13U22205572022-12-06 12:34:4644.5456-122.5131145429047Clb=5.3m/s p=12.7hPa t=-59.9C h=4.6% 401.40MHz Type=RS41-SGP Details on http://radiosondy.info
KJ7NUX-14U22205572022-12-06 12:34:3944.5457-122.514955229025Clb=6.4m/s p=12.7hPa t=-59.9C h=4.5% 401.40MHz Type=RS41-SGP batt=2.5V Details on http://radiosondy.info
WA9ONY-14U22205572022-12-06 12:34:3644.5457-122.514975629019Clb=6.2m/s p=12.7hPa t=-59.9C h=4.5% 401.40MHz Type=RS41-SGP Join https://groups.io/g/Balloons
WA9ONY-10U22205572022-12-06 12:34:1944.546-122.5151115228978Clb=5.4m/s p=12.8hPa t=-60.4C h=4.7% 401.40MHz Type=RS41-SGP batt=2.5V Join https://groups.io/g/Balloons
KG7GDB-12U22205572022-12-06 12:34:1444.5462-122.5151165628957Clb=5.9m/s t=-60.5C h=1.2% p=12.9hPa 401.401 MHz Type=RS41-SGP ser=U2220557 Radiosonde
WA9ONY-14U22205572022-12-06 12:34:0844.5462-122.5161144628952Clb=5.8m/s p=12.8hPa t=-60.5C h=4.8% 401.40MHz Type=RS41-SGP batt=2.5V Join https://groups.io/g/Balloons
W7BDB-13U22205572022-12-06 12:34:0644.5463-122.5161094828945Clb=7.9m/s p=12.8hPa t=-60.4C h=4.8% 401.40MHz Type=RS41-SGP Details on http://radiosondy.info
K6GDP-11U22205572022-12-06 12:33:5944.5464-122.5161074128924Clb=6.7m/s t=-60.4C h=1.1% p=12.9hPa 401.400 MHz Type=RS41-SGP ser=U2220557 Radiosonde
KJ7NUX-14U22205572022-12-06 12:33:5744.5464-122.5161155228917Clb=7.3m/s p=12.9hPa t=-60.4C h=4.7% 401.40MHz Type=RS41-SGP Details on http://radiosondy.info
WA9ONY-10U22205572022-12-06 12:33:5444.5464-122.5171195428911Clb=6.3m/s p=12.9hPa t=-60.4C h=4.7% 401.40MHz Type=RS41-SGP Join https://groups.io/g/Balloons
WA9ONY-14U22205572022-12-06 12:33:4544.5467-122.5171125428884Clb=5.2m/s p=13.0hPa t=-60.8C h=4.9% 401.40MHz Type=RS41-SGP Join https://groups.io/g/Balloons
KE7WWCU22205572022-12-06 12:33:3344.547-122.5181035028844Clb=8.3m/s t=-61.1C h=1.2% p=13.1hPa 401.375 MHz Type=RS41-SGP ser=U2220557 Radiosonde
WA9ONY-10U22205572022-12-06 12:33:3144.547-122.5181045428844Clb=8.3m/s p=13.1hPa t=-61.1C h=5.0% 401.40MHz Type=RS41-SGP Join https://groups.io/g/Balloons
WA9ONY-14U22205572022-12-06 12:33:2144.5471-122.5191045628818Clb=8.1m/s p=13.1hPa t=-61.1C h=5.2% 401.40MHz Type=RS41-SGP Join https://groups.io/g/Balloons
KJ7NUX-14U22205572022-12-06 12:33:1944.5471-122.5191115428810Clb=7.1m/s p=13.1hPa t=-61.1C h=5.1% 401.40MHz Type=RS41-SGP Details on http://radiosondy.info
WA9ONY-10U22205572022-12-06 12:33:0444.5474-122.521195428775Clb=6.9m/s p=13.2hPa t=-61.0C h=5.2% 401.40MHz Type=RS41-SGP TxPastBurst=8h30m batt=2.5V Join https://groups.io/g/Balloons
KG7GDB-12U22205572022-12-06 12:32:5644.5476-122.5211185428755Clb=5.2m/s t=-60.9C h=1.2% p=13.3hPa 401.401 MHz Type=RS41-SGP ser=U2220557 Radiosonde
W7BDB-13U22205572022-12-06 12:32:5244.5746-122.5831373724962Clb=5.5m/s p=24.2hPa t=-56.8C h=4.3% 401.40MHz Type=RS41-SGP Details on http://radiosondy.info
KJ7NUX-14U22205572022-12-06 12:32:5044.5746-122.5831343524955Clb=7.3m/s p=24.2hPa t=-56.8C h=4.3% 401.40MHz Type=RS41-SGP Details on http://radiosondy.info
WA9ONY-10U22205572022-12-06 12:32:4644.5747-122.5831293524949Clb=5.5m/s p=24.2hPa t=-56.7C h=4.3% 401.40MHz Type=RS41-SGP Join https://groups.io/g/Balloons
KE7WWCU22205572022-12-06 12:32:4544.5747-122.5831263124943Clb=5.0m/s t=-56.7C h=1.0% p=24.3hPa 401.375 MHz Type=RS41-SGP ser=U2220557 Radiosonde
WA9ONY-14U22205572022-12-06 12:32:3644.5749-122.5831373724924Clb=6.2m/s p=24.3hPa t=-56.5C h=4.1% 401.40MHz Type=RS41-SGP Join https://groups.io/g/Balloons
WA9ONY-10U22205572022-12-06 12:32:1944.5753-122.5841343324888Clb=4.8m/s p=24.5hPa t=-56.3C h=4.2% 401.40MHz Type=RS41-SGP Join https://groups.io/g/Balloons
WA9ONY-14U22205572022-12-06 12:32:1044.5755-122.5841363524866Clb=5.2m/s p=24.6hPa t=-56.1C h=4.1% 401.40MHz Type=RS41-SGP Join https://groups.io/g/Balloons
KJ7NUX-14U22205572022-12-06 12:32:0844.5756-122.5841443124860Clb=5.0m/s p=24.6hPa t=-56.1C h=4.1% 401.40MHz Type=RS41-SGP Details on http://radiosondy.info
W7BDB-12U22205572022-12-06 12:32:0744.5758-122.5841393524843Clb=5.6m/s t=-56.1C h=1.0% p=24.7hPa 401.399 MHz Type=RS41-SGP ser=U2220557 Radiosonde
K6GDP-11U22205572022-12-06 12:31:5544.576-122.5851253724820Clb=6.6m/s t=-55.9C h=1.0% p=24.8hPa 401.400 MHz Type=RS41-SGP ser=U2220557 Radiosonde
WA9ONY-14U22205572022-12-06 12:31:4444.5762-122.5851363024808Clb=4.9m/s p=24.8hPa t=-55.8C h=4.0% 401.40MHz Type=RS41-SGP TxPastBurst=8h30m batt=2.5V Join https://groups.io/g/Balloons
W7BDB-13U22205572022-12-06 12:31:3044.5764-122.5851493024773Clb=6.2m/s p=24.9hPa t=-55.7C h=3.9% 401.40MHz Type=RS41-SGP TxPastBurst=8h30m batt=2.5V Details on http://radiosondy.info
KJ7NUX-14U22205572022-12-06 12:31:2944.5765-122.5851463024767Clb=5.3m/s p=25.0hPa t=-55.7C h=3.9% 401.40MHz Type=RS41-SGP batt=2.5V Details on http://radiosondy.info
KE7WWCU22205572022-12-06 12:31:2744.5766-122.5851413124761Clb=5.5m/s t=-55.7C h=0.9% p=25.0hPa 401.375 MHz Type=RS41-SGP ser=U2220557 Radiosonde
WA9ONY-14U22205572022-12-06 12:31:2244.5767-122.5851293024750Clb=5.0m/s p=25.0hPa t=-55.7C h=3.9% 401.40MHz Type=RS41-SGP Join https://groups.io/g/Balloons
WA9ONY-10U22205572022-12-06 12:31:0844.577-122.5861243024716Clb=7.0m/s p=25.1hPa t=-55.9C h=3.9% 401.40MHz Type=RS41-SGP Join https://groups.io/g/Balloons
WA9ONY-14U22205572022-12-06 12:30:5944.5771-122.5861413324690Clb=5.2m/s p=25.3hPa t=-56.1C h=4.0% 401.40MHz Type=RS41-SGP Join https://groups.io/g/Balloons
W7BDB-13U22205572022-12-06 12:30:5444.5772-122.5861353124679Clb=6.5m/s p=25.3hPa t=-56.1C h=4.0% 401.40MHz Type=RS41-SGP Details on http://radiosondy.info
KJ7NUX-14U22205572022-12-06 12:30:5344.5773-122.5861343324673Clb=5.0m/s p=25.3hPa t=-56.1C h=4.0% 401.40MHz Type=RS41-SGP Details on http://radiosondy.info
WA9ONY-10U22205572022-12-06 12:30:4444.5775-122.5871393324656Clb=5.3m/s p=25.4hPa t=-56.1C h=3.9% 401.40MHz Type=RS41-SGP batt=2.5V Join https://groups.io/g/Balloons
K6GDP-11U22205572022-12-06 12:30:4144.5777-122.5871213324637Clb=6.2m/s t=-56.3C h=0.9% p=25.5hPa 401.400 MHz Type=RS41-SGP ser=U2220557 Radiosonde
WA9ONY-14U22205572022-12-06 12:30:3344.5777-122.5871173124632Clb=4.7m/s p=25.5hPa t=-56.5C h=4.0% 401.40MHz Type=RS41-SGP batt=2.6V Join https://groups.io/g/Balloons
WA9ONY-10U22205572022-12-06 12:30:2044.578-122.5881283324599Clb=4.6m/s p=25.6hPa t=-56.6C h=4.1% 401.40MHz Type=RS41-SGP Join https://groups.io/g/Balloons
W7BDB-13U22205572022-12-06 12:30:1944.578-122.5881343124594Clb=5.4m/s p=25.6hPa t=-56.6C h=4.1% 401.40MHz Type=RS41-SGP Details on http://radiosondy.info
KJ7NUX-14U22205572022-12-06 12:30:1644.5782-122.5881493024581Clb=5.5m/s p=25.7hPa t=-56.6C h=4.1% 401.40MHz Type=RS41-SGP Details on http://radiosondy.info
WA9ONY-14U22205572022-12-06 12:30:1444.5782-122.5881513024576Clb=5.0m/s p=25.7hPa t=-56.6C h=4.1% 401.40MHz Type=RS41-SGP Join https://groups.io/g/Balloons
WA9ONY-10U22205572022-12-06 12:29:5744.5786-122.5881442824541Clb=5.6m/s p=25.8hPa t=-56.7C h=4.2% 401.40MHz Type=RS41-SGP Join https://groups.io/g/Balloons
WA9ONY-14U22205572022-12-06 12:29:4744.5788-122.5891483124520Clb=5.1m/s p=25.9hPa t=-56.6C h=4.1% 401.40MHz Type=RS41-SGP Join https://groups.io/g/Balloons
KG7GDB-12U22205572022-12-06 12:29:4244.5791-122.5891502824498Clb=6.6m/s t=-56.6C h=1.0% p=26.1hPa 401.401 MHz Type=RS41-SGP ser=U2220557 Radiosonde
KJ7NUX-14U22205572022-12-06 12:29:3644.5791-122.5891472824492Clb=5.0m/s p=26.0hPa t=-56.5C h=4.1% 401.40MHz Type=RS41-SGP batt=2.6V Details on http://radiosondy.info
WA9ONY-10U22205572022-12-06 12:29:3244.5792-122.5891473124486Clb=5.8m/s p=26.1hPa t=-56.5C h=4.0% 401.40MHz Type=RS41-SGP batt=2.5V Join https://groups.io/g/Balloons
WA9ONY-14U22205572022-12-06 12:29:2344.5795-122.5891352624463Clb=6.1m/s p=26.2hPa t=-56.5C h=4.0% 401.40MHz Type=RS41-SGP batt=2.6V Join https://groups.io/g/Balloons
WA9ONY-10U22205572022-12-06 12:29:1044.5798-122.591442624430Clb=6.4m/s p=26.3hPa t=-56.4C h=4.0% 401.40MHz Type=RS41-SGP Join https://groups.io/g/Balloons
W7BDB-13U22205572022-12-06 12:29:0744.5798-122.591412824425Clb=4.9m/s p=26.3hPa t=-56.4C h=4.0% 401.40MHz Type=RS41-SGP Details on http://radiosondy.info
KE7WWCU22205572022-12-06 12:29:0144.58-122.591532624408Clb=5.1m/s t=-56.5C h=0.9% p=26.4hPa 401.375 MHz Type=RS41-SGP ser=U2220557 Radiosonde
WA9ONY-14U22205572022-12-06 12:29:0044.58-122.591543124408Clb=5.1m/s p=26.4hPa t=-56.5C h=3.9% 401.40MHz Type=RS41-SGP Join https://groups.io/g/Balloons
KJ7NUX-14U22205572022-12-06 12:28:5944.58-122.591503024404Clb=3.6m/s p=26.5hPa t=-56.5C h=4.0% 401.40MHz Type=RS41-SGP Details on http://radiosondy.info
WA9ONY-10U22205572022-12-06 12:28:4844.5803-122.591353024378Clb=6.2m/s p=26.5hPa t=-56.7C h=4.1% 401.40MHz Type=RS41-SGP Join https://groups.io/g/Balloons
WA9ONY-14U22205572022-12-06 12:28:3944.5805-122.591492824355Clb=5.4m/s p=26.6hPa t=-57.0C h=4.2% 401.40MHz Type=RS41-SGP Join https://groups.io/g/Balloons
W7BDB-13U22205572022-12-06 12:28:3044.5808-122.591642624332Clb=4.9m/s p=26.7hPa t=-57.1C h=4.3% 401.40MHz Type=RS41-SGP Details on http://radiosondy.info
WA9ONY-10U22205572022-12-06 12:28:2544.5809-122.5911482424322Clb=6.4m/s p=26.8hPa t=-57.0C h=4.2% 401.40MHz Type=RS41-SGP TxPastBurst=8h30m batt=2.5V Join https://groups.io/g/Balloons
KJ7NUX-14U22205572022-12-06 12:28:2344.581-122.5911382824315Clb=4.4m/s p=26.8hPa t=-57.0C h=4.2% 401.40MHz Type=RS41-SGP Details on http://radiosondy.info
WA9ONY-14U22205572022-12-06 12:28:1644.5811-122.5911312624300Clb=4.3m/s p=26.8hPa t=-56.9C h=4.2% 401.40MHz Type=RS41-SGP TxPastBurst=8h30m batt=2.6V Join https://groups.io/g/Balloons
WA9ONY-10U22205572022-12-06 12:28:0144.5813-122.5911403124268Clb=6.9m/s p=26.9hPa t=-56.8C h=4.1% 401.40MHz Type=RS41-SGP Join https://groups.io/g/Balloons
W7BDB-13U22205572022-12-06 12:27:5444.5816-122.5911393124246Clb=4.5m/s p=27.1hPa t=-56.7C h=4.0% 401.40MHz Type=RS41-SGP batt=2.5V Details on http://radiosondy.info
WA9ONY-14U22205572022-12-06 12:27:5344.5816-122.5911393324246Clb=4.5m/s p=27.1hPa t=-56.7C h=4.0% 401.40MHz Type=RS41-SGP Join https://groups.io/g/Balloons
KE7WWCU22205572022-12-06 12:27:5244.5816-122.5921363124240Clb=4.8m/s t=-56.8C h=1.0% p=27.1hPa 401.375 MHz Type=RS41-SGP ser=U2220557 Radiosonde
KJ7NUX-14U22205572022-12-06 12:27:4344.5818-122.5921153024218Clb=7.3m/s p=27.1hPa t=-56.9C h=4.0% 401.40MHz Type=RS41-SGP TxPastBurst=8h30m batt=2.5V Details on http://radiosondy.info
WA9ONY-10U22205572022-12-06 12:27:4044.5819-122.5921043024211Clb=5.7m/s p=27.2hPa t=-56.9C h=4.0% 401.40MHz Type=RS41-SGP Join https://groups.io/g/Balloons
WA9ONY-14U22205572022-12-06 12:27:3244.5819-122.5921152824190Clb=4.6m/s p=27.3hPa t=-57.3C h=4.2% 401.40MHz Type=RS41-SGP Join https://groups.io/g/Balloons
WA9ONY-10U22205572022-12-06 12:27:1844.5822-122.5931383324158Clb=6.7m/s p=27.3hPa t=-57.6C h=4.3% 401.40MHz Type=RS41-SGP batt=2.6V Join https://groups.io/g/Balloons
WA9ONY-14U22205572022-12-06 12:27:1044.5824-122.5931123524137Clb=6.6m/s p=27.5hPa t=-57.6C h=4.3% 401.40MHz Type=RS41-SGP batt=2.6V Join https://groups.io/g/Balloons
K6GDP-11U22205572022-12-06 12:27:0944.5824-122.5931033724131Clb=5.6m/s t=-57.6C h=1.0% p=27.6hPa 401.400 MHz Type=RS41-SGP ser=U2220557 Radiosonde
KJ7NUX-14U22205572022-12-06 12:27:0444.5824-122.5941023124120Clb=5.6m/s p=27.6hPa t=-57.6C h=4.3% 401.40MHz Type=RS41-SGP Details on http://radiosondy.info
WA9ONY-10U22205572022-12-06 12:26:5744.5825-122.5941153024105Clb=5.4m/s p=27.7hPa t=-57.6C h=4.3% 401.40MHz Type=RS41-SGP Join https://groups.io/g/Balloons
WA9ONY-14U22205572022-12-06 12:26:5044.5826-122.5941163024083Clb=6.0m/s p=27.8hPa t=-57.6C h=4.3% 401.40MHz Type=RS41-SGP Join https://groups.io/g/Balloons
W7BDB-13U22205572022-12-06 12:26:4944.5827-122.5941093324078Clb=4.2m/s p=27.8hPa t=-57.6C h=4.3% 401.40MHz Type=RS41-SGP Details on http://radiosondy.info
KE7WWCU22205572022-12-06 12:26:4844.5827-122.5951042224072Clb=5.3m/s t=-57.7C h=1.1% p=27.9hPa 401.375 MHz Type=RS41-SGP ser=U2220557 Radiosonde
WA9ONY-10U22205572022-12-06 12:26:3944.5828-122.5951143524049Clb=6.8m/s p=28.0hPa t=-57.7C h=4.4% 401.40MHz Type=RS41-SGP Join https://groups.io/g/Balloons
KJ7NUX-14U22205572022-12-06 12:26:3344.5829-122.5951213924032Clb=6.8m/s p=28.0hPa t=-57.7C h=4.3% 401.40MHz Type=RS41-SGP Details on http://radiosondy.info
WA9ONY-14U22205572022-12-06 12:26:3044.5829-122.5951213724026Clb=5.4m/s p=28.1hPa t=-57.6C h=4.4% 401.40MHz Type=RS41-SGP Join https://groups.io/g/Balloons
WA9ONY-10U22205572022-12-06 12:26:1644.5833-122.5961273923993Clb=6.4m/s p=28.1hPa t=-57.7C h=4.4% 401.40MHz Type=RS41-SGP batt=2.6V Join https://groups.io/g/Balloons
WA9ONY-14U22205572022-12-06 12:26:0744.5835-122.5961213723970Clb=5.7m/s p=28.2hPa t=-57.5C h=4.4% 401.40MHz Type=RS41-SGP batt=2.6V Join https://groups.io/g/Balloons
K6GDP-11U22205572022-12-06 12:26:0444.5836-122.5971193923958Clb=6.6m/s t=-57.5C h=1.1% p=28.4hPa 401.400 MHz Type=RS41-SGP ser=U2220557 Radiosonde
KJ7NUX-14U22205572022-12-06 12:25:5644.5837-122.5971153723943Clb=4.8m/s p=28.4hPa t=-57.3C h=4.2% 401.40MHz Type=RS41-SGP batt=2.5V Details on http://radiosondy.info
WA9ONY-10U22205572022-12-06 12:25:5344.5837-122.5971153723937Clb=6.7m/s p=28.4hPa t=-57.3C h=4.2% 401.40MHz Type=RS41-SGP Join https://groups.io/g/Balloons
WA9ONY-14U22205572022-12-06 12:25:4544.5839-122.5981144123912Clb=5.8m/s p=28.5hPa t=-57.3C h=4.2% 401.40MHz Type=RS41-SGP Join https://groups.io/g/Balloons
KE7WWCU22205572022-12-06 12:25:3944.584-122.5981123723889Clb=4.9m/s t=-57.4C h=1.0% p=28.7hPa 401.375 MHz Type=RS41-SGP ser=U2220557 Radiosonde
W7BDB-13U22205572022-12-06 12:25:3744.584-122.5981133723889Clb=4.9m/s p=28.6hPa t=-57.3C h=4.2% 401.40MHz Type=RS41-SGP Details on http://radiosondy.info
WA9ONY-10U22205572022-12-06 12:25:3244.5841-122.5981103523877Clb=6.6m/s p=28.7hPa t=-57.3C h=4.2% 401.40MHz Type=RS41-SGP Join https://groups.io/g/Balloons
WA9ONY-14U22205572022-12-06 12:25:2344.5842-122.5991143523854Clb=6.6m/s p=28.7hPa t=-57.3C h=4.1% 401.40MHz Type=RS41-SGP Join https://groups.io/g/Balloons
KJ7NUX-14U22205572022-12-06 12:25:2244.5843-122.5991143123848Clb=5.2m/s p=28.8hPa t=-57.3C h=4.2% 401.40MHz Type=RS41-SGP Details on http://radiosondy.info
WA9ONY-10U22205572022-12-06 12:25:0844.5844-122.5991043523820Clb=5.8m/s p=28.9hPa t=-57.5C h=4.3% 401.40MHz Type=RS41-SGP TxPastBurst=8h30m batt=2.6V Join https://groups.io/g/Balloons
KG7GDB-12U22205572022-12-06 12:25:0644.5844-122.61053923813Clb=6.8m/s t=-57.6C h=1.0% p=29.0hPa 401.401 MHz Type=RS41-SGP ser=U2220557 Radiosonde
W7BDB-13U22205572022-12-06 12:24:5944.5844-122.61053023802Clb=6.2m/s p=29.0hPa t=-57.7C h=4.3% 401.40MHz Type=RS41-SGP Details on http://radiosondy.info
WA9ONY-14U22205572022-12-06 12:24:5544.5845-122.61032823795Clb=6.2m/s p=29.0hPa t=-57.7C h=4.3% 401.40MHz Type=RS41-SGP TxPastBurst=8h30m batt=2.5V Join https://groups.io/g/Balloons
K6GDP-11U22205572022-12-06 12:24:4944.5845-122.601861723759Clb=7.5m/s t=-57.6C h=1.1% p=29.2hPa 401.400 MHz Type=RS41-SGP ser=U2220557 Radiosonde
WA9ONY-10U22205572022-12-06 12:24:4144.5845-122.601872423759Clb=7.4m/s p=29.2hPa t=-57.6C h=4.3% 401.40MHz Type=RS41-SGP Join https://groups.io/g/Balloons
KJ7NUX-14U22205572022-12-06 12:24:3544.5845-122.601802423740Clb=7.4m/s p=29.3hPa t=-57.6C h=4.4% 401.40MHz Type=RS41-SGP Details on http://radiosondy.info
WA9ONY-14U22205572022-12-06 12:24:3244.5845-122.601882823733Clb=5.9m/s p=29.3hPa t=-57.6C h=4.4% 401.40MHz Type=RS41-SGP Join https://groups.io/g/Balloons
W7BDB-13U22205572022-12-06 12:24:2244.5845-122.6011012823708Clb=5.3m/s p=29.5hPa t=-57.5C h=4.4% 401.40MHz Type=RS41-SGP batt=2.6V Details on http://radiosondy.info
WA9ONY-10U22205572022-12-06 12:24:1844.5846-122.6011102423695Clb=6.1m/s p=29.5hPa t=-57.4C h=4.3% 401.40MHz Type=RS41-SGP Join https://groups.io/g/Balloons
WA9ONY-14U22205572022-12-06 12:24:0844.5847-122.6021182623669Clb=6.5m/s p=29.6hPa t=-57.3C h=4.3% 401.40MHz Type=RS41-SGP Join https://groups.io/g/Balloons
KJ7NUX-14U22205572022-12-06 12:23:5644.5848-122.6021243123635Clb=6.5m/s p=29.8hPa t=-57.4C h=4.2% 401.40MHz Type=RS41-SGP batt=2.5V Details on http://radiosondy.info
WA9ONY-10U22205572022-12-06 12:23:5344.5849-122.6021183123629Clb=6.0m/s p=29.8hPa t=-57.5C h=4.3% 401.40MHz Type=RS41-SGP batt=2.6V Join https://groups.io/g/Balloons
KG7GDB-12U22205572022-12-06 12:23:4944.585-122.6031092823609Clb=4.7m/s t=-57.4C h=1.0% p=30.0hPa 401.401 MHz Type=RS41-SGP ser=U2220557 Radiosonde
W7BDB-13U22205572022-12-06 12:23:4544.585-122.6031123323604Clb=5.4m/s p=29.9hPa t=-57.4C h=4.2% 401.40MHz Type=RS41-SGP Details on http://radiosondy.info
K6GDP-11U22205572022-12-06 12:23:3744.5852-122.6031382623573Clb=6.5m/s t=-57.5C h=1.0% p=30.1hPa 401.400 MHz Type=RS41-SGP ser=U2220557 Radiosonde
WA9ONY-10U22205572022-12-06 12:23:3144.5853-122.6031453723567Clb=5.2m/s p=30.1hPa t=-57.4C h=4.2% 401.40MHz Type=RS41-SGP Join https://groups.io/g/Balloons
WA9ONY-14U22205572022-12-06 12:23:2344.5856-122.6031503723541Clb=6.8m/s p=30.2hPa t=-57.3C h=4.2% 401.40MHz Type=RS41-SGP Join https://groups.io/g/Balloons
KJ7NUX-14U22205572022-12-06 12:23:2144.5856-122.6031463923534Clb=6.6m/s p=30.3hPa t=-57.3C h=4.2% 401.40MHz Type=RS41-SGP Details on http://radiosondy.info
W7BDB-13U22205572022-12-06 12:23:0844.586-122.6041394323505Clb=5.8m/s p=30.4hPa t=-57.3C h=4.2% 401.40MHz Type=RS41-SGP Details on http://radiosondy.info
WA9ONY-14U22205572022-12-06 12:22:5944.5863-122.6041524423478Clb=6.5m/s p=30.5hPa t=-57.3C h=4.2% 401.40MHz Type=RS41-SGP Join https://groups.io/g/Balloons
WA9ONY-10U22205572022-12-06 12:22:4344.5868-122.6041494823444Clb=6.8m/s p=30.7hPa t=-57.4C h=4.2% 401.40MHz Type=RS41-SGP batt=2.6V Join https://groups.io/g/Balloons
KJ7NUX-14U22205572022-12-06 12:22:3644.5871-122.6051484623425Clb=6.1m/s p=30.8hPa t=-57.5C h=4.2% 401.40MHz Type=RS41-SGP Details on http://radiosondy.info
WA9ONY-14U22205572022-12-06 12:22:3244.5872-122.6051494423419Clb=6.3m/s p=30.8hPa t=-57.5C h=4.3% 401.40MHz Type=RS41-SGP batt=2.5V Join https://groups.io/g/Balloons
W7BDB-13U22205572022-12-06 12:22:2244.5876-122.6051614623396Clb=5.6m/s p=30.9hPa t=-57.4C h=4.2% 401.40MHz Type=RS41-SGP batt=2.6V Details on http://radiosondy.info
WA9ONY-10U22205572022-12-06 12:22:1744.5878-122.6051614423383Clb=6.7m/s p=31.0hPa t=-57.4C h=4.2% 401.40MHz Type=RS41-SGP Join https://groups.io/g/Balloons
WA9ONY-14U22205572022-12-06 12:22:0744.5882-122.6051614823360Clb=4.1m/s p=31.1hPa t=-57.5C h=4.2% 401.40MHz Type=RS41-SGP Join https://groups.io/g/Balloons
KE7WWCU22205572022-12-06 12:21:5444.5889-122.6061615223324Clb=6.2m/s t=-57.6C h=1.1% p=31.3hPa 401.375 MHz Type=RS41-SGP ser=U2220557 Radiosonde
KJ7NUX-14U22205572022-12-06 12:21:4744.5892-122.6061665023306Clb=5.4m/s p=31.4hPa t=-57.7C h=4.2% 401.40MHz Type=RS41-SGP TxPastBurst=8h30m batt=2.5V Details on http://radiosondy.info
WA9ONY-14U22205572022-12-06 12:21:4544.5894-122.6061685023301Clb=4.9m/s p=31.4hPa t=-57.7C h=4.2% 401.40MHz Type=RS41-SGP Join https://groups.io/g/Balloons
WA9ONY-10U22205572022-12-06 12:21:2944.5901-122.6061735423265Clb=5.4m/s p=31.6hPa t=-58.1C h=4.5% 401.40MHz Type=RS41-SGP TxPastBurst=8h30m batt=2.5V Join https://groups.io/g/Balloons
WA9ONY-14U22205572022-12-06 12:21:1944.5906-122.6061665623239Clb=7.2m/s p=31.7hPa t=-58.1C h=4.5% 401.40MHz Type=RS41-SGP TxPastBurst=8h30m batt=2.6V Join https://groups.io/g/Balloons
KJ7NUX-14U22205572022-12-06 12:21:0744.5912-122.6061645723209Clb=5.4m/s p=31.9hPa t=-58.0C h=4.5% 401.40MHz Type=RS41-SGP Details on http://radiosondy.info
K6GDP-11U22205572022-12-06 12:21:0444.5914-122.6071625423204Clb=6.4m/s t=-58.0C h=1.1% p=32.0hPa 401.400 MHz Type=RS41-SGP ser=U2220557 Radiosonde
WA9ONY-10U22205572022-12-06 12:21:0344.5914-122.6061636123204Clb=6.3m/s p=31.9hPa t=-58.0C h=4.4% 401.40MHz Type=RS41-SGP Join https://groups.io/g/Balloons
WA9ONY-14U22205572022-12-06 12:20:5244.5919-122.6071655723180Clb=5.2m/s p=32.0hPa t=-58.0C h=4.4% 401.40MHz Type=RS41-SGP Join https://groups.io/g/Balloons
WA9ONY-10U22205572022-12-06 12:20:3744.5928-122.6071615223146Clb=6.2m/s p=32.2hPa t=-57.8C h=4.3% 401.40MHz Type=RS41-SGP Join https://groups.io/g/Balloons
KE7WWCU22205572022-12-06 12:20:3544.5931-122.6071565223135Clb=5.7m/s t=-57.9C h=1.1% p=32.3hPa 401.375 MHz Type=RS41-SGP ser=U2220557 Radiosonde
WA9ONY-14U22205572022-12-06 12:20:2344.5933-122.6071565023123Clb=6.0m/s p=32.3hPa t=-57.9C h=4.4% 401.40MHz Type=RS41-SGP Join https://groups.io/g/Balloons
KJ7NUX-14U22205572022-12-06 12:20:2144.5934-122.6071565023116Clb=6.5m/s p=32.3hPa t=-57.9C h=4.4% 401.40MHz Type=RS41-SGP Details on http://radiosondy.info
W7BDB-13U22205572022-12-06 12:20:1044.5938-122.6081585223099Clb=5.3m/s p=32.4hPa t=-57.8C h=4.4% 401.40MHz Type=RS41-SGP TxPastBurst=8h30m batt=2.6V Details on http://radiosondy.info
WA9ONY-10U22205572022-12-06 12:19:5844.594-122.6081575023087Clb=5.7m/s p=32.5hPa t=-57.7C h=4.4% 401.40MHz Type=RS41-SGP batt=2.5V Join https://groups.io/g/Balloons
WA9ONY-14U22205572022-12-06 12:19:4444.5945-122.6081575223064Clb=5.0m/s p=32.5hPa t=-57.6C h=4.3% 401.40MHz Type=RS41-SGP batt=2.6V Join https://groups.io/g/Balloons
KG7GDB-12U22205572022-12-06 12:19:4244.5946-122.6081514623058Clb=6.7m/s t=-57.6C h=1.1% p=32.7hPa 401.401 MHz Type=RS41-SGP ser=U2220557 Radiosonde
W7BDB-12U22205572022-12-06 12:19:3544.5949-122.6081455223041Clb=6.8m/s t=-57.5C h=1.0% p=32.8hPa 401.399 MHz Type=RS41-SGP ser=U2220557 Radiosonde
WA9ONY-10U22205572022-12-06 12:19:1744.5951-122.6091475723029Clb=6.1m/s p=32.8hPa t=-57.4C h=4.2% 401.40MHz Type=RS41-SGP Join https://groups.io/g/Balloons
K6GDP-11U22205572022-12-06 12:19:1544.5955-122.6091545623012Clb=5.7m/s t=-57.5C h=1.0% p=32.9hPa 401.400 MHz Type=RS41-SGP ser=U2220557 Radiosonde
W7BDB-13U22205572022-12-06 12:19:0744.5955-122.6091555623012Clb=5.7m/s p=32.8hPa t=-57.4C h=4.1% 401.40MHz Type=RS41-SGP Details on http://radiosondy.info
WA9ONY-14U22205572022-12-06 12:19:0544.5956-122.6091575623006Clb=6.8m/s p=32.9hPa t=-57.5C h=4.2% 401.40MHz Type=RS41-SGP Join https://groups.io/g/Balloons
WA9ONY-10U22205572022-12-06 12:18:5044.5964-122.611525422972Clb=5.9m/s p=33.1hPa t=-58.1C h=4.5% 401.40MHz Type=RS41-SGP Join https://groups.io/g/Balloons
KE7WWCU22205572022-12-06 12:18:4544.5967-122.611425022955Clb=7.1m/s t=-58.2C h=1.1% p=33.2hPa 401.375 MHz Type=RS41-SGP ser=U2220557 Radiosonde
WA9ONY-14U22205572022-12-06 12:18:4244.5968-122.611415422949Clb=5.0m/s p=33.2hPa t=-58.1C h=4.4% 401.40MHz Type=RS41-SGP Join https://groups.io/g/Balloons
KJ7NUX-14U22205572022-12-06 12:18:3644.5971-122.611455222932Clb=4.7m/s p=33.3hPa t=-57.9C h=4.4% 401.40MHz Type=RS41-SGP Details on http://radiosondy.info
W7BDB-13U22205572022-12-06 12:18:2544.5973-122.611425022922Clb=6.5m/s p=33.3hPa t=-57.8C h=4.3% 401.40MHz Type=RS41-SGP Details on http://radiosondy.info
WA9ONY-10U22205572022-12-06 12:18:2244.5974-122.6111414822915Clb=5.3m/s p=33.4hPa t=-57.8C h=4.4% 401.40MHz Type=RS41-SGP batt=2.5V Join https://groups.io/g/Balloons
WA9ONY-14U22205572022-12-06 12:18:1344.5978-122.6111494822893Clb=5.0m/s p=33.5hPa t=-57.9C h=4.3% 401.40MHz Type=RS41-SGP batt=2.6V Join https://groups.io/g/Balloons
KG7GDB-12U22205572022-12-06 12:18:1044.598-122.6111454422881Clb=6.3m/s t=-58.1C h=1.1% p=33.6hPa 401.401 MHz Type=RS41-SGP ser=U2220557 Radiosonde
WA9ONY-10U22205572022-12-06 12:18:0044.5984-122.6121435022859Clb=4.6m/s p=33.7hPa t=-58.2C h=4.6% 401.40MHz Type=RS41-SGP Join https://groups.io/g/Balloons
KJ7NUX-14U22205572022-12-06 12:17:5444.5987-122.6121405022842Clb=5.2m/s p=33.8hPa t=-58.3C h=4.6% 401.40MHz Type=RS41-SGP Details on http://radiosondy.info
WA9ONY-14U22205572022-12-06 12:17:5144.5988-122.6121415022836Clb=6.5m/s p=33.8hPa t=-58.2C h=4.5% 401.40MHz Type=RS41-SGP Join https://groups.io/g/Balloons
W7BDB-13U22205572022-12-06 12:17:5044.5989-122.6121435022830Clb=5.4m/s p=33.8hPa t=-58.2C h=4.6% 401.40MHz Type=RS41-SGP batt=2.6V Details on http://radiosondy.info
WA9ONY-10U22205572022-12-06 12:17:3944.5994-122.6131335022803Clb=6.6m/s p=34.0hPa t=-58.1C h=4.5% 401.40MHz Type=RS41-SGP Join https://groups.io/g/Balloons
KE7WWCU22205572022-12-06 12:17:3244.5997-122.6131304822779Clb=5.0m/s t=-57.9C h=1.2% p=34.1hPa 401.375 MHz Type=RS41-SGP ser=U2220557 Radiosonde
WA9ONY-14U22205572022-12-06 12:17:3044.5997-122.6131315022779Clb=5.0m/s p=34.1hPa t=-57.9C h=4.5% 401.40MHz Type=RS41-SGP Join https://groups.io/g/Balloons
KJ7NUX-14U22205572022-12-06 12:17:1944.6002-122.6141514822752Clb=6.7m/s p=34.2hPa t=-57.6C h=4.4% 401.40MHz Type=RS41-SGP batt=2.6V Details on http://radiosondy.info
W7BDB-13U22205572022-12-06 12:17:1744.6003-122.6141534822746Clb=5.5m/s p=34.3hPa t=-57.6C h=4.4% 401.40MHz Type=RS41-SGP Details on http://radiosondy.info
WA9ONY-10U22205572022-12-06 12:17:1644.6003-122.6141534822746Clb=5.5m/s p=34.3hPa t=-57.6C h=4.4% 401.40MHz Type=RS41-SGP TxPastBurst=8h30m batt=2.6V Join https://groups.io/g/Balloons
WA9ONY-14U22205572022-12-06 12:17:0744.6007-122.6141484822723Clb=4.1m/s p=34.4hPa t=-57.4C h=4.3% 401.40MHz Type=RS41-SGP TxPastBurst=8h30m batt=2.6V Join https://groups.io/g/Balloons
KG7GDB-12U22205572022-12-06 12:17:0344.6011-122.6151494422702Clb=6.7m/s t=-57.3C h=1.0% p=34.6hPa 401.401 MHz Type=RS41-SGP ser=U2220557 Radiosonde
W7BDB-12U22205572022-12-06 12:17:0044.6013-122.6151534822691Clb=4.9m/s t=-57.3C h=1.1% p=34.6hPa 401.399 MHz Type=RS41-SGP ser=U2220557 Radiosonde
WA9ONY-10U22205572022-12-06 12:16:5544.6013-122.6151544622691Clb=4.9m/s p=34.6hPa t=-57.2C h=4.1% 401.40MHz Type=RS41-SGP Join https://groups.io/g/Balloons
K6GDP-11U22205572022-12-06 12:16:5044.6016-122.6151494622673Clb=5.9m/s t=-57.4C h=1.1% p=34.7hPa 401.400 MHz Type=RS41-SGP ser=U2220557 Radiosonde
WA9ONY-14U22205572022-12-06 12:16:4644.6017-122.6151474422666Clb=6.3m/s p=34.7hPa t=-57.6C h=4.2% 401.40MHz Type=RS41-SGP Join https://groups.io/g/Balloons
KJ7NUX-14U22205572022-12-06 12:16:4544.6018-122.6151434622661Clb=4.6m/s p=34.7hPa t=-57.8C h=4.3% 401.40MHz Type=RS41-SGP Details on http://radiosondy.info
W7BDB-13U22205572022-12-06 12:16:4444.6018-122.6151434422661Clb=4.6m/s p=34.7hPa t=-57.8C h=4.3% 401.40MHz Type=RS41-SGP Details on http://radiosondy.info
WA9ONY-10U22205572022-12-06 12:16:3444.6023-122.6161364422633Clb=5.5m/s p=34.9hPa t=-58.0C h=4.5% 401.40MHz Type=RS41-SGP Join https://groups.io/g/Balloons
WA9ONY-14U22205572022-12-06 12:16:2644.6026-122.6161514822612Clb=4.6m/s p=35.0hPa t=-57.9C h=4.4% 401.40MHz Type=RS41-SGP Join https://groups.io/g/Balloons
W7BDB-13U22205572022-12-06 12:16:0744.6032-122.6161525422580Clb=6.0m/s p=35.2hPa t=-57.7C h=4.4% 401.40MHz Type=RS41-SGP batt=2.6V Details on http://radiosondy.info
KJ7NUX-14U22205572022-12-06 12:16:0344.6036-122.6171475622563Clb=6.2m/s p=35.3hPa t=-57.5C h=4.3% 401.40MHz Type=RS41-SGP Details on http://radiosondy.info
WA9ONY-14U22205572022-12-06 12:16:0144.6037-122.6171465422557Clb=4.9m/s p=35.3hPa t=-57.5C h=4.2% 401.40MHz Type=RS41-SGP batt=2.6V Join https://groups.io/g/Balloons
KG7GDB-12U22205572022-12-06 12:16:0044.6041-122.6171485022536Clb=5.9m/s t=-57.4C h=1.1% p=35.5hPa 401.401 MHz Type=RS41-SGP ser=U2220557 Radiosonde
K6GDP-11U22205572022-12-06 12:15:5944.6051-122.6181515622489Clb=4.2m/s t=-57.9C h=1.1% p=35.7hPa 401.400 MHz Type=RS41-SGP ser=U2220557 Radiosonde
WA9ONY-10U22205572022-12-06 12:15:5844.6068-122.6191526722413Clb=6.2m/s p=36.1hPa t=-59.5C h=4.5% 401.40MHz Type=RS41-SGP batt=2.6V Join https://groups.io/g/Balloons
W7BDB-12U22205572022-12-06 12:15:5744.6088-122.6211578522341Clb=4.4m/s t=-60.4C h=1.3% p=36.6hPa 401.399 MHz Type=RS41-SGP ser=U2220557 Radiosonde
W7BDB-13U22205572022-12-06 12:15:5644.6097-122.6211536922314Clb=6.3m/s p=36.7hPa t=-60.6C h=5.0% 401.40MHz Type=RS41-SGP TxPastBurst=8h30m batt=2.6V Details on http://radiosondy.info
KE7WWCU22205572022-12-06 12:15:5544.6112-122.6221496922259Clb=6.4m/s t=-61.1C h=1.3% p=37.1hPa 401.375 MHz Type=RS41-SGP ser=U2220557 Radiosonde
KJ7NUX-14U22205572022-12-06 12:15:5444.6126-122.6231536322207Clb=5.4m/s p=37.3hPa t=-61.5C h=5.3% 401.40MHz Type=RS41-SGP batt=2.6V Details on http://radiosondy.info
WA9ONY-10U22205572022-12-06 12:15:5344.6144-122.6251445722131Clb=6.5m/s p=37.8hPa t=-61.2C h=5.2% 401.40MHz Type=RS41-SGP Join https://groups.io/g/Balloons
KE7WWCU22205572022-12-06 12:15:5244.6153-122.6261425922086Clb=4.5m/s t=-61.0C h=1.4% p=38.1hPa 401.375 MHz Type=RS41-SGP ser=U2220557 Radiosonde
W7BDB-13U22205572022-12-06 12:15:5144.616-122.6271415422054Clb=4.5m/s p=38.3hPa t=-61.0C h=5.1% 401.40MHz Type=RS41-SGP batt=2.6V Details on http://radiosondy.info
KJ7NUX-14U22205572022-12-06 12:15:5044.6165-122.6271395622025Clb=6.4m/s p=38.4hPa t=-61.1C h=5.0% 401.40MHz Type=RS41-SGP Details on http://radiosondy.info
WA9ONY-14U22205572022-12-06 12:15:4944.618-122.6291355921938Clb=6.0m/s p=38.9hPa t=-61.2C h=5.1% 401.40MHz Type=RS41-SGP Join https://groups.io/g/Balloons
WA9ONY-14U22205572022-12-06 12:15:4844.6189-122.6311195721880Clb=3.9m/s p=39.3hPa t=-61.1C h=5.2% 401.40MHz Type=RS41-SGP batt=2.6V Join https://groups.io/g/Balloons
KJ7NUX-14U22205572022-12-06 12:15:4744.6195-122.6321245421841Clb=6.1m/s p=39.5hPa t=-60.9C h=5.1% 401.40MHz Type=RS41-SGP Details on http://radiosondy.info
W7BDB-13U22205572022-12-06 12:15:4644.6203-122.6341155421774Clb=6.1m/s p=40.0hPa t=-60.7C h=5.0% 401.40MHz Type=RS41-SGP batt=2.6V Details on http://radiosondy.info
WA9ONY-14U22205572022-12-06 12:15:4544.6208-122.6361054621713Clb=6.0m/s p=40.4hPa t=-60.3C h=5.0% 401.40MHz Type=RS41-SGP TxPastBurst=8h30m batt=2.6V Join https://groups.io/g/Balloons
WA9ONY-10U22205572022-12-06 12:15:4444.621-122.6371214621680Clb=5.4m/s p=40.6hPa t=-60.3C h=5.0% 401.40MHz Type=RS41-SGP Join https://groups.io/g/Balloons
KJ7NUX-14U22205572022-12-06 12:15:4344.6212-122.6371185221662Clb=5.2m/s p=40.8hPa t=-60.2C h=5.0% 401.40MHz Type=RS41-SGP TxPastBurst=8h30m batt=2.7V Details on http://radiosondy.info
W7BDB-12U22205572022-12-06 12:15:4244.6214-122.638935721632Clb=6.1m/s t=-60.2C h=1.3% p=41.0hPa 401.399 MHz Type=RS41-SGP ser=U2220557 Radiosonde
WA9ONY-10U22205572022-12-06 12:15:3544.6214-122.638925021621Clb=6.5m/s p=41.0hPa t=-60.0C h=5.1% 401.40MHz Type=RS41-SGP Join https://groups.io/g/Balloons
WA9ONY-14U22205572022-12-06 12:15:3144.6214-122.639974821599Clb=4.6m/s p=41.2hPa t=-59.8C h=4.9% 401.40MHz Type=RS41-SGP Join https://groups.io/g/Balloons
W7BDB-13U22205572022-12-06 12:15:3044.6214-122.6391054821594Clb=6.0m/s p=41.2hPa t=-59.8C h=5.0% 401.40MHz Type=RS41-SGP Details on http://radiosondy.info
KJ7NUX-14U22205572022-12-06 12:15:2844.6216-122.641114821570Clb=5.9m/s p=41.3hPa t=-59.6C h=4.8% 401.40MHz Type=RS41-SGP Details on http://radiosondy.info
WA9ONY-10U22205572022-12-06 12:15:2744.6216-122.641055221564Clb=5.9m/s p=41.4hPa t=-59.5C h=4.9% 401.40MHz Type=RS41-SGP batt=2.6V Join https://groups.io/g/Balloons
WA9ONY-14U22205572022-12-06 12:15:2544.6217-122.641925021541Clb=6.0m/s p=41.5hPa t=-59.3C h=4.7% 401.40MHz Type=RS41-SGP batt=2.7V Join https://groups.io/g/Balloons
WA9ONY-10U22205572022-12-06 12:15:2344.6216-122.642924421509Clb=5.4m/s p=41.7hPa t=-59.0C h=4.8% 401.40MHz Type=RS41-SGP Join https://groups.io/g/Balloons
W7BDB-13U22205572022-12-06 12:15:2044.6217-122.6421004421491Clb=5.9m/s p=41.8hPa t=-58.8C h=4.8% 401.40MHz Type=RS41-SGP TxPastBurst=8h30m batt=2.6V Details on http://radiosondy.info
WA9ONY-14U22205572022-12-06 12:15:1944.6217-122.6421034621486Clb=4.2m/s p=41.9hPa t=-58.7C h=4.8% 401.40MHz Type=RS41-SGP Join https://groups.io/g/Balloons
KJ7NUX-14U22205572022-12-06 12:15:1844.6217-122.6431044121480Clb=6.6m/s p=41.9hPa t=-58.7C h=4.7% 401.40MHz Type=RS41-SGP Details on http://radiosondy.info
WA9ONY-10U22205572022-12-06 12:15:1144.6218-122.643984421453Clb=5.4m/s p=42.1hPa t=-58.4C h=4.6% 401.40MHz Type=RS41-SGP Join https://groups.io/g/Balloons
K6GDP-11U22205572022-12-06 12:15:1044.6218-122.644994321447Clb=5.6m/s t=-58.4C h=1.2% p=42.2hPa 401.400 MHz Type=RS41-SGP ser=U2220557 Radiosonde
WA9ONY-14U22205572022-12-06 12:15:0644.6219-122.6441003721432Clb=5.7m/s p=42.3hPa t=-58.2C h=4.6% 401.40MHz Type=RS41-SGP Join https://groups.io/g/Balloons
W7BDB-13U22205572022-12-06 12:15:0144.6218-122.645783921406Clb=5.7m/s p=42.4hPa t=-58.0C h=4.5% 401.40MHz Type=RS41-SGP Details on http://radiosondy.info
WA9ONY-10U22205572022-12-06 12:15:0044.6218-122.645873921399Clb=7.1m/s p=42.5hPa t=-57.9C h=4.4% 401.40MHz Type=RS41-SGP batt=2.7V Join https://groups.io/g/Balloons
KE7WWCU22205572022-12-06 12:14:5944.6219-122.6451083021385Clb=5.1m/s t=-57.9C h=1.2% p=42.6hPa 401.375 MHz Type=RS41-SGP ser=U2220557 Radiosonde
KJ7NUX-14U22205572022-12-06 12:14:5844.6219-122.6451093921385Clb=5.0m/s p=42.6hPa t=-57.8C h=4.5% 401.40MHz Type=RS41-SGP batt=2.6V Details on http://radiosondy.info
WA9ONY-14U22205572022-12-06 12:14:5744.6219-122.6451074421380Clb=5.6m/s p=42.6hPa t=-57.8C h=4.5% 401.40MHz Type=RS41-SGP batt=2.6V Join https://groups.io/g/Balloons
WA9ONY-10U22205572022-12-06 12:14:4844.6221-122.6461063521341Clb=5.2m/s p=42.8hPa t=-57.7C h=4.5% 401.40MHz Type=RS41-SGP Join https://groups.io/g/Balloons
WA9ONY-14U22205572022-12-06 12:14:3944.6222-122.6471033321312Clb=5.3m/s p=43.0hPa t=-57.5C h=4.5% 401.40MHz Type=RS41-SGP Join https://groups.io/g/Balloons
W7BDB-13U22205572022-12-06 12:12:1444.6222-122.6471033121312Clb=5.3m/s p=43.0hPa t=-57.5C h=4.5% 401.40MHz Type=RS41-SGP Details on http://radiosondy.info
WA9ONY-10U22205572022-12-06 12:12:1144.6253-122.6511695020884Clb=5.9m/s p=46.0hPa t=-57.2C h=4.1% 401.40MHz Type=RS41-SGP Join https://groups.io/g/Balloons
WA9ONY-14U22205572022-12-06 12:12:0244.6258-122.6511625020861Clb=7.0m/s p=46.2hPa t=-57.2C h=4.1% 401.40MHz Type=RS41-SGP Join https://groups.io/g/Balloons
KJ7NUX-14U22205572022-12-06 12:12:0144.6259-122.6511605020853Clb=6.7m/s p=46.3hPa t=-57.3C h=4.2% 401.40MHz Type=RS41-SGP Details on http://radiosondy.info
WA9ONY-10U22205572022-12-06 12:11:4844.6265-122.6511565220823Clb=5.9m/s p=46.5hPa t=-57.7C h=4.3% 401.40MHz Type=RS41-SGP batt=2.6V Join https://groups.io/g/Balloons
W7BDB-13U22205572022-12-06 12:11:4144.6268-122.6511564820803Clb=7.4m/s p=46.6hPa t=-58.0C h=4.4% 401.40MHz Type=RS41-SGP Details on http://radiosondy.info
WA9ONY-14U22205572022-12-06 12:11:3844.6269-122.6521575020796Clb=6.1m/s p=46.7hPa t=-58.1C h=4.4% 401.40MHz Type=RS41-SGP batt=2.7V Join https://groups.io/g/Balloons
KE7WWCU22205572022-12-06 12:11:3744.627-122.6521554420790Clb=5.5m/s t=-58.2C h=1.2% p=46.8hPa 401.375 MHz Type=RS41-SGP ser=U2220557 Radiosonde
KJ7NUX-14U22205572022-12-06 12:11:1844.6279-122.6521535220744Clb=5.6m/s p=47.1hPa t=-58.0C h=4.5% 401.40MHz Type=RS41-SGP TxPastBurst=8h30m batt=2.6V Details on http://radiosondy.info
WA9ONY-10U22205572022-12-06 12:11:1444.6281-122.6521545220735Clb=5.3m/s p=47.1hPa t=-58.1C h=4.4% 401.40MHz Type=RS41-SGP Join https://groups.io/g/Balloons
W7BDB-13U22205572022-12-06 12:11:0544.6285-122.6531565720712Clb=5.4m/s p=47.3hPa t=-58.2C h=4.5% 401.40MHz Type=RS41-SGP Details on http://radiosondy.info
K6GDP-11U22205572022-12-06 12:10:5244.6293-122.6531585920679Clb=5.6m/s t=-58.2C h=1.3% p=47.6hPa 401.400 MHz Type=RS41-SGP ser=U2220557 Radiosonde
WA9ONY-10U22205572022-12-06 12:10:5144.6293-122.6531595920679Clb=5.6m/s p=47.5hPa t=-58.2C h=4.5% 401.40MHz Type=RS41-SGP Join https://groups.io/g/Balloons
KJ7NUX-14U22205572022-12-06 12:10:4044.6299-122.6531606520657Clb=5.6m/s p=47.7hPa t=-58.2C h=4.3% 401.40MHz Type=RS41-SGP Details on http://radiosondy.info
W7BDB-13U22205572022-12-06 12:10:2444.6305-122.6541666920627Clb=6.0m/s p=47.9hPa t=-58.2C h=4.3% 401.40MHz Type=RS41-SGP TxPastBurst=8h30m batt=2.7V Details on http://radiosondy.info
W7BDB-13U22205572022-12-06 12:07:0444.654-122.6841404619575Clb=5.5m/s p=56.7hPa t=-60.5C h=5.1% 401.40MHz Type=RS41-SGP Details on http://radiosondy.info
W7BDB-13U22205572022-12-06 12:01:5044.6816-122.7291327617930Clb=5.6m/s p=73.6hPa t=-58.2C h=4.6% 401.40MHz Type=RS41-SGP batt=2.7V Details on http://radiosondy.info
W7BDB-13U22205572022-12-06 12:00:4844.6894-122.7431277217620Clb=5.1m/s p=77.3hPa t=-57.8C h=4.6% 401.40MHz Type=RS41-SGP Details on http://radiosondy.info
W7BDB-13U22205572022-12-06 12:00:4044.7176-122.7941436716043Clb=4.9m/s p=99.3hPa t=-58.3C h=5.0% 401.40MHz Type=RS41-SGP batt=2.7V Details on http://radiosondy.info
K6GDP-11U22205572022-12-06 12:00:3944.7177-122.7941416116038Clb=4.2m/s t=-58.3C h=1.8% p=99.5hPa 401.400 MHz Type=RS41-SGP ser=U2220557 Radiosonde
KJ7NUX-14U22205572022-12-06 12:00:3044.7181-122.7951426716023Clb=4.7m/s p=99.6hPa t=-58.2C h=5.0% 401.40MHz Type=RS41-SGP Details on http://radiosondy.info
WA9ONY-10U22205572022-12-06 12:00:2644.7182-122.7951426916018Clb=5.1m/s p=99.7hPa t=-58.1C h=4.9% 401.40MHz Type=RS41-SGP Join https://groups.io/g/Balloons
WA9ONY-14U22205572022-12-06 12:00:2444.7183-122.7951436916014Clb=4.4m/s p=99.8hPa t=-58.1C h=5.0% 401.40MHz Type=RS41-SGP Join https://groups.io/g/Balloons
KE7WWCU22205572022-12-06 12:00:1144.7192-122.7961446915983Clb=5.9m/s t=-58.0C h=1.8% p=100.3hPa 401.375 MHz Type=RS41-SGP ser=U2220557 Radiosonde
WA9ONY-10U22205572022-12-06 11:59:5844.7196-122.7961406715968Clb=4.8m/s p=100.5hPa t=-57.9C h=4.9% 401.40MHz Type=RS41-SGP Join https://groups.io/g/Balloons
WA9ONY-14U22205572022-12-06 11:59:5644.7197-122.7971406915963Clb=5.1m/s p=100.6hPa t=-57.8C h=4.9% 401.40MHz Type=RS41-SGP Join https://groups.io/g/Balloons
KJ7NUX-14U22205572022-12-06 11:59:4644.7202-122.7971417215942Clb=4.5m/s p=100.9hPa t=-57.7C h=4.9% 401.40MHz Type=RS41-SGP batt=2.7V Details on http://radiosondy.info
W7BDB-13U22205572022-12-06 11:59:4544.7202-122.7971417215942Clb=4.5m/s p=100.9hPa t=-57.7C h=4.9% 401.40MHz Type=RS41-SGP Details on http://radiosondy.info
WA9ONY-10U22205572022-12-06 11:59:3244.7208-122.7981387415916Clb=4.5m/s p=101.3hPa t=-57.6C h=4.9% 401.40MHz Type=RS41-SGP TxPastBurst=8h30m batt=2.7V Join https://groups.io/g/Balloons
KG7GDB-12U22205572022-12-06 11:59:3144.721-122.7981377015911Clb=5.8m/s t=-57.6C h=1.8% p=101.4hPa 401.401 MHz Type=RS41-SGP ser=U2220557 Radiosonde
WA9ONY-14U22205572022-12-06 11:59:2944.721-122.7981387415911Clb=5.7m/s p=101.4hPa t=-57.5C h=4.9% 401.40MHz Type=RS41-SGP TxPastBurst=8h30m batt=2.7V Join https://groups.io/g/Balloons
K6GDP-11U22205572022-12-06 11:59:1644.7219-122.7991427415877Clb=3.9m/s t=-57.3C h=1.7% p=102.0hPa 401.400 MHz Type=RS41-SGP ser=U2220557 Radiosonde
W7BDB-13U22205572022-12-06 11:59:0544.7222-122.81427015868Clb=4.6m/s p=102.1hPa t=-57.3C h=4.7% 401.40MHz Type=RS41-SGP Details on http://radiosondy.info
KJ7NUX-14U22205572022-12-06 11:59:0344.7224-122.81417215863Clb=4.5m/s p=102.2hPa t=-57.3C h=4.7% 401.40MHz Type=RS41-SGP Details on http://radiosondy.info
WA9ONY-14U22205572022-12-06 11:59:0244.7224-122.81417015863Clb=4.5m/s p=102.2hPa t=-57.3C h=4.7% 401.40MHz Type=RS41-SGP Join https://groups.io/g/Balloons
KE7WWCU22205572022-12-06 11:58:4544.7232-122.8011296715826Clb=4.8m/s t=-57.3C h=1.7% p=102.8hPa 401.375 MHz Type=RS41-SGP ser=U2220557 Radiosonde
WA9ONY-10U22205572022-12-06 11:58:4044.7235-122.8011327415816Clb=4.4m/s p=102.9hPa t=-57.2C h=4.8% 401.40MHz Type=RS41-SGP Join https://groups.io/g/Balloons
WA9ONY-14U22205572022-12-06 11:58:3844.7236-122.8021337215810Clb=5.9m/s p=103.0hPa t=-57.2C h=4.7% 401.40MHz Type=RS41-SGP Join https://groups.io/g/Balloons
W7BDB-13U22205572022-12-06 11:58:2844.7241-122.8021377415791Clb=4.3m/s p=103.3hPa t=-57.0C h=4.6% 401.40MHz Type=RS41-SGP batt=2.6V Details on http://radiosondy.info
KJ7NUX-14U22205572022-12-06 11:58:2344.7244-122.8031387415781Clb=5.3m/s p=103.5hPa t=-57.0C h=4.6% 401.40MHz Type=RS41-SGP Details on http://radiosondy.info
WA9ONY-10U22205572022-12-06 11:58:1444.7248-122.8031337215765Clb=4.3m/s p=103.7hPa t=-57.1C h=4.6% 401.40MHz Type=RS41-SGP batt=2.6V Join https://groups.io/g/Balloons
WA9ONY-14U22205572022-12-06 11:58:1244.7249-122.8031327415761Clb=4.9m/s p=103.9hPa t=-57.2C h=4.6% 401.40MHz Type=RS41-SGP batt=2.7V Join https://groups.io/g/Balloons
KG7GDB-12U22205572022-12-06 11:58:1044.725-122.8031296715755Clb=5.7m/s t=-57.4C h=1.8% p=104.0hPa 401.401 MHz Type=RS41-SGP ser=U2220557 Radiosonde
K6GDP-11U22205572022-12-06 11:57:5344.7257-122.8051307815724Clb=4.5m/s t=-57.6C h=1.8% p=104.5hPa 401.400 MHz Type=RS41-SGP ser=U2220557 Radiosonde
WA9ONY-10U22205572022-12-06 11:57:4544.7259-122.8051317815713Clb=4.6m/s p=104.6hPa t=-57.6C h=4.8% 401.40MHz Type=RS41-SGP Join https://groups.io/g/Balloons
W7BDB-13U22205572022-12-06 11:57:4344.7261-122.8051327415708Clb=5.1m/s p=104.7hPa t=-57.6C h=4.8% 401.40MHz Type=RS41-SGP Details on http://radiosondy.info
WA9ONY-14U22205572022-12-06 11:57:4244.7261-122.8051327615708Clb=5.1m/s p=104.7hPa t=-57.6C h=4.8% 401.40MHz Type=RS41-SGP Join https://groups.io/g/Balloons
KJ7NUX-14U22205572022-12-06 11:57:3944.7263-122.8061327415698Clb=4.4m/s p=104.9hPa t=-57.6C h=4.8% 401.40MHz Type=RS41-SGP batt=2.6V Details on http://radiosondy.info
KE7WWCU22205572022-12-06 11:57:2344.7271-122.8071307215668Clb=5.7m/s t=-57.6C h=1.8% p=105.4hPa 401.375 MHz Type=RS41-SGP ser=U2220557 Radiosonde
WA9ONY-10U22205572022-12-06 11:57:2244.7272-122.8071317015663Clb=4.0m/s p=105.4hPa t=-57.6C h=4.9% 401.40MHz Type=RS41-SGP Join https://groups.io/g/Balloons
WA9ONY-14U22205572022-12-06 11:57:2044.7273-122.8071317015659Clb=4.2m/s p=105.5hPa t=-57.6C h=4.8% 401.40MHz Type=RS41-SGP Join https://groups.io/g/Balloons
W7BDB-13U22205572022-12-06 11:57:1044.7279-122.8081336715633Clb=4.6m/s p=105.9hPa t=-57.5C h=4.8% 401.40MHz Type=RS41-SGP Details on http://radiosondy.info
KJ7NUX-14U22205572022-12-06 11:57:0544.7282-122.8091356515619Clb=5.3m/s p=106.2hPa t=-57.5C h=4.7% 401.40MHz Type=RS41-SGP Details on http://radiosondy.info
WA9ONY-10U22205572022-12-06 11:57:0144.7284-122.8091346515613Clb=4.7m/s p=106.3hPa t=-57.5C h=4.7% 401.40MHz Type=RS41-SGP batt=2.7V Join https://groups.io/g/Balloons
WA9ONY-14U22205572022-12-06 11:56:5944.7285-122.8091336515609Clb=4.5m/s p=106.4hPa t=-57.5C h=4.8% 401.40MHz Type=RS41-SGP batt=2.6V Join https://groups.io/g/Balloons
KG7GDB-12U22205572022-12-06 11:56:5644.7287-122.811286315599Clb=4.4m/s t=-57.6C h=1.7% p=106.5hPa 401.401 MHz Type=RS41-SGP ser=U2220557 Radiosonde
WA9ONY-10U22205572022-12-06 11:56:4044.7293-122.8111276115566Clb=5.0m/s p=107.1hPa t=-57.5C h=4.8% 401.40MHz Type=RS41-SGP Join https://groups.io/g/Balloons
W7BDB-13U22205572022-12-06 11:56:3844.7294-122.8111296315561Clb=4.3m/s p=107.1hPa t=-57.5C h=4.8% 401.40MHz Type=RS41-SGP TxPastBurst=8h30m batt=2.7V Details on http://radiosondy.info
KJ7NUX-14U22205572022-12-06 11:56:2944.7298-122.8121316315541Clb=4.5m/s p=107.5hPa t=-57.4C h=4.8% 401.40MHz Type=RS41-SGP Details on http://radiosondy.info
KE7WWCU22205572022-12-06 11:56:1944.7304-122.8131296315512Clb=4.4m/s t=-57.3C h=1.7% p=108.0hPa 401.375 MHz Type=RS41-SGP ser=U2220557 Radiosonde
WA9ONY-14U22205572022-12-06 11:56:1744.7304-122.8131306515512Clb=4.3m/s p=108.0hPa t=-57.2C h=4.7% 401.40MHz Type=RS41-SGP Join https://groups.io/g/Balloons
W7BDB-13U22205572022-12-06 11:56:0544.7311-122.8141326515483Clb=5.8m/s p=108.5hPa t=-57.3C h=4.8% 401.40MHz Type=RS41-SGP Details on http://radiosondy.info
WA9ONY-10U22205572022-12-06 11:55:5944.7314-122.8141306115468Clb=5.4m/s p=108.7hPa t=-57.2C h=4.7% 401.40MHz Type=RS41-SGP TxPastBurst=8h30m batt=2.6V Join https://groups.io/g/Balloons
KJ7NUX-14U22205572022-12-06 11:55:5844.7315-122.8141296515463Clb=3.3m/s p=108.9hPa t=-57.2C h=4.7% 401.40MHz Type=RS41-SGP TxPastBurst=8h30m batt=2.6V Details on http://radiosondy.info
WA9ONY-14U22205572022-12-06 11:55:5744.7315-122.8141296315463Clb=3.3m/s p=108.9hPa t=-57.2C h=4.7% 401.40MHz Type=RS41-SGP TxPastBurst=8h30m batt=2.6V Join https://groups.io/g/Balloons
KG7GDB-12U22205572022-12-06 11:55:5144.7318-122.8151315715450Clb=4.2m/s t=-57.3C h=1.7% p=109.1hPa 401.401 MHz Type=RS41-SGP ser=U2220557 Radiosonde
W7BDB-12U22205572022-12-06 11:55:5044.732-122.8151305915435Clb=4.8m/s t=-57.3C h=1.7% p=109.3hPa 401.399 MHz Type=RS41-SGP ser=U2220557 Radiosonde
K6GDP-11U22205572022-12-06 11:55:3944.7324-122.8161337015420Clb=5.5m/s t=-57.3C h=1.8% p=109.6hPa 401.400 MHz Type=RS41-SGP ser=U2220557 Radiosonde
WA9ONY-10U22205572022-12-06 11:55:3844.7324-122.8161347015420Clb=5.4m/s p=109.6hPa t=-57.3C h=4.8% 401.40MHz Type=RS41-SGP Join https://groups.io/g/Balloons
WA9ONY-14U22205572022-12-06 11:55:3644.7325-122.8161337015416Clb=3.7m/s p=109.7hPa t=-57.3C h=4.8% 401.40MHz Type=RS41-SGP Join https://groups.io/g/Balloons
W7BDB-13U22205572022-12-06 11:55:3044.7327-122.8161337015407Clb=4.7m/s p=109.8hPa t=-57.2C h=4.7% 401.40MHz Type=RS41-SGP Details on http://radiosondy.info
KJ7NUX-14U22205572022-12-06 11:55:2244.7332-122.8171306915388Clb=5.3m/s p=110.1hPa t=-57.2C h=4.7% 401.40MHz Type=RS41-SGP Details on http://radiosondy.info
WA9ONY-10U22205572022-12-06 11:55:1544.7335-122.8181297015373Clb=4.4m/s p=110.3hPa t=-57.1C h=4.7% 401.40MHz Type=RS41-SGP Join https://groups.io/g/Balloons
WA9ONY-14U22205572022-12-06 11:55:1344.7336-122.8181307015369Clb=4.2m/s p=110.5hPa t=-57.1C h=4.7% 401.40MHz Type=RS41-SGP Join https://groups.io/g/Balloons
W7BDB-13U22205572022-12-06 11:54:5644.7344-122.8191257015336Clb=3.3m/s p=111.0hPa t=-56.9C h=4.7% 401.40MHz Type=RS41-SGP batt=2.6V Details on http://radiosondy.info
WA9ONY-10U22205572022-12-06 11:54:5144.7346-122.8191227015327Clb=4.7m/s p=111.2hPa t=-56.8C h=4.6% 401.40MHz Type=RS41-SGP batt=2.6V Join https://groups.io/g/Balloons
WA9ONY-14U22205572022-12-06 11:54:4944.7347-122.821237015322Clb=6.2m/s p=111.3hPa t=-56.7C h=4.6% 401.40MHz Type=RS41-SGP batt=2.7V Join https://groups.io/g/Balloons
KJ7NUX-14U22205572022-12-06 11:54:4444.7349-122.821257215312Clb=4.8m/s p=111.4hPa t=-56.7C h=4.5% 401.40MHz Type=RS41-SGP Details on http://radiosondy.info
KG7GDB-12U22205572022-12-06 11:54:4044.7351-122.8211237015302Clb=3.7m/s t=-56.7C h=1.7% p=111.7hPa 401.401 MHz Type=RS41-SGP ser=U2220557 Radiosonde
WA9ONY-10U22205572022-12-06 11:54:2644.7356-122.8221227015277Clb=4.9m/s p=112.1hPa t=-56.8C h=4.7% 401.40MHz Type=RS41-SGP Join https://groups.io/g/Balloons
K6GDP-11U22205572022-12-06 11:54:2444.7357-122.8221207215271Clb=5.9m/s t=-56.9C h=1.7% p=112.3hPa 401.400 MHz Type=RS41-SGP ser=U2220557 Radiosonde
WA9ONY-14U22205572022-12-06 11:54:2344.7357-122.8221217015271Clb=5.9m/s p=112.2hPa t=-56.9C h=4.6% 401.40MHz Type=RS41-SGP Join https://groups.io/g/Balloons
W7BDB-13U22205572022-12-06 11:54:1744.7359-122.8221197015261Clb=5.8m/s p=112.3hPa t=-56.8C h=4.7% 401.40MHz Type=RS41-SGP Details on http://radiosondy.info
KJ7NUX-14U22205572022-12-06 11:54:0544.7363-122.8231227015233Clb=4.9m/s p=112.8hPa t=-56.6C h=4.6% 401.40MHz Type=RS41-SGP batt=2.7V Details on http://radiosondy.info
WA9ONY-10U22205572022-12-06 11:54:0244.7364-122.8241217215228Clb=3.9m/s p=112.9hPa t=-56.6C h=4.5% 401.40MHz Type=RS41-SGP Join https://groups.io/g/Balloons
WA9ONY-14U22205572022-12-06 11:53:5944.7365-122.8241217215223Clb=6.5m/s p=113.0hPa t=-56.6C h=4.5% 401.40MHz Type=RS41-SGP Join https://groups.io/g/Balloons
KE7WWCU22205572022-12-06 11:53:5644.7367-122.8241196915212Clb=4.9m/s t=-56.7C h=1.7% p=113.2hPa 401.375 MHz Type=RS41-SGP ser=U2220557 Radiosonde
W7BDB-13U22205572022-12-06 11:53:4244.7372-122.8261267015184Clb=5.0m/s p=113.7hPa t=-56.7C h=4.6% 401.40MHz Type=RS41-SGP Details on http://radiosondy.info
WA9ONY-10U22205572022-12-06 11:53:3944.7374-122.8261297015179Clb=4.1m/s p=113.8hPa t=-56.7C h=4.6% 401.40MHz Type=RS41-SGP batt=2.6V Join https://groups.io/g/Balloons
WA9ONY-14U22205572022-12-06 11:53:3744.7375-122.8261307015174Clb=5.5m/s p=113.9hPa t=-56.6C h=4.6% 401.40MHz Type=RS41-SGP batt=2.7V Join https://groups.io/g/Balloons
KJ7NUX-14U22205572022-12-06 11:53:2644.7379-122.8271297015156Clb=4.0m/s p=114.3hPa t=-56.5C h=4.6% 401.40MHz Type=RS41-SGP Details on http://radiosondy.info
KG7GDB-12U22205572022-12-06 11:53:2444.738-122.8271266715150Clb=5.6m/s t=-56.5C h=1.7% p=114.3hPa 401.401 MHz Type=RS41-SGP ser=U2220557 Radiosonde
W7BDB-12U22205572022-12-06 11:53:2244.7383-122.8281217015136Clb=4.9m/s t=-56.5C h=1.7% p=114.6hPa 401.399 MHz Type=RS41-SGP ser=U2220557 Radiosonde
WA9ONY-10U22205572022-12-06 11:53:1144.7384-122.8281216915131Clb=3.6m/s p=114.6hPa t=-56.4C h=4.6% 401.40MHz Type=RS41-SGP Join https://groups.io/g/Balloons
WA9ONY-14U22205572022-12-06 11:53:0844.7385-122.8281216915127Clb=5.1m/s p=114.7hPa t=-56.4C h=4.6% 401.40MHz Type=RS41-SGP Join https://groups.io/g/Balloons
K6GDP-11U22205572022-12-06 11:53:0644.7387-122.8281266915119Clb=4.4m/s t=-56.5C h=1.7% p=114.9hPa 401.400 MHz Type=RS41-SGP ser=U2220557 Radiosonde
W7BDB-13U22205572022-12-06 11:52:5844.7389-122.8291336915110Clb=4.0m/s p=115.0hPa t=-56.4C h=4.6% 401.40MHz Type=RS41-SGP batt=2.7V Details on http://radiosondy.info
WA9ONY-10U22205572022-12-06 11:52:4744.7395-122.831316915088Clb=4.1m/s p=115.5hPa t=-56.5C h=4.6% 401.40MHz Type=RS41-SGP Join https://groups.io/g/Balloons
WA9ONY-14U22205572022-12-06 11:52:4444.7396-122.831316915084Clb=4.8m/s p=115.5hPa t=-56.4C h=4.6% 401.40MHz Type=RS41-SGP Join https://groups.io/g/Balloons
KE7WWCU22205572022-12-06 11:52:3744.7399-122.831306915069Clb=5.4m/s t=-56.4C h=1.7% p=115.8hPa 401.375 MHz Type=RS41-SGP ser=U2220557 Radiosonde
WA9ONY-10U22205572022-12-06 11:52:2144.7406-122.8321276715041Clb=3.9m/s p=116.3hPa t=-56.4C h=4.5% 401.40MHz Type=RS41-SGP TxPastBurst=8h30m batt=2.6V Join https://groups.io/g/Balloons
WA9ONY-14U22205572022-12-06 11:52:1944.7407-122.8321276715036Clb=5.0m/s p=116.4hPa t=-56.4C h=4.5% 401.40MHz Type=RS41-SGP TxPastBurst=8h30m batt=2.7V Join https://groups.io/g/Balloons
W7BDB-13U22205572022-12-06 11:52:1344.7409-122.8321246515022Clb=5.4m/s p=116.6hPa t=-56.4C h=4.5% 401.40MHz Type=RS41-SGP Details on http://radiosondy.info
KJ7NUX-14U22205572022-12-06 11:52:0444.7412-122.8331206315007Clb=5.5m/s p=117.0hPa t=-56.4C h=4.5% 401.40MHz Type=RS41-SGP batt=2.7V Details on http://radiosondy.info
WA9ONY-10U22205572022-12-06 11:51:5844.7414-122.8331186314992Clb=4.3m/s p=117.2hPa t=-56.3C h=4.6% 401.40MHz Type=RS41-SGP Join https://groups.io/g/Balloons
WA9ONY-14U22205572022-12-06 11:51:5744.7415-122.8341196314988Clb=4.4m/s p=117.3hPa t=-56.3C h=4.6% 401.40MHz Type=RS41-SGP Join https://groups.io/g/Balloons
K6GDP-11U22205572022-12-06 11:51:5544.7416-122.8341205714979Clb=3.6m/s t=-56.3C h=1.7% p=117.5hPa 401.400 MHz Type=RS41-SGP ser=U2220557 Radiosonde
W7BDB-13U22205572022-12-06 11:51:4944.7421-122.8351226314950Clb=5.0m/s p=117.9hPa t=-56.0C h=4.5% 401.40MHz Type=RS41-SGP Details on http://radiosondy.info
WA9ONY-10U22205572022-12-06 11:51:4844.7422-122.8351216314946Clb=3.3m/s p=118.0hPa t=-56.0C h=4.5% 401.40MHz Type=RS41-SGP Join https://groups.io/g/Balloons
WA9ONY-14U22205572022-12-06 11:51:4744.7423-122.8361206314941Clb=5.7m/s p=118.1hPa t=-55.9C h=4.5% 401.40MHz Type=RS41-SGP Join https://groups.io/g/Balloons
KJ7NUX-14U22205572022-12-06 11:51:4644.7424-122.8361186314932Clb=4.2m/s p=118.3hPa t=-55.9C h=4.4% 401.40MHz Type=RS41-SGP Details on http://radiosondy.info
WA9ONY-10U22205572022-12-06 11:51:4544.7429-122.8371186114899Clb=3.7m/s p=118.9hPa t=-55.8C h=4.4% 401.40MHz Type=RS41-SGP batt=2.6V Join https://groups.io/g/Balloons
KG7GDB-12U22205572022-12-06 11:51:4244.7436-122.8391245914860Clb=5.1m/s t=-56.0C h=1.7% p=119.7hPa 401.401 MHz Type=RS41-SGP ser=U2220557 Radiosonde
KJ7NUX-14U22205572022-12-06 11:51:4044.7436-122.8391255914856Clb=4.2m/s p=119.7hPa t=-55.9C h=4.4% 401.40MHz Type=RS41-SGP Details on http://radiosondy.info
WA9ONY-10U22205572022-12-06 11:51:3944.7437-122.8391245714852Clb=5.4m/s p=119.8hPa t=-55.9C h=4.4% 401.40MHz Type=RS41-SGP Join https://groups.io/g/Balloons
WA9ONY-14U22205572022-12-06 11:51:3744.7438-122.8391235714846Clb=4.9m/s p=119.9hPa t=-55.8C h=4.4% 401.40MHz Type=RS41-SGP Join https://groups.io/g/Balloons
K6GDP-11U22205572022-12-06 11:51:3444.744-122.841175714831Clb=4.8m/s t=-55.9C h=1.7% p=120.2hPa 401.400 MHz Type=RS41-SGP ser=U2220557 Radiosonde
W7BDB-13U22205572022-12-06 11:51:2844.7444-122.8411195714807Clb=5.2m/s p=120.6hPa t=-55.9C h=4.4% 401.40MHz Type=RS41-SGP Details on http://radiosondy.info
WA9ONY-10U22205572022-12-06 11:51:2644.7444-122.8411195714801Clb=4.3m/s p=120.8hPa t=-56.0C h=4.4% 401.40MHz Type=RS41-SGP Join https://groups.io/g/Balloons
WA9ONY-14U22205572022-12-06 11:51:2444.7445-122.8411195714797Clb=3.8m/s p=120.8hPa t=-56.0C h=4.4% 401.40MHz Type=RS41-SGP Join https://groups.io/g/Balloons
KJ7NUX-14U22205572022-12-06 11:51:1944.7447-122.8421125914779Clb=5.7m/s p=121.1hPa t=-56.2C h=4.5% 401.40MHz Type=RS41-SGP TxPastBurst=8h30m batt=2.7V Details on http://radiosondy.info
KE7WWCU22205572022-12-06 11:51:1844.7448-122.8421095414774Clb=3.9m/s t=-56.3C h=1.7% p=121.3hPa 401.375 MHz Type=RS41-SGP ser=U2220557 Radiosonde
WA9ONY-10U22205572022-12-06 11:51:0844.745-122.8431125914755Clb=5.3m/s p=121.6hPa t=-56.3C h=4.5% 401.40MHz Type=RS41-SGP batt=2.6V Join https://groups.io/g/Balloons
WA9ONY-14U22205572022-12-06 11:51:0744.745-122.8431136114750Clb=3.3m/s p=121.7hPa t=-56.4C h=4.5% 401.40MHz Type=RS41-SGP batt=2.7V Join https://groups.io/g/Balloons
W7BDB-13U22205572022-12-06 11:51:0544.7452-122.8431126114736Clb=4.0m/s p=122.0hPa t=-56.4C h=4.6% 401.40MHz Type=RS41-SGP Details on http://radiosondy.info
KG7GDB-12U22205572022-12-06 11:50:5944.7454-122.8441026114713Clb=4.4m/s t=-56.4C h=1.7% p=122.5hPa 401.401 MHz Type=RS41-SGP ser=U2220557 Radiosonde
WA9ONY-10U22205572022-12-06 11:50:5844.7455-122.8451005914708Clb=5.7m/s p=122.6hPa t=-56.5C h=4.6% 401.40MHz Type=RS41-SGP Join https://groups.io/g/Balloons
WA9ONY-14U22205572022-12-06 11:50:5744.7455-122.8451005714703Clb=4.3m/s p=122.6hPa t=-56.5C h=4.6% 401.40MHz Type=RS41-SGP Join https://groups.io/g/Balloons
KJ7NUX-14U22205572022-12-06 11:50:5544.7455-122.8451025714693Clb=4.4m/s p=122.8hPa t=-56.6C h=4.7% 401.40MHz Type=RS41-SGP Details on http://radiosondy.info
K6GDP-11U22205572022-12-06 11:50:5344.7456-122.8461045614683Clb=5.3m/s t=-56.6C h=1.8% p=123.0hPa 401.400 MHz Type=RS41-SGP ser=U2220557 Radiosonde
W7BDB-13U22205572022-12-06 11:50:4944.7457-122.8461035414665Clb=4.0m/s p=123.3hPa t=-56.4C h=4.7% 401.40MHz Type=RS41-SGP batt=2.7V Details on http://radiosondy.info
WA9ONY-10U22205572022-12-06 11:50:4844.7458-122.8471015414661Clb=5.7m/s p=123.4hPa t=-56.4C h=4.7% 401.40MHz Type=RS41-SGP Join https://groups.io/g/Balloons
KE7WWCU22205572022-12-06 11:50:4744.746-122.8481075214621Clb=4.9m/s t=-56.3C h=1.8% p=124.3hPa 401.375 MHz Type=RS41-SGP ser=U2220557 Radiosonde
W7BDB-13U22205572022-12-06 11:50:4644.7462-122.8491055214592Clb=5.7m/s p=124.9hPa t=-56.1C h=4.5% 401.40MHz Type=RS41-SGP Details on http://radiosondy.info
KG7GDB-12U22205572022-12-06 11:50:4044.7465-122.851175214561Clb=4.6m/s t=-56.0C h=1.8% p=125.5hPa 401.401 MHz Type=RS41-SGP ser=U2220557 Radiosonde
WA9ONY-14U22205572022-12-06 11:50:3944.7465-122.851155214555Clb=5.6m/s p=125.5hPa t=-55.9C h=4.6% 401.40MHz Type=RS41-SGP Join https://groups.io/g/Balloons
KJ7NUX-14U22205572022-12-06 11:50:3344.7467-122.8511165014539Clb=3.7m/s p=125.9hPa t=-55.7C h=4.5% 401.40MHz Type=RS41-SGP batt=2.7V Details on http://radiosondy.info
W7BDB-13U22205572022-12-06 11:50:2744.7469-122.8521155214522Clb=4.5m/s p=126.2hPa t=-55.6C h=4.5% 401.40MHz Type=RS41-SGP Details on http://radiosondy.info
WA9ONY-10U22205572022-12-06 11:50:2544.747-122.8521145014517Clb=3.9m/s p=126.4hPa t=-55.5C h=4.4% 401.40MHz Type=RS41-SGP Join https://groups.io/g/Balloons
KE7WWCU22205572022-12-06 11:50:1644.7474-122.8531165214481Clb=4.9m/s t=-55.3C h=1.7% p=127.2hPa 401.375 MHz Type=RS41-SGP ser=U2220557 Radiosonde
WA9ONY-10U22205572022-12-06 11:50:1344.7476-122.8531145214473Clb=5.4m/s p=127.4hPa t=-55.2C h=4.4% 401.40MHz Type=RS41-SGP batt=2.6V Join https://groups.io/g/Balloons
WA9ONY-14U22205572022-12-06 11:50:1244.7476-122.8541135414470Clb=4.2m/s p=127.4hPa t=-55.2C h=4.4% 401.40MHz Type=RS41-SGP batt=2.7V Join https://groups.io/g/Balloons
W7BDB-13U22205572022-12-06 11:50:0944.7478-122.8541115414461Clb=4.9m/s p=127.7hPa t=-55.1C h=4.4% 401.40MHz Type=RS41-SGP batt=2.6V Details on http://radiosondy.info
WA9ONY-10U22205572022-12-06 11:50:0444.7482-122.855845614442Clb=23.9m/s p=128.3hPa t=-55.0C h=4.4% 401.40MHz Type=RS41-SGP Join https://groups.io/g/Balloons
KG7GDB-12U22205572022-12-06 11:50:0244.7482-122.8551145014430Clb=5.1m/s t=-55.0C h=1.7% p=128.5hPa 401.401 MHz Type=RS41-SGP ser=U2220557 Radiosonde
KJ7NUX-14U22205572022-12-06 11:50:0044.7484-122.8561135614381Clb=5.4m/s p=129.0hPa t=-55.1C h=4.4% 401.40MHz Type=RS41-SGP Details on http://radiosondy.info
KE7WWCU22205572022-12-06 11:49:5944.7491-122.8581145614323Clb=5.8m/s t=-54.9C h=1.7% p=130.2hPa 401.375 MHz Type=RS41-SGP ser=U2220557 Radiosonde
WA9ONY-14U22205572022-12-06 11:49:5844.7493-122.8591195914314Clb=4.1m/s p=130.3hPa t=-54.7C h=4.3% 401.40MHz Type=RS41-SGP batt=2.7V Join https://groups.io/g/Balloons
W7BDB-13U22205572022-12-06 11:49:5744.7495-122.8591215614299Clb=5.1m/s p=130.6hPa t=-54.7C h=4.2% 401.40MHz Type=RS41-SGP Details on http://radiosondy.info
WA9ONY-14U22205572022-12-06 11:49:5544.75-122.861205414264Clb=5.4m/s p=131.3hPa t=-54.6C h=4.2% 401.40MHz Type=RS41-SGP Join https://groups.io/g/Balloons
K6GDP-11U22205572022-12-06 11:49:5344.7505-122.8621235214230Clb=5.5m/s t=-54.7C h=1.7% p=132.1hPa 401.400 MHz Type=RS41-SGP ser=U2220557 Radiosonde
W7BDB-13U22205572022-12-06 11:49:5244.7506-122.8621255214220Clb=5.4m/s p=132.3hPa t=-54.6C h=4.2% 401.40MHz Type=RS41-SGP TxPastBurst=8h30m batt=2.7V Details on http://radiosondy.info
KE7WWCU22205572022-12-06 11:49:4944.7512-122.8631155014171Clb=4.9m/s t=-55.0C h=1.7% p=133.3hPa 401.375 MHz Type=RS41-SGP ser=U2220557 Radiosonde
KJ7NUX-14U22205572022-12-06 11:49:4844.7516-122.8641225614147Clb=4.5m/s p=133.7hPa t=-55.1C h=4.4% 401.40MHz Type=RS41-SGP Details on http://radiosondy.info
W7BDB-13U22205572022-12-06 11:49:4744.7516-122.8641225614143Clb=3.8m/s p=133.8hPa t=-55.1C h=4.3% 401.40MHz Type=RS41-SGP Details on http://radiosondy.info
WA9ONY-10U22205572022-12-06 11:49:4544.752-122.8651195714120Clb=5.2m/s p=134.3hPa t=-55.2C h=4.4% 401.40MHz Type=RS41-SGP Join https://groups.io/g/Balloons
KG7GDB-12U22205572022-12-06 11:49:4444.7521-122.8661195614109Clb=4.6m/s t=-55.3C h=1.8% p=134.6hPa 401.401 MHz Type=RS41-SGP ser=U2220557 Radiosonde
K6GDP-11U22205572022-12-06 11:49:4344.7526-122.8671205614081Clb=4.3m/s t=-55.3C h=1.8% p=135.2hPa 401.400 MHz Type=RS41-SGP ser=U2220557 Radiosonde
KJ7NUX-14U22205572022-12-06 11:49:4244.7527-122.8671215914072Clb=4.7m/s p=135.3hPa t=-55.3C h=4.5% 401.40MHz Type=RS41-SGP TxPastBurst=8h30m batt=2.7V Details on http://radiosondy.info
WA9ONY-14U22205572022-12-06 11:49:4144.7527-122.8671215914071Clb=4.7m/s p=135.3hPa t=-55.3C h=4.5% 401.40MHz Type=RS41-SGP Join https://groups.io/g/Balloons
W7BDB-13U22205572022-12-06 11:49:4044.7528-122.8671226114067Clb=4.0m/s p=135.4hPa t=-55.2C h=4.5% 401.40MHz Type=RS41-SGP Details on http://radiosondy.info
WA9ONY-10U22205572022-12-06 11:49:2844.7536-122.8691296314025Clb=4.7m/s p=136.3hPa t=-54.9C h=4.4% 401.40MHz Type=RS41-SGP batt=2.7V Join https://groups.io/g/Balloons
KJ7NUX-14U22205572022-12-06 11:49:2344.7541-122.871276513995Clb=5.1m/s p=136.9hPa t=-55.0C h=4.4% 401.40MHz Type=RS41-SGP Details on http://radiosondy.info
WA9ONY-10U22205572022-12-06 11:49:1844.7545-122.871316713974Clb=4.3m/s p=137.4hPa t=-55.1C h=4.4% 401.40MHz Type=RS41-SGP Join https://groups.io/g/Balloons
KG7GDB-12U22205572022-12-06 11:49:1544.755-122.8711306913955Clb=4.5m/s t=-55.1C h=1.8% p=137.9hPa 401.401 MHz Type=RS41-SGP ser=U2220557 Radiosonde
W7BDB-12U22205572022-12-06 11:49:1444.7553-122.8721306313941Clb=4.4m/s t=-55.1C h=1.8% p=138.2hPa 401.399 MHz Type=RS41-SGP ser=U2220557 Radiosonde
WA9ONY-14U22205572022-12-06 11:49:0544.7556-122.8721316313927Clb=5.7m/s p=138.5hPa t=-54.9C h=4.4% 401.40MHz Type=RS41-SGP Join https://groups.io/g/Balloons
KJ7NUX-14U22205572022-12-06 11:49:0344.7558-122.8721286113917Clb=5.9m/s p=138.7hPa t=-55.0C h=4.4% 401.40MHz Type=RS41-SGP Details on http://radiosondy.info
WA9ONY-14U22205572022-12-06 11:48:5944.7565-122.8741285713878Clb=5.3m/s p=139.5hPa t=-55.1C h=4.5% 401.40MHz Type=RS41-SGP batt=2.7V Join https://groups.io/g/Balloons
W7BDB-13U22205572022-12-06 11:48:5744.7572-122.8751305713844Clb=4.8m/s p=140.2hPa t=-54.8C h=4.4% 401.40MHz Type=RS41-SGP Details on http://radiosondy.info
WA9ONY-10U22205572022-12-06 11:48:5644.7574-122.8751235713829Clb=4.6m/s p=140.6hPa t=-54.8C h=4.4% 401.40MHz Type=RS41-SGP Join https://groups.io/g/Balloons
KG7GDB-12U22205572022-12-06 11:48:5144.7579-122.8761335713798Clb=4.7m/s t=-55.0C h=1.9% p=141.3hPa 401.401 MHz Type=RS41-SGP ser=U2220557 Radiosonde
W7BDB-13U22205572022-12-06 11:48:5044.7586-122.8771255613765Clb=4.1m/s p=142.0hPa t=-55.2C h=4.4% 401.40MHz Type=RS41-SGP batt=2.6V Details on http://radiosondy.info
W7BDB-13U22205572022-12-06 11:48:4944.7598-122.881295713693Clb=5.1m/s p=143.5hPa t=-55.2C h=4.5% 401.40MHz Type=RS41-SGP Details on http://radiosondy.info
W7BDB-13U22205572022-12-06 11:48:4844.7612-122.8821255213618Clb=5.2m/s p=145.3hPa t=-55.8C h=4.7% 401.40MHz Type=RS41-SGP Details on http://radiosondy.info
KG7GDB-12U22205572022-12-06 11:48:4744.7631-122.8851395213512Clb=5.6m/s t=-55.9C h=2.0% p=147.8hPa 401.401 MHz Type=RS41-SGP ser=U2220557 Radiosonde
W7BDB-13U22205572022-12-06 11:48:4544.7639-122.8861415213475Clb=5.2m/s p=148.5hPa t=-55.6C h=4.6% 401.40MHz Type=RS41-SGP Details on http://radiosondy.info
KE7WWCU22205572022-12-06 11:48:4444.7648-122.8871435213433Clb=4.7m/s t=-56.1C h=2.1% p=149.6hPa 401.375 MHz Type=RS41-SGP ser=U2220557 Radiosonde
KG7GDB-12U22205572022-12-06 11:48:4344.7664-122.8891414613364Clb=4.8m/s t=-56.4C h=2.2% p=151.1hPa 401.401 MHz Type=RS41-SGP ser=U2220557 Radiosonde
KE7WWCU22205572022-12-06 11:48:4244.768-122.891444813290Clb=4.5m/s t=-56.6C h=2.3% p=153.0hPa 401.375 MHz Type=RS41-SGP ser=U2220557 Radiosonde
KJ7NUX-14U22205572022-12-06 11:48:4144.7695-122.8921495913231Clb=3.9m/s p=154.3hPa t=-56.3C h=5.0% 401.40MHz Type=RS41-SGP Details on http://radiosondy.info
KJ7NUX-14U22205572022-12-06 11:48:4044.7715-122.8941517413154Clb=5.1m/s p=156.2hPa t=-56.4C h=5.2% 401.40MHz Type=RS41-SGP batt=2.6V Details on http://radiosondy.info
KG7GDB-12U22205572022-12-06 11:48:3944.774-122.8961407813066Clb=3.4m/s t=-56.2C h=2.4% p=158.4hPa 401.401 MHz Type=RS41-SGP ser=U2220557 Radiosonde
KE7WWCU22205572022-12-06 11:48:3844.7765-122.8991387212973Clb=8.4m/s t=-55.7C h=2.3% p=160.8hPa 401.375 MHz Type=RS41-SGP ser=U2220557 Radiosonde
W7BDB-13U22205572022-12-06 11:48:3744.7778-122.91436312908Clb=4.4m/s p=162.3hPa t=-55.7C h=5.1% 401.40MHz Type=RS41-SGP Details on http://radiosondy.info
W7BDB-13U22205572022-12-06 11:48:3644.7799-122.9021446112810Clb=4.2m/s p=164.8hPa t=-56.0C h=5.4% 401.40MHz Type=RS41-SGP TxPastBurst=8h30m batt=2.6V Details on http://radiosondy.info
KE7WWCU22205572022-12-06 11:48:3544.7807-122.9031416312776Clb=4.9m/s t=-56.1C h=2.6% p=165.8hPa 401.375 MHz Type=RS41-SGP ser=U2220557 Radiosonde
WA9ONY-10U22205572022-12-06 11:48:3444.7809-122.9031435712769Clb=8.1m/s p=166.0hPa t=-56.0C h=5.2% 401.40MHz Type=RS41-SGP Join https://groups.io/g/Balloons
KJ7NUX-14U22205572022-12-06 11:48:3344.7811-122.9031445912756Clb=7.9m/s p=166.2hPa t=-55.9C h=5.1% 401.40MHz Type=RS41-SGP Details on http://radiosondy.info
W7BDB-13U22205572022-12-06 11:48:2744.7819-122.9041395912713Clb=5.2m/s p=167.4hPa t=-55.7C h=5.3% 401.40MHz Type=RS41-SGP Details on http://radiosondy.info
WA9ONY-10U22205572022-12-06 11:48:2644.782-122.9041406312707Clb=5.1m/s p=167.5hPa t=-55.7C h=5.3% 401.40MHz Type=RS41-SGP Join https://groups.io/g/Balloons
KG7GDB-12U22205572022-12-06 11:48:2444.7822-122.9041416112693Clb=7.0m/s t=-55.9C h=2.7% p=167.9hPa 401.401 MHz Type=RS41-SGP ser=U2220557 Radiosonde
W7BDB-12U22205572022-12-06 11:48:2344.7826-122.9051366312675Clb=4.4m/s t=-56.0C h=2.7% p=168.5hPa 401.399 MHz Type=RS41-SGP ser=U2220557 Radiosonde
K6GDP-11U22205572022-12-06 11:48:1444.7829-122.9051355912658Clb=6.3m/s t=-56.3C h=2.7% p=168.9hPa 401.400 MHz Type=RS41-SGP ser=U2220557 Radiosonde
KJ7NUX-14U22205572022-12-06 11:48:1344.7829-122.9051365712658Clb=6.3m/s p=168.8hPa t=-56.2C h=5.4% 401.40MHz Type=RS41-SGP Details on http://radiosondy.info
WA9ONY-10U22205572022-12-06 11:48:0844.7831-122.9061355712642Clb=7.5m/s p=169.2hPa t=-56.2C h=5.3% 401.40MHz Type=RS41-SGP batt=2.7V Join https://groups.io/g/Balloons
W7BDB-13U22205572022-12-06 11:47:5344.7838-122.9071285612593Clb=7.3m/s p=170.5hPa t=-56.3C h=5.5% 401.40MHz Type=RS41-SGP Details on http://radiosondy.info
KE7WWCU22205572022-12-06 11:47:4844.784-122.9071295612581Clb=6.9m/s t=-56.5C h=2.9% p=170.9hPa 401.375 MHz Type=RS41-SGP ser=U2220557 Radiosonde
WA9ONY-10U22205572022-12-06 11:47:4644.784-122.9071295612575Clb=5.3m/s p=171.0hPa t=-56.5C h=5.7% 401.40MHz Type=RS41-SGP Join https://groups.io/g/Balloons
WA9ONY-14U22205572022-12-06 11:47:4544.784-122.9071295612575Clb=5.3m/s p=171.0hPa t=-56.5C h=5.7% 401.40MHz Type=RS41-SGP Join https://groups.io/g/Balloons
KJ7NUX-14U22205572022-12-06 11:47:3844.7844-122.9081245612552Clb=4.2m/s p=171.6hPa t=-56.6C h=5.8% 401.40MHz Type=RS41-SGP TxPastBurst=8h30m batt=2.7V Details on http://radiosondy.info
WA9ONY-10U22205572022-12-06 11:47:2444.7848-122.9091235412513Clb=4.5m/s p=172.8hPa t=-57.1C h=6.1% 401.40MHz Type=RS41-SGP Join https://groups.io/g/Balloons
WA9ONY-14U22205572022-12-06 11:47:2344.7848-122.9091235412513Clb=4.5m/s p=172.8hPa t=-57.1C h=6.1% 401.40MHz Type=RS41-SGP Join https://groups.io/g/Balloons
W7BDB-13U22205572022-12-06 11:47:2044.785-122.9091205612501Clb=4.5m/s p=173.1hPa t=-57.0C h=6.2% 401.40MHz Type=RS41-SGP batt=2.7V Details on http://radiosondy.info
KG7GDB-12U22205572022-12-06 11:47:1944.785-122.9091205212495Clb=8.8m/s t=-57.0C h=3.3% p=173.4hPa 401.401 MHz Type=RS41-SGP ser=U2220557 Radiosonde
K6GDP-11U22205572022-12-06 11:47:0744.7855-122.911285712454Clb=8.5m/s t=-57.0C h=3.2% p=174.4hPa 401.400 MHz Type=RS41-SGP ser=U2220557 Radiosonde
KJ7NUX-14U22205572022-12-06 11:47:0344.7856-122.911275412448Clb=5.1m/s p=174.5hPa t=-56.9C h=6.1% 401.40MHz Type=RS41-SGP Details on http://radiosondy.info
WA9ONY-14U22205572022-12-06 11:47:0244.7856-122.911275412448Clb=5.1m/s p=174.5hPa t=-56.9C h=6.1% 401.40MHz Type=RS41-SGP batt=2.7V Join https://groups.io/g/Balloons
W7BDB-13U22205572022-12-06 11:46:4944.7862-122.9111345012408Clb=5.9m/s p=175.6hPa t=-57.1C h=6.7% 401.40MHz Type=RS41-SGP Details on http://radiosondy.info
WA9ONY-10U22205572022-12-06 11:46:4244.7864-122.9121355412391Clb=4.8m/s p=176.1hPa t=-57.0C h=6.7% 401.40MHz Type=RS41-SGP Join https://groups.io/g/Balloons
KJ7NUX-14U22205572022-12-06 11:46:3344.787-122.9131314812357Clb=6.3m/s p=177.0hPa t=-57.1C h=6.8% 401.40MHz Type=RS41-SGP Details on http://radiosondy.info
WA9ONY-14U22205572022-12-06 11:46:2444.7873-122.9131424412334Clb=7.9m/s p=177.8hPa t=-57.1C h=7.1% 401.40MHz Type=RS41-SGP Join https://groups.io/g/Balloons
W7BDB-13U22205572022-12-06 11:46:1944.7876-122.9131314412313Clb=6.6m/s p=178.2hPa t=-57.2C h=7.3% 401.40MHz Type=RS41-SGP Details on http://radiosondy.info
KG7GDB-12U22205572022-12-06 11:46:1844.7877-122.9141294312307Clb=4.2m/s t=-57.3C h=4.4% p=178.5hPa 401.401 MHz Type=RS41-SGP ser=U2220557 Radiosonde
W7BDB-12U22205572022-12-06 11:46:1744.7879-122.9141424112290Clb=6.7m/s t=-57.2C h=4.7% p=179.0hPa 401.399 MHz Type=RS41-SGP ser=U2220557 Radiosonde
K6GDP-11U22205572022-12-06 11:46:0744.7882-122.9141484812271Clb=5.5m/s t=-57.2C h=4.9% p=179.4hPa 401.400 MHz Type=RS41-SGP ser=U2220557 Radiosonde
WA9ONY-14U22205572022-12-06 11:46:0644.7882-122.9141494412271Clb=5.4m/s p=179.4hPa t=-57.2C h=7.9% 401.40MHz Type=RS41-SGP TxPastBurst=8h30m batt=2.7V Join https://groups.io/g/Balloons
KJ7NUX-14U22205572022-12-06 11:46:0244.7884-122.9141444412261Clb=7.4m/s p=179.7hPa t=-57.2C h=7.9% 401.40MHz Type=RS41-SGP batt=2.7V Details on http://radiosondy.info
W7BDB-13U22205572022-12-06 11:45:4844.7889-122.9151434412219Clb=6.2m/s p=180.9hPa t=-57.5C h=8.9% 401.40MHz Type=RS41-SGP batt=2.7V Details on http://radiosondy.info
WA9ONY-10U22205572022-12-06 11:45:4644.789-122.9151474312214Clb=3.8m/s p=181.0hPa t=-57.5C h=9.0% 401.40MHz Type=RS41-SGP Join https://groups.io/g/Balloons
KE7WWCU22205572022-12-06 11:45:4344.7892-122.9151474112203Clb=6.0m/s t=-57.6C h=5.8% p=181.3hPa 401.374 MHz Type=RS41-SGP ser=U2220557 Radiosonde
KJ7NUX-14U22205572022-12-06 11:45:3144.7898-122.9161574412170Clb=5.8m/s p=182.3hPa t=-57.4C h=9.2% 401.40MHz Type=RS41-SGP Details on http://radiosondy.info
WA9ONY-10U22205572022-12-06 11:45:2544.79-122.9161504612157Clb=5.2m/s p=182.6hPa t=-57.5C h=9.3% 401.40MHz Type=RS41-SGP Join https://groups.io/g/Balloons
KG7GDB-12U22205572022-12-06 11:45:1844.7905-122.9161554412125Clb=9.5m/s t=-57.9C h=6.7% p=183.6hPa 401.401 MHz Type=RS41-SGP ser=U2220557 Radiosonde
W7BDB-13U22205572022-12-06 11:45:1344.7907-122.9161665012111Clb=6.8m/s p=184.0hPa t=-58.0C h=10.5% 401.40MHz Type=RS41-SGP Details on http://radiosondy.info
WA9ONY-14U22205572022-12-06 11:45:0844.791-122.9161725012093Clb=7.3m/s p=184.6hPa t=-58.3C h=11.3% 401.40MHz Type=RS41-SGP batt=2.7V Join https://groups.io/g/Balloons
K6GDP-11U22205572022-12-06 11:45:0644.7912-122.9161674812086Clb=5.1m/s t=-58.4C h=8.0% p=184.7hPa 401.400 MHz Type=RS41-SGP ser=U2220557 Radiosonde
KJ7NUX-14U22205572022-12-06 11:45:0044.7915-122.9161655012069Clb=3.3m/s p=185.2hPa t=-58.6C h=11.9% 401.40MHz Type=RS41-SGP Details on http://radiosondy.info
WA9ONY-10U22205572022-12-06 11:44:4844.7923-122.9171794812026Clb=4.3m/s p=186.4hPa t=-58.9C h=12.6% 401.40MHz Type=RS41-SGP Join https://groups.io/g/Balloons
W7BDB-13U22205572022-12-06 11:44:4444.7925-122.9171685012017Clb=3.2m/s p=186.8hPa t=-58.9C h=12.7% 401.40MHz Type=RS41-SGP Details on http://radiosondy.info
KE7WWCU22205572022-12-06 11:44:4244.7927-122.9171654612003Clb=6.6m/s t=-58.8C h=8.9% p=187.2hPa 401.374 MHz Type=RS41-SGP ser=U2220557 Radiosonde
WA9ONY-14U22205572022-12-06 11:44:2644.7935-122.9171665411964Clb=4.5m/s p=188.3hPa t=-58.6C h=13.1% 401.40MHz Type=RS41-SGP Join https://groups.io/g/Balloons
KJ7NUX-14U22205572022-12-06 11:44:2244.7937-122.9171715211952Clb=4.1m/s p=188.7hPa t=-58.5C h=13.3% 401.40MHz Type=RS41-SGP batt=2.7V Details on http://radiosondy.info
KG7GDB-12U22205572022-12-06 11:44:1544.7943-122.9171625611927Clb=6.6m/s t=-58.5C h=10.2% p=189.5hPa 401.401 MHz Type=RS41-SGP ser=U2220557 Radiosonde
W7BDB-12U22205572022-12-06 11:44:1444.7946-122.9171534611911Clb=6.9m/s t=-58.9C h=10.6% p=189.9hPa 401.399 MHz Type=RS41-SGP ser=U2220557 Radiosonde
WA9ONY-14U22205572022-12-06 11:44:0644.7947-122.9171565011904Clb=7.0m/s p=190.1hPa t=-58.9C h=14.3% 401.40MHz Type=RS41-SGP batt=2.7V Join https://groups.io/g/Balloons
K6GDP-11U22205572022-12-06 11:44:0444.795-122.9181614811882Clb=5.0m/s t=-59.2C h=11.4% p=190.8hPa 401.400 MHz Type=RS41-SGP ser=U2220557 Radiosonde
KJ7NUX-14U22205572022-12-06 11:43:5244.7956-122.9181455711850Clb=6.3m/s p=191.8hPa t=-59.2C h=15.8% 401.40MHz Type=RS41-SGP Details on http://radiosondy.info
WA9ONY-14U22205572022-12-06 11:43:4844.7958-122.9181475911840Clb=6.6m/s p=192.1hPa t=-59.5C h=16.7% 401.40MHz Type=RS41-SGP Join https://groups.io/g/Balloons
W7BDB-13U22205572022-12-06 11:43:4544.796-122.9181575711826Clb=6.0m/s p=192.5hPa t=-59.7C h=17.4% 401.40MHz Type=RS41-SGP Details on http://radiosondy.info
KE7WWCU22205572022-12-06 11:43:4144.7963-122.9191605611815Clb=7.5m/s t=-59.9C h=13.4% p=192.9hPa 401.374 MHz Type=RS41-SGP ser=U2220557 Radiosonde
WA9ONY-10U22205572022-12-06 11:43:2844.7972-122.9191574811782Clb=3.7m/s p=193.9hPa t=-60.1C h=17.7% 401.40MHz Type=RS41-SGP Join https://groups.io/g/Balloons
KJ7NUX-14U22205572022-12-06 11:43:2244.7977-122.9191574311760Clb=8.0m/s p=194.6hPa t=-60.9C h=19.0% 401.40MHz Type=RS41-SGP Details on http://radiosondy.info
KG7GDB-12U22205572022-12-06 11:43:1544.798-122.921513511738Clb=6.9m/s t=-61.1C h=15.3% p=195.3hPa 401.401 MHz Type=RS41-SGP ser=U2220557 Radiosonde
WA9ONY-14U22205572022-12-06 11:43:0944.7982-122.921644111721Clb=5.9m/s p=195.8hPa t=-61.0C h=20.1% 401.40MHz Type=RS41-SGP TxPastBurst=8h30m batt=2.7V Join https://groups.io/g/Balloons
K6GDP-11U22205572022-12-06 11:43:0444.7985-122.921633911707Clb=3.9m/s t=-61.3C h=16.0% p=196.4hPa 401.400 MHz Type=RS41-SGP ser=U2220557 Radiosonde
WA9ONY-10U22205572022-12-06 11:42:4744.7991-122.921584411677Clb=3.8m/s p=197.1hPa t=-61.4C h=21.4% 401.40MHz Type=RS41-SGP Join https://groups.io/g/Balloons
KJ7NUX-14U22205572022-12-06 11:42:4244.7994-122.921624611669Clb=4.6m/s p=197.5hPa t=-61.5C h=21.3% 401.40MHz Type=RS41-SGP TxPastBurst=8h30m batt=2.7V Details on http://radiosondy.info
W7BDB-13U22205572022-12-06 11:42:4044.7995-122.921614611664Clb=4.3m/s p=197.6hPa t=-61.5C h=21.5% 401.40MHz Type=RS41-SGP batt=2.7V Details on http://radiosondy.info
KE7WWCU22205572022-12-06 11:42:3744.7997-122.9211624311654Clb=3.7m/s t=-61.6C h=17.0% p=198.0hPa 401.374 MHz Type=RS41-SGP ser=U2220557 Radiosonde
WA9ONY-10U22205572022-12-06 11:42:2444.8002-122.9211645011632Clb=3.6m/s p=198.6hPa t=-61.5C h=21.7% 401.40MHz Type=RS41-SGP Join https://groups.io/g/Balloons
KJ7NUX-14U22205572022-12-06 11:42:0844.8011-122.9211614811596Clb=4.6m/s p=199.8hPa t=-61.4C h=21.8% 401.40MHz Type=RS41-SGP Details on http://radiosondy.info
WA9ONY-14U22205572022-12-06 11:42:0444.8014-122.9211624611586Clb=5.0m/s p=200.1hPa t=-61.3C h=21.7% 401.40MHz Type=RS41-SGP batt=2.7V Join https://groups.io/g/Balloons
K6GDP-11U22205572022-12-06 11:41:5744.8018-122.9221634311567Clb=5.5m/s t=-61.3C h=16.8% p=200.8hPa 401.400 MHz Type=RS41-SGP ser=U2220557 Radiosonde
WA9ONY-10U22205572022-12-06 11:41:4544.8025-122.9221544411539Clb=2.7m/s p=201.6hPa t=-61.0C h=21.4% 401.40MHz Type=RS41-SGP Join https://groups.io/g/Balloons
KJ7NUX-14U22205572022-12-06 11:41:3844.8029-122.9221614311523Clb=4.2m/s p=202.2hPa t=-60.9C h=20.7% 401.40MHz Type=RS41-SGP Details on http://radiosondy.info
W7BDB-13U22205572022-12-06 11:41:3544.803-122.9221604311517Clb=5.7m/s p=202.4hPa t=-60.8C h=20.6% 401.40MHz Type=RS41-SGP Details on http://radiosondy.info
KE7WWCU22205572022-12-06 11:41:3444.8032-122.9221613911508Clb=4.7m/s t=-60.8C h=15.9% p=202.7hPa 401.374 MHz Type=RS41-SGP ser=U2220557 Radiosonde
WA9ONY-10U22205572022-12-06 11:41:2544.8035-122.9221554411496Clb=5.2m/s p=203.1hPa t=-60.6C h=20.7% 401.40MHz Type=RS41-SGP Join https://groups.io/g/Balloons
KG7GDB-12U22205572022-12-06 11:41:0944.8044-122.9231644311455Clb=4.1m/s t=-60.3C h=16.7% p=204.4hPa 401.401 MHz Type=RS41-SGP ser=U2220557 Radiosonde
KJ7NUX-14U22205572022-12-06 11:41:0744.8045-122.9231664411451Clb=4.5m/s p=204.4hPa t=-60.2C h=21.2% 401.40MHz Type=RS41-SGP batt=2.7V Details on http://radiosondy.info
W7BDB-13U22205572022-12-06 11:41:0644.8045-122.9231664411451Clb=4.5m/s p=204.4hPa t=-60.2C h=21.2% 401.40MHz Type=RS41-SGP batt=2.7V Details on http://radiosondy.info
K6GDP-11U22205572022-12-06 11:40:5744.805-122.9231534611427Clb=5.6m/s t=-60.1C h=16.2% p=205.3hPa 401.400 MHz Type=RS41-SGP ser=U2220557 Radiosonde
WA9ONY-14U22205572022-12-06 11:40:4744.8055-122.9241574311403Clb=3.5m/s p=206.0hPa t=-59.9C h=20.5% 401.40MHz Type=RS41-SGP Join https://groups.io/g/Balloons
W7BDB-13U22205572022-12-06 11:40:3744.8061-122.9241643711372Clb=4.7m/s p=207.1hPa t=-59.8C h=20.8% 401.40MHz Type=RS41-SGP Details on http://radiosondy.info
KE7WWCU22205572022-12-06 11:40:3644.8062-122.9241614111368Clb=3.4m/s t=-59.8C h=16.4% p=207.2hPa 401.374 MHz Type=RS41-SGP ser=U2220557 Radiosonde
WA9ONY-14U22205572022-12-06 11:40:3044.8065-122.9241533711353Clb=4.3m/s p=207.7hPa t=-59.7C h=20.9% 401.40MHz Type=RS41-SGP Join https://groups.io/g/Balloons
WA9ONY-14U22205572022-12-06 11:40:1344.8074-122.9251633511309Clb=4.6m/s p=209.2hPa t=-59.9C h=22.5% 401.40MHz Type=RS41-SGP TxPastBurst=8h30m batt=2.7V Join https://groups.io/g/Balloons
KJ7NUX-14U22205572022-12-06 11:40:1044.8076-122.9251553711300Clb=5.2m/s p=209.5hPa t=-60.0C h=22.7% 401.40MHz Type=RS41-SGP Details on http://radiosondy.info
W7BDB-13U22205572022-12-06 11:40:0944.8075-122.9251553711300Clb=5.2m/s p=209.5hPa t=-60.0C h=22.7% 401.40MHz Type=RS41-SGP Details on http://radiosondy.info
K6GDP-11U22205572022-12-06 11:40:0144.8079-122.9251523011279Clb=4.9m/s t=-59.9C h=18.5% p=210.2hPa 401.400 MHz Type=RS41-SGP ser=U2220557 Radiosonde
WA9ONY-10U22205572022-12-06 11:39:5744.8082-122.9251863711263Clb=4.1m/s p=210.8hPa t=-59.8C h=23.2% 401.40MHz Type=RS41-SGP Join https://groups.io/g/Balloons
W7BDB-13U22205572022-12-06 11:39:5044.8088-122.9251773911217Clb=5.8m/s p=212.3hPa t=-59.4C h=22.3% 401.40MHz Type=RS41-SGP TxPastBurst=8h30m batt=2.7V Details on http://radiosondy.info
KE7WWCU22205572022-12-06 11:39:4944.8089-122.9251793711211Clb=4.0m/s t=-59.5C h=17.8% p=212.6hPa 401.374 MHz Type=RS41-SGP ser=U2220557 Radiosonde
WA9ONY-10U22205572022-12-06 11:39:4744.8091-122.9251734111198Clb=6.8m/s p=212.9hPa t=-59.4C h=22.1% 401.40MHz Type=RS41-SGP Join https://groups.io/g/Balloons
WA9ONY-14U22205572022-12-06 11:39:4044.8101-122.9261834111152Clb=4.3m/s p=214.5hPa t=-59.1C h=23.3% 401.40MHz Type=RS41-SGP batt=2.7V Join https://groups.io/g/Balloons
KG7GDB-12U22205572022-12-06 11:39:3844.8103-122.9261833711142Clb=6.0m/s t=-59.2C h=19.0% p=215.0hPa 401.401 MHz Type=RS41-SGP ser=U2220557 Radiosonde
W7BDB-13U22205572022-12-06 11:39:3744.8104-122.9261834311136Clb=3.9m/s p=215.1hPa t=-59.1C h=23.4% 401.40MHz Type=RS41-SGP Details on http://radiosondy.info
KJ7NUX-14U22205572022-12-06 11:39:3644.8105-122.9261824311132Clb=4.9m/s p=215.2hPa t=-59.2C h=23.5% 401.40MHz Type=RS41-SGP Details on http://radiosondy.info
K6GDP-11U22205572022-12-06 11:39:3344.8108-122.9261804411117Clb=4.5m/s t=-59.4C h=19.9% p=215.7hPa 401.400 MHz Type=RS41-SGP ser=U2220557 Radiosonde
WA9ONY-14U22205572022-12-06 11:39:2944.8111-122.9251854111105Clb=3.9m/s p=216.2hPa t=-59.4C h=24.9% 401.40MHz Type=RS41-SGP Join https://groups.io/g/Balloons
KE7WWCU22205572022-12-06 11:39:2044.812-122.9251824111064Clb=4.8m/s t=-59.1C h=21.2% p=217.7hPa 401.374 MHz Type=RS41-SGP ser=U2220557 Radiosonde
WA9ONY-10U22205572022-12-06 11:39:1944.8121-122.9251854411059Clb=5.5m/s p=217.8hPa t=-59.0C h=25.6% 401.40MHz Type=RS41-SGP Join https://groups.io/g/Balloons
KJ7NUX-14U22205572022-12-06 11:39:1744.8124-122.9251834111048Clb=7.3m/s p=218.0hPa t=-59.0C h=25.5% 401.40MHz Type=RS41-SGP Details on http://radiosondy.info
WA9ONY-10U22205572022-12-06 11:39:0744.8132-122.9251744111000Clb=7.8m/s p=219.8hPa t=-59.1C h=27.3% 401.40MHz Type=RS41-SGP batt=2.7V Join https://groups.io/g/Balloons
KG7GDB-12U22205572022-12-06 11:39:0644.8135-122.9261683910976Clb=6.5m/s t=-59.2C h=23.2% p=220.6hPa 401.401 MHz Type=RS41-SGP ser=U2220557 Radiosonde
W7BDB-12U22205572022-12-06 11:39:0444.8138-122.9261784410958Clb=5.2m/s t=-59.3C h=23.6% p=221.3hPa 401.399 MHz Type=RS41-SGP ser=U2220557 Radiosonde
W7BDB-13U22205572022-12-06 11:39:0044.8139-122.9261793910953Clb=4.3m/s p=221.4hPa t=-59.2C h=28.6% 401.40MHz Type=RS41-SGP batt=2.7V Details on http://radiosondy.info
KJ7NUX-14U22205572022-12-06 11:38:5944.814-122.9261763710948Clb=6.2m/s p=221.6hPa t=-59.2C h=29.1% 401.40MHz Type=RS41-SGP TxPastBurst=8h30m batt=2.7V Details on http://radiosondy.info
WA9ONY-14U22205572022-12-06 11:38:5744.8143-122.9261673510938Clb=3.5m/s p=222.0hPa t=-59.3C h=29.8% 401.40MHz Type=RS41-SGP Join https://groups.io/g/Balloons
WA9ONY-14U22205572022-12-06 11:38:4744.8151-122.9261653310874Clb=4.6m/s p=224.2hPa t=-59.5C h=31.3% 401.40MHz Type=RS41-SGP Join https://groups.io/g/Balloons
W7BDB-13U22205572022-12-06 11:38:4444.8153-122.9261733510856Clb=5.0m/s p=224.9hPa t=-59.5C h=32.3% 401.40MHz Type=RS41-SGP Details on http://radiosondy.info
KJ7NUX-14U22205572022-12-06 11:38:4344.8154-122.9261753510850Clb=6.9m/s p=225.1hPa t=-59.5C h=32.2% 401.40MHz Type=RS41-SGP Details on http://radiosondy.info
WA9ONY-10U22205572022-12-06 11:38:3844.8159-122.9261873510816Clb=6.8m/s p=226.3hPa t=-59.3C h=31.4% 401.40MHz Type=RS41-SGP TxPastBurst=8h30m batt=2.7V Join https://groups.io/g/Balloons
KG7GDB-12U22205572022-12-06 11:38:3444.8163-122.9261803910788Clb=8.5m/s t=-59.6C h=27.9% p=227.4hPa 401.401 MHz Type=RS41-SGP ser=U2220557 Radiosonde
W7BDB-13U22205572022-12-06 11:38:2844.8167-122.9261633510761Clb=4.6m/s p=228.4hPa t=-59.4C h=32.5% 401.40MHz Type=RS41-SGP Details on http://radiosondy.info
KJ7NUX-14U22205572022-12-06 11:38:2744.8168-122.9261673310755Clb=7.6m/s p=228.6hPa t=-59.4C h=32.7% 401.40MHz Type=RS41-SGP Details on http://radiosondy.info
WA9ONY-10U22205572022-12-06 11:38:1844.8176-122.9261803710698Clb=5.0m/s p=230.7hPa t=-59.1C h=32.7% 401.40MHz Type=RS41-SGP Join https://groups.io/g/Balloons
KJ7NUX-14U22205572022-12-06 11:38:1244.8182-122.9261753710662Clb=7.3m/s p=232.0hPa t=-59.1C h=31.7% 401.40MHz Type=RS41-SGP batt=2.7V Details on http://radiosondy.info
W7BDB-13U22205572022-12-06 11:38:1144.8183-122.9261793710655Clb=6.9m/s p=232.2hPa t=-59.0C h=31.2% 401.40MHz Type=RS41-SGP batt=2.7V Details on http://radiosondy.info
WA9ONY-10U22205572022-12-06 11:38:0744.8185-122.9261823710634Clb=6.9m/s p=233.0hPa t=-59.2C h=31.0% 401.40MHz Type=RS41-SGP batt=2.7V Join https://groups.io/g/Balloons
KG7GDB-12U22205572022-12-06 11:38:0344.819-122.9261853910604Clb=6.1m/s t=-59.1C h=27.1% p=234.1hPa 401.401 MHz Type=RS41-SGP ser=U2220557 Radiosonde
W7BDB-12U22205572022-12-06 11:38:0244.8193-122.9261803710588Clb=4.7m/s t=-59.1C h=27.9% p=234.8hPa 401.399 MHz Type=RS41-SGP ser=U2220557 Radiosonde
WA9ONY-14U22205572022-12-06 11:37:5844.8195-122.9261823910576Clb=6.0m/s p=235.1hPa t=-59.3C h=33.5% 401.40MHz Type=RS41-SGP Join https://groups.io/g/Balloons
KJ7NUX-14U22205572022-12-06 11:37:5544.8197-122.9261743710567Clb=5.5m/s p=235.5hPa t=-59.5C h=34.1% 401.40MHz Type=RS41-SGP Details on http://radiosondy.info
W7BDB-13U22205572022-12-06 11:37:5444.8198-122.9261703710561Clb=5.1m/s p=235.7hPa t=-59.7C h=34.3% 401.40MHz Type=RS41-SGP Details on http://radiosondy.info
WA9ONY-10U22205572022-12-06 11:37:4744.8205-122.9261613310526Clb=4.9m/s p=237.0hPa t=-60.4C h=35.8% 401.40MHz Type=RS41-SGP Join https://groups.io/g/Balloons
KE7WWCU22205572022-12-06 11:37:4644.8206-122.9261693110517Clb=3.9m/s t=-60.4C h=30.3% p=237.4hPa 401.374 MHz Type=RS41-SGP ser=U2220557 Radiosonde
KJ7NUX-14U22205572022-12-06 11:37:4144.8211-122.9261783110487Clb=4.5m/s p=238.5hPa t=-60.6C h=34.9% 401.40MHz Type=RS41-SGP Details on http://radiosondy.info
KG7GDB-12U22205572022-12-06 11:37:3644.8217-122.9271702810451Clb=5.2m/s t=-60.6C h=27.0% p=239.9hPa 401.401 MHz Type=RS41-SGP ser=U2220557 Radiosonde
WA9ONY-10U22205572022-12-06 11:37:3044.822-122.9271703510433Clb=4.7m/s p=240.6hPa t=-60.5C h=30.7% 401.40MHz Type=RS41-SGP Join https://groups.io/g/Balloons
K6GDP-11U22205572022-12-06 11:37:2844.8222-122.9271733010424Clb=5.0m/s t=-60.5C h=24.8% p=241.0hPa 401.400 MHz Type=RS41-SGP ser=U2220557 Radiosonde
KJ7NUX-14U22205572022-12-06 11:37:2544.8223-122.9271773710416Clb=4.0m/s p=241.3hPa t=-60.4C h=28.7% 401.40MHz Type=RS41-SGP batt=2.7V Details on http://radiosondy.info
WA9ONY-10U22205572022-12-06 11:37:1944.8229-122.9271713910387Clb=5.0m/s p=242.4hPa t=-60.2C h=26.0% 401.40MHz Type=RS41-SGP Join https://groups.io/g/Balloons
KE7WWCU22205572022-12-06 11:37:1644.8232-122.9271773910373Clb=4.0m/s t=-60.2C h=20.4% p=243.0hPa 401.374 MHz Type=RS41-SGP ser=U2220557 Radiosonde
W7BDB-13U22205572022-12-06 11:37:0844.8238-122.9271784110346Clb=5.1m/s p=244.0hPa t=-59.9C h=23.6% 401.40MHz Type=RS41-SGP Details on http://radiosondy.info
KJ7NUX-14U22205572022-12-06 11:37:0744.8239-122.9271774110341Clb=3.6m/s p=244.2hPa t=-59.9C h=23.6% 401.40MHz Type=RS41-SGP Details on http://radiosondy.info
KG7GDB-12U22205572022-12-06 11:37:0044.8246-122.9271734410309Clb=4.3m/s t=-59.7C h=18.6% p=245.4hPa 401.401 MHz Type=RS41-SGP ser=U2220557 Radiosonde
WA9ONY-10U22205572022-12-06 11:36:5744.8249-122.9271724110296Clb=3.9m/s p=246.0hPa t=-59.5C h=22.6% 401.40MHz Type=RS41-SGP Join https://groups.io/g/Balloons
K6GDP-11U22205572022-12-06 11:36:5544.8252-122.9271723710281Clb=5.6m/s t=-59.4C h=18.1% p=246.6hPa 401.400 MHz Type=RS41-SGP ser=U2220557 Radiosonde
W7BDB-13U22205572022-12-06 11:36:5344.8253-122.9271724310276Clb=4.3m/s p=246.7hPa t=-59.3C h=22.5% 401.40MHz Type=RS41-SGP Details on http://radiosondy.info
KJ7NUX-14U22205572022-12-06 11:36:5144.8255-122.9271754310267Clb=4.3m/s p=247.1hPa t=-59.2C h=22.6% 401.40MHz Type=RS41-SGP Details on http://radiosondy.info
WA9ONY-10U22205572022-12-06 11:36:4744.8259-122.9271774310248Clb=5.2m/s p=247.8hPa t=-59.1C h=22.4% 401.40MHz Type=RS41-SGP Join https://groups.io/g/Balloons
KE7WWCU22205572022-12-06 11:36:4344.8263-122.9271654310229Clb=4.8m/s t=-59.1C h=18.5% p=248.7hPa 401.375 MHz Type=RS41-SGP ser=U2220557 Radiosonde
W7BDB-13U22205572022-12-06 11:36:3844.8268-122.9281624110207Clb=4.3m/s p=249.4hPa t=-58.9C h=22.8% 401.40MHz Type=RS41-SGP batt=2.7V Details on http://radiosondy.info
WA9ONY-10U22205572022-12-06 11:36:3744.8269-122.9281644110202Clb=5.1m/s p=249.6hPa t=-58.9C h=22.9% 401.40MHz Type=RS41-SGP batt=2.7V Join https://groups.io/g/Balloons
KJ7NUX-14U22205572022-12-06 11:36:3544.8271-122.9281704310193Clb=5.1m/s p=250.0hPa t=-58.9C h=22.9% 401.40MHz Type=RS41-SGP TxPastBurst=8h30m batt=2.7V Details on http://radiosondy.info
KG7GDB-12U22205572022-12-06 11:36:3044.8277-122.9281683910167Clb=4.8m/s t=-58.7C h=17.5% p=251.0hPa 401.401 MHz Type=RS41-SGP ser=U2220557 Radiosonde
W7BDB-13U22205572022-12-06 11:36:2944.8283-122.9281664110138Clb=5.7m/s p=252.2hPa t=-58.5C h=20.2% 401.40MHz Type=RS41-SGP Details on http://radiosondy.info
W7BDB-13U22205572022-12-06 11:36:2844.8298-122.9281684110069Clb=3.9m/s p=255.0hPa t=-58.0C h=18.2% 401.40MHz Type=RS41-SGP Details on http://radiosondy.info
KG7GDB-12U22205572022-12-06 11:36:2744.8308-122.9291734110015Clb=5.1m/s t=-57.6C h=13.3% p=257.2hPa 401.401 MHz Type=RS41-SGP ser=U2220557 Radiosonde
KE7WWCU22205572022-12-06 11:36:2644.8325-122.929158449924Clb=4.7m/s t=-56.9C h=12.6% p=260.9hPa 401.375 MHz Type=RS41-SGP ser=U2220557 Radiosonde
KG7GDB-12U22205572022-12-06 11:36:2544.8338-122.93150439856Clb=8.3m/s t=-56.7C h=11.6% p=263.8hPa 401.401 MHz Type=RS41-SGP ser=U2220557 Radiosonde
KJ7NUX-14U22205572022-12-06 11:36:2444.835-122.931150359767Clb=5.9m/s p=267.4hPa t=-56.1C h=14.2% 401.40MHz Type=RS41-SGP Details on http://radiosondy.info
WA9ONY-10U22205572022-12-06 11:36:2344.8363-122.932172359670Clb=4.8m/s p=271.5hPa t=-55.6C h=14.1% 401.40MHz Type=RS41-SGP Join https://groups.io/g/Balloons
K6GDP-11U22205572022-12-06 11:36:2244.8369-122.932152399626Clb=7.3m/s t=-55.4C h=10.7% p=273.4hPa 401.400 MHz Type=RS41-SGP ser=U2220557 Radiosonde
W7BDB-13U22205572022-12-06 11:36:2144.837-122.932156419619Clb=4.8m/s p=273.7hPa t=-55.3C h=13.8% 401.40MHz Type=RS41-SGP Details on http://radiosondy.info
KJ7NUX-14U22205572022-12-06 11:36:1944.8379-122.932167419559Clb=7.7m/s p=276.3hPa t=-54.9C h=13.6% 401.40MHz Type=RS41-SGP Details on http://radiosondy.info
W7BDB-13U22205572022-12-06 11:36:1844.8384-122.933158439527Clb=6.4m/s p=277.6hPa t=-54.7C h=13.4% 401.40MHz Type=RS41-SGP Details on http://radiosondy.info
WA9ONY-10U22205572022-12-06 11:36:1644.8391-122.933162449484Clb=5.8m/s p=279.5hPa t=-54.4C h=13.4% 401.40MHz Type=RS41-SGP Join https://groups.io/g/Balloons
KG7GDB-12U22205572022-12-06 11:36:1544.8393-122.933163449471Clb=6.4m/s t=-54.4C h=10.4% p=280.1hPa 401.401 MHz Type=RS41-SGP ser=U2220557 Radiosonde
KJ7NUX-14U22205572022-12-06 11:36:1344.8395-122.933156419460Clb=6.6m/s p=280.5hPa t=-54.2C h=13.2% 401.40MHz Type=RS41-SGP Details on http://radiosondy.info
K6GDP-11U22205572022-12-06 11:36:1044.8398-122.933147419437Clb=7.3m/s t=-54.1C h=10.3% p=281.6hPa 401.400 MHz Type=RS41-SGP ser=U2220557 Radiosonde
W7BDB-13U22205572022-12-06 11:36:0944.8399-122.934157419430Clb=5.5m/s p=281.9hPa t=-54.0C h=13.1% 401.40MHz Type=RS41-SGP batt=2.7V Details on http://radiosondy.info
WA9ONY-10U22205572022-12-06 11:36:0744.84-122.934163399425Clb=5.7m/s p=282.1hPa t=-54.0C h=13.0% 401.40MHz Type=RS41-SGP Join https://groups.io/g/Balloons
KE7WWCU22205572022-12-06 11:35:5344.8409-122.934145399364Clb=7.1m/s t=-53.5C h=10.2% p=284.8hPa 401.375 MHz Type=RS41-SGP ser=U2220557 Radiosonde
WA9ONY-10U22205572022-12-06 11:35:5244.8409-122.934146419364Clb=7.0m/s p=284.8hPa t=-53.5C h=13.0% 401.40MHz Type=RS41-SGP TxPastBurst=8h30m batt=2.7V Join https://groups.io/g/Balloons
KJ7NUX-14U22205572022-12-06 11:35:4944.8411-122.934151399351Clb=6.0m/s p=285.4hPa t=-53.3C h=13.0% 401.40MHz Type=RS41-SGP TxPastBurst=8h30m batt=2.7V Details on http://radiosondy.info
W7BDB-13U22205572022-12-06 11:35:4144.8416-122.935161399321Clb=5.6m/s p=286.8hPa t=-53.1C h=12.9% 401.40MHz Type=RS41-SGP Details on http://radiosondy.info
WA9ONY-14U22205572022-12-06 11:35:3544.8418-122.935155399299Clb=4.7m/s p=287.7hPa t=-53.0C h=13.0% 401.40MHz Type=RS41-SGP Join https://groups.io/g/Balloons
KG7GDB-12U22205572022-12-06 11:35:2944.8421-122.935146399281Clb=7.0m/s t=-52.9C h=10.3% p=288.4hPa 401.401 MHz Type=RS41-SGP ser=U2220557 Radiosonde
KJ7NUX-14U22205572022-12-06 11:35:2144.8425-122.935148439249Clb=3.9m/s p=289.9hPa t=-52.6C h=13.9% 401.40MHz Type=RS41-SGP Details on http://radiosondy.info
K6GDP-11U22205572022-12-06 11:35:2044.8426-122.935149419243Clb=7.3m/s t=-52.6C h=11.1% p=290.3hPa 401.400 MHz Type=RS41-SGP ser=U2220557 Radiosonde
WA9ONY-10U22205572022-12-06 11:35:1844.8427-122.935154399237Clb=6.0m/s p=290.4hPa t=-52.5C h=14.0% 401.40MHz Type=RS41-SGP Join https://groups.io/g/Balloons
W7BDB-13U22205572022-12-06 11:35:1244.8429-122.936156379220Clb=8.2m/s p=291.2hPa t=-52.4C h=13.9% 401.40MHz Type=RS41-SGP Details on http://radiosondy.info
WA9ONY-10U22205572022-12-06 11:35:0044.8435-122.936143399179Clb=7.1m/s p=293.0hPa t=-52.2C h=13.4% 401.40MHz Type=RS41-SGP batt=2.7V Join https://groups.io/g/Balloons
KE7WWCU22205572022-12-06 11:34:5944.8437-122.936145449167Clb=4.1m/s t=-52.2C h=11.0% p=293.7hPa 401.375 MHz Type=RS41-SGP ser=U2220557 Radiosonde
KJ7NUX-14U22205572022-12-06 11:34:5344.8438-122.936146339157Clb=6.5m/s p=294.1hPa t=-52.0C h=13.5% 401.40MHz Type=RS41-SGP Details on http://radiosondy.info
W7BDB-13U22205572022-12-06 11:34:4344.8442-122.937151359127Clb=5.8m/s p=295.4hPa t=-51.8C h=13.7% 401.40MHz Type=RS41-SGP batt=2.7V Details on http://radiosondy.info
WA9ONY-10U22205572022-12-06 11:34:4144.8443-122.937154359120Clb=6.4m/s p=295.8hPa t=-51.8C h=13.7% 401.40MHz Type=RS41-SGP Join https://groups.io/g/Balloons
KG7GDB-12U22205572022-12-06 11:34:3344.8446-122.937155359092Clb=4.6m/s t=-51.6C h=11.5% p=297.2hPa 401.401 MHz Type=RS41-SGP ser=U2220557 Radiosonde
KJ7NUX-14U22205572022-12-06 11:34:2344.845-122.937154339061Clb=4.6m/s p=298.5hPa t=-51.3C h=14.4% 401.40MHz Type=RS41-SGP batt=2.7V Details on http://radiosondy.info
W7BDB-13U22205572022-12-06 11:34:0844.8456-122.938154359018Clb=6.0m/s p=300.4hPa t=-51.1C h=14.4% 401.40MHz Type=RS41-SGP Details on http://radiosondy.info
WA9ONY-10U22205572022-12-06 11:34:0344.8458-122.938156378999Clb=7.6m/s p=301.3hPa t=-51.0C h=14.7% 401.40MHz Type=RS41-SGP batt=2.7V Join https://groups.io/g/Balloons
KE7WWCU22205572022-12-06 11:34:0144.8459-122.938158308987Clb=4.5m/s t=-50.9C h=12.4% p=301.9hPa 401.375 MHz Type=RS41-SGP ser=U2220557 Radiosonde
KJ7NUX-14U22205572022-12-06 11:33:5344.8462-122.938150438964Clb=4.5m/s p=303.0hPa t=-50.7C h=15.3% 401.40MHz Type=RS41-SGP Details on http://radiosondy.info
WA9ONY-10U22205572022-12-06 11:33:4444.8466-122.938158438944Clb=5.2m/s p=303.9hPa t=-50.5C h=15.3% 401.40MHz Type=RS41-SGP Join https://groups.io/g/Balloons
W7BDB-13U22205572022-12-06 11:32:5444.8469-122.939158418930Clb=5.4m/s p=304.5hPa t=-50.4C h=15.1% 401.40MHz Type=RS41-SGP Details on http://radiosondy.info
WA9ONY-10U22205572022-12-06 11:32:5044.8493-122.94155448771Clb=5.2m/s p=312.0hPa t=-49.2C h=13.8% 401.40MHz Type=RS41-SGP Join https://groups.io/g/Balloons
WA9ONY-14U22205572022-12-06 11:32:4944.8493-122.94155448771Clb=5.2m/s p=312.0hPa t=-49.2C h=13.8% 401.40MHz Type=RS41-SGP Join https://groups.io/g/Balloons
W7BDB-13U22205572022-12-06 11:32:4144.8497-122.941144448748Clb=6.3m/s p=313.1hPa t=-49.0C h=13.4% 401.40MHz Type=RS41-SGP Details on http://radiosondy.info
KG7GDB-12U22205572022-12-06 11:32:3744.85-122.941147418732Clb=6.1m/s t=-48.9C h=10.6% p=313.9hPa 401.401 MHz Type=RS41-SGP ser=U2220557 Radiosonde
K6GDP-11U22205572022-12-06 11:32:2544.8505-122.941152468704Clb=6.1m/s t=-48.7C h=10.1% p=315.2hPa 401.400 MHz Type=RS41-SGP ser=U2220557 Radiosonde
KJ7NUX-14U22205572022-12-06 11:32:2244.8507-122.941143468694Clb=4.5m/s p=315.6hPa t=-48.5C h=12.0% 401.40MHz Type=RS41-SGP Details on http://radiosondy.info
WA9ONY-14U22205572022-12-06 11:32:1944.8508-122.942142448690Clb=5.3m/s p=315.8hPa t=-48.5C h=11.9% 401.40MHz Type=RS41-SGP Join https://groups.io/g/Balloons
W7BDB-13U22205572022-12-06 11:32:1144.8512-122.942154468664Clb=5.8m/s p=317.1hPa t=-48.2C h=11.4% 401.40MHz Type=RS41-SGP Details on http://radiosondy.info
KE7WWCU22205572022-12-06 11:32:0544.8517-122.942152488644Clb=5.9m/s t=-48.1C h=9.3% p=318.0hPa 401.375 MHz Type=RS41-SGP ser=U2220557 Radiosonde
WA9ONY-10U22205572022-12-06 11:32:0344.8518-122.942148448640Clb=4.2m/s p=318.2hPa t=-48.0C h=11.4% 401.40MHz Type=RS41-SGP batt=2.7V Join https://groups.io/g/Balloons
KJ7NUX-14U22205572022-12-06 11:31:5544.8524-122.943142448601Clb=4.9m/s p=320.1hPa t=-47.8C h=10.5% 401.40MHz Type=RS41-SGP Details on http://radiosondy.info
WA9ONY-10U22205572022-12-06 11:31:5244.8527-122.943155448581Clb=7.0m/s p=321.0hPa t=-47.7C h=9.9% 401.40MHz Type=RS41-SGP Join https://groups.io/g/Balloons
KG7GDB-12U22205572022-12-06 11:31:5044.853-122.943153418563Clb=5.8m/s t=-47.6C h=7.9% p=322.1hPa 401.401 MHz Type=RS41-SGP ser=U2220557 Radiosonde
W7BDB-12U22205572022-12-06 11:31:4944.8532-122.944158378551Clb=5.8m/s t=-47.5C h=7.9% p=322.6hPa 401.399 MHz Type=RS41-SGP ser=U2220557 Radiosonde
WA9ONY-10U22205572022-12-06 11:31:4244.8537-122.944151438527Clb=5.3m/s p=323.7hPa t=-47.2C h=10.3% 401.40MHz Type=RS41-SGP Join https://groups.io/g/Balloons
KJ7NUX-14U22205572022-12-06 11:31:3944.8539-122.944142468512Clb=6.2m/s p=324.4hPa t=-47.1C h=10.6% 401.40MHz Type=RS41-SGP TxPastBurst=8h30m batt=2.7V Details on http://radiosondy.info
W7BDB-13U22205572022-12-06 11:31:3544.8543-122.945151468492Clb=5.1m/s p=325.5hPa t=-46.9C h=11.2% 401.40MHz Type=RS41-SGP Details on http://radiosondy.info
KE7WWCU22205572022-12-06 11:31:3244.8545-122.945168338474Clb=5.2m/s t=-46.8C h=9.9% p=326.3hPa 401.375 MHz Type=RS41-SGP ser=U2220557 Radiosonde
KJ7NUX-14U22205572022-12-06 11:31:2344.8555-122.945162508423Clb=4.9m/s p=328.9hPa t=-46.3C h=17.8% 401.40MHz Type=RS41-SGP Details on http://radiosondy.info
WA9ONY-10U22205572022-12-06 11:31:2244.8557-122.945166468418Clb=3.5m/s p=329.1hPa t=-46.3C h=18.8% 401.40MHz Type=RS41-SGP Join https://groups.io/g/Balloons
W7BDB-13U22205572022-12-06 11:31:1944.8559-122.945159488403Clb=6.7m/s p=329.9hPa t=-46.3C h=21.5% 401.40MHz Type=RS41-SGP Details on http://radiosondy.info
WA9ONY-10U22205572022-12-06 11:31:1444.8567-122.946146488357Clb=7.7m/s p=332.1hPa t=-45.9C h=23.1% 401.40MHz Type=RS41-SGP Join https://groups.io/g/Balloons
W7BDB-13U22205572022-12-06 11:31:1344.8575-122.947142468300Clb=6.8m/s p=335.0hPa t=-45.5C h=20.0% 401.40MHz Type=RS41-SGP batt=2.7V Details on http://radiosondy.info
W7BDB-13U22205572022-12-06 11:30:4844.8588-122.949141438213Clb=8.0m/s p=339.2hPa t=-44.8C h=19.1% 401.40MHz Type=RS41-SGP Details on http://radiosondy.info
KJ7NUX-14U22205572022-12-06 11:30:4744.8642-122.955149397832Clb=4.5m/s p=359.1hPa t=-41.6C h=21.3% 401.40MHz Type=RS41-SGP Details on http://radiosondy.info
WA9ONY-10U22205572022-12-06 11:30:4644.8642-122.955149397832Clb=4.5m/s p=359.1hPa t=-41.6C h=21.3% 401.40MHz Type=RS41-SGP Join https://groups.io/g/Balloons
K6GDP-11U22205572022-12-06 11:30:4244.8645-122.955135397814Clb=4.4m/s t=-41.5C h=19.5% p=360.1hPa 401.400 MHz Type=RS41-SGP ser=U2220557 Radiosonde
WA9ONY-10U22205572022-12-06 11:30:2944.8649-122.956140397789Clb=4.2m/s p=361.4hPa t=-41.3C h=23.6% 401.40MHz Type=RS41-SGP TxPastBurst=8h30m batt=2.7V Join https://groups.io/g/Balloons
W7BDB-13U22205572022-12-06 11:30:2744.865-122.956142397779Clb=3.6m/s p=362.0hPa t=-41.2C h=24.4% 401.40MHz Type=RS41-SGP batt=2.7V Details on http://radiosondy.info
KE7WWCU22205572022-12-06 11:30:2344.8652-122.956145377770Clb=3.7m/s t=-41.2C h=23.4% p=362.4hPa 401.375 MHz Type=RS41-SGP ser=U2220557 Radiosonde
KJ7NUX-14U22205572022-12-06 11:30:2144.8653-122.956143377762Clb=4.2m/s p=362.8hPa t=-41.1C h=26.7% 401.40MHz Type=RS41-SGP Details on http://radiosondy.info
WA9ONY-14U22205572022-12-06 11:30:1544.8656-122.957139357746Clb=5.4m/s p=363.8hPa t=-41.0C h=31.2% 401.40MHz Type=RS41-SGP Join https://groups.io/g/Balloons
KG7GDB-12U22205572022-12-06 11:30:0144.8662-122.957146307711Clb=3.6m/s t=-41.0C h=34.6% p=365.6hPa 401.401 MHz Type=RS41-SGP ser=U2220557 Radiosonde
W7BDB-13U22205572022-12-06 11:30:0044.8662-122.957147417711Clb=3.5m/s p=365.6hPa t=-41.0C h=37.0% 401.40MHz Type=RS41-SGP Details on http://radiosondy.info
WA9ONY-14U22205572022-12-06 11:29:5844.8663-122.957151437702Clb=5.0m/s p=366.0hPa t=-40.9C h=37.4% 401.40MHz Type=RS41-SGP Join https://groups.io/g/Balloons
KJ7NUX-14U22205572022-12-06 11:29:5544.8665-122.957154417695Clb=4.4m/s p=366.4hPa t=-40.9C h=38.6% 401.40MHz Type=RS41-SGP TxPastBurst=8h30m batt=2.7V Details on http://radiosondy.info
K6GDP-11U22205572022-12-06 11:29:5244.8667-122.958137447687Clb=4.8m/s t=-40.9C h=37.4% p=366.8hPa 401.400 MHz Type=RS41-SGP ser=U2220557 Radiosonde
WA9ONY-14U22205572022-12-06 11:29:4344.867-122.958124357654Clb=7.7m/s p=368.6hPa t=-40.7C h=38.7% 401.40MHz Type=RS41-SGP batt=2.7V Join https://groups.io/g/Balloons
W7BDB-13U22205572022-12-06 11:29:3644.8673-122.959139307626Clb=6.9m/s p=370.1hPa t=-40.5C h=37.8% 401.40MHz Type=RS41-SGP Details on http://radiosondy.info
KE7WWCU22205572022-12-06 11:29:3544.8675-122.959139247603Clb=5.9m/s t=-40.4C h=34.6% p=371.4hPa 401.375 MHz Type=RS41-SGP ser=U2220557 Radiosonde
KJ7NUX-14U22205572022-12-06 11:29:3144.8675-122.959138307598Clb=4.9m/s p=371.6hPa t=-40.4C h=36.7% 401.40MHz Type=RS41-SGP Details on http://radiosondy.info
WA9ONY-10U22205572022-12-06 11:29:2744.8676-122.959136317588Clb=5.2m/s p=372.1hPa t=-40.3C h=35.8% 401.40MHz Type=RS41-SGP Join https://groups.io/g/Balloons
KG7GDB-12U22205572022-12-06 11:29:1044.8682-122.96136227546Clb=5.2m/s t=-40.1C h=31.5% p=374.4hPa 401.401 MHz Type=RS41-SGP ser=U2220557 Radiosonde
WA9ONY-10U22205572022-12-06 11:29:0844.8682-122.96124287541Clb=3.2m/s p=374.7hPa t=-40.0C h=33.9% 401.40MHz Type=RS41-SGP Join https://groups.io/g/Balloons
W7BDB-13U22205572022-12-06 11:29:0444.8683-122.96127337534Clb=2.6m/s p=375.0hPa t=-40.0C h=35.1% 401.40MHz Type=RS41-SGP batt=2.7V Details on http://radiosondy.info
KJ7NUX-14U22205572022-12-06 11:29:0144.8683-122.96138337524Clb=6.2m/s p=375.5hPa t=-40.0C h=35.4% 401.40MHz Type=RS41-SGP Details on http://radiosondy.info
K6GDP-11U22205572022-12-06 11:29:0044.8685-122.96151337511Clb=6.0m/s t=-40.0C h=33.8% p=376.3hPa 401.400 MHz Type=RS41-SGP ser=U2220557 Radiosonde
WA9ONY-10U22205572022-12-06 11:28:5144.8687-122.961134337486Clb=5.9m/s p=377.8hPa t=-39.8C h=35.7% 401.40MHz Type=RS41-SGP batt=2.7V Join https://groups.io/g/Balloons
KE7WWCU22205572022-12-06 11:28:4044.8691-122.961146307446Clb=5.8m/s t=-39.6C h=34.1% p=380.1hPa 401.375 MHz Type=RS41-SGP ser=U2220557 Radiosonde
W7BDB-13U22205572022-12-06 11:28:3844.8692-122.961155357441Clb=5.6m/s p=380.4hPa t=-39.5C h=36.4% 401.40MHz Type=RS41-SGP Details on http://radiosondy.info
WA9ONY-10U22205572022-12-06 11:28:3544.8693-122.961153357429Clb=6.3m/s p=381.0hPa t=-39.5C h=36.5% 401.40MHz Type=RS41-SGP Join https://groups.io/g/Balloons
KG7GDB-12U22205572022-12-06 11:28:1944.8699-122.962139287373Clb=4.8m/s t=-39.1C h=34.1% p=384.2hPa 401.401 MHz Type=RS41-SGP ser=U2220557 Radiosonde
WA9ONY-10U22205572022-12-06 11:28:1844.8699-122.962140377373Clb=4.8m/s p=384.1hPa t=-39.1C h=36.2% 401.40MHz Type=RS41-SGP Join https://groups.io/g/Balloons
KJ7NUX-14U22205572022-12-06 11:28:0944.8704-122.963145397340Clb=5.0m/s p=386.0hPa t=-38.8C h=35.8% 401.40MHz Type=RS41-SGP Details on http://radiosondy.info
WA9ONY-14U22205572022-12-06 11:28:0244.8707-122.963142397319Clb=4.2m/s p=387.2hPa t=-38.6C h=35.7% 401.40MHz Type=RS41-SGP TxPastBurst=8h30m batt=2.9V Join https://groups.io/g/Balloons
KE7WWCU22205572022-12-06 11:27:5544.8713-122.964155357287Clb=3.4m/s t=-38.4C h=33.5% p=389.1hPa 401.375 MHz Type=RS41-SGP ser=U2220557 Radiosonde
WA9ONY-10U22205572022-12-06 11:27:5244.8715-122.964151437279Clb=4.7m/s p=389.5hPa t=-38.3C h=35.9% 401.40MHz Type=RS41-SGP Join https://groups.io/g/Balloons
KJ7NUX-14U22205572022-12-06 11:27:5044.8717-122.964143397271Clb=4.8m/s p=389.8hPa t=-38.2C h=35.9% 401.40MHz Type=RS41-SGP Details on http://radiosondy.info
WA9ONY-14U22205572022-12-06 11:27:4244.8723-122.965148377237Clb=7.2m/s p=391.8hPa t=-37.9C h=36.8% 401.40MHz Type=RS41-SGP Join https://groups.io/g/Balloons
KG7GDB-12U22205572022-12-06 11:27:4144.8725-122.965141337221Clb=7.9m/s t=-37.9C h=36.0% p=392.6hPa 401.401 MHz Type=RS41-SGP ser=U2220557 Radiosonde
K6GDP-11U22205572022-12-06 11:27:3644.8729-122.965142507196Clb=4.9m/s t=-37.7C h=36.4% p=394.1hPa 401.400 MHz Type=RS41-SGP ser=U2220557 Radiosonde
W7BDB-13U22205572022-12-06 11:27:3544.8729-122.965143397196Clb=4.9m/s p=394.1hPa t=-37.6C h=38.4% 401.40MHz Type=RS41-SGP Details on http://radiosondy.info
KJ7NUX-14U22205572022-12-06 11:27:3444.873-122.965144397191Clb=4.6m/s p=394.4hPa t=-37.6C h=38.7% 401.40MHz Type=RS41-SGP batt=2.9V Details on http://radiosondy.info
KE7WWCU22205572022-12-06 11:27:2544.8738-122.967136307133Clb=5.1m/s t=-37.1C h=36.3% p=397.6hPa 401.375 MHz Type=RS41-SGP ser=U2220557 Radiosonde
W7BDB-13U22205572022-12-06 11:27:2144.8739-122.967143357121Clb=5.3m/s p=398.3hPa t=-37.0C h=37.8% 401.40MHz Type=RS41-SGP Details on http://radiosondy.info
KJ7NUX-14U22205572022-12-06 11:27:1944.8741-122.967143377112Clb=5.4m/s p=398.9hPa t=-36.9C h=37.8% 401.40MHz Type=RS41-SGP Details on http://radiosondy.info
KG7GDB-12U22205572022-12-06 11:27:1244.8746-122.968140337077Clb=5.8m/s t=-36.6C h=35.2% p=401.0hPa 401.401 MHz Type=RS41-SGP ser=U2220557 Radiosonde
K6GDP-11U22205572022-12-06 11:27:0544.875-122.968140447051Clb=4.8m/s t=-36.4C h=36.2% p=402.5hPa 401.400 MHz Type=RS41-SGP ser=U2220557 Radiosonde
W7BDB-13U22205572022-12-06 11:27:0344.8751-122.968141377046Clb=5.4m/s p=402.7hPa t=-36.3C h=37.8% 401.40MHz Type=RS41-SGP batt=2.9V Details on http://radiosondy.info
KJ7NUX-14U22205572022-12-06 11:27:0244.8752-122.968142377040Clb=7.5m/s p=403.1hPa t=-36.3C h=37.7% 401.40MHz Type=RS41-SGP Details on http://radiosondy.info
KE7WWCU22205572022-12-06 11:26:5344.8758-122.969130316977Clb=5.7m/s t=-35.8C h=36.1% p=406.7hPa 401.375 MHz Type=RS41-SGP ser=U2220557 Radiosonde
WA9ONY-10U22205572022-12-06 11:26:4944.876-122.969148396963Clb=5.7m/s p=407.5hPa t=-35.6C h=36.8% 401.40MHz Type=RS41-SGP batt=2.9V Join https://groups.io/g/Balloons
WA9ONY-14U22205572022-12-06 11:26:4844.8761-122.969143396956Clb=7.9m/s p=407.8hPa t=-35.5C h=36.4% 401.40MHz Type=RS41-SGP batt=2.9V Join https://groups.io/g/Balloons
KJ7NUX-14U22205572022-12-06 11:26:4644.8762-122.97126376943Clb=6.3m/s p=408.6hPa t=-35.4C h=35.5% 401.40MHz Type=RS41-SGP TxPastBurst=8h30m batt=2.9V Details on http://radiosondy.info
KG7GDB-12U22205572022-12-06 11:26:3944.8766-122.97144356903Clb=6.3m/s t=-35.1C h=33.1% p=411.1hPa 401.401 MHz Type=RS41-SGP ser=U2220557 Radiosonde
WA9ONY-14U22205572022-12-06 11:26:3844.8767-122.97144376895Clb=7.6m/s p=411.4hPa t=-35.0C h=34.2% 401.40MHz Type=RS41-SGP Join https://groups.io/g/Balloons
K6GDP-11U22205572022-12-06 11:26:3444.877-122.971132376867Clb=6.0m/s t=-34.8C h=31.4% p=413.4hPa 401.400 MHz Type=RS41-SGP ser=U2220557 Radiosonde
KJ7NUX-14U22205572022-12-06 11:26:3044.8772-122.971138356852Clb=4.6m/s p=414.1hPa t=-34.6C h=32.8% 401.40MHz Type=RS41-SGP Details on http://radiosondy.info
KE7WWCU22205572022-12-06 11:26:2244.8777-122.972139356806Clb=4.4m/s t=-34.4C h=32.0% p=416.9hPa 401.375 MHz Type=RS41-SGP ser=U2220557 Radiosonde
KG7GDB-12U22205572022-12-06 11:26:1944.8784-122.973135336746Clb=6.1m/s t=-33.8C h=26.6% p=420.5hPa 401.401 MHz Type=RS41-SGP ser=U2220557 Radiosonde
KE7WWCU22205572022-12-06 11:26:1844.8795-122.975151356666Clb=5.8m/s t=-33.2C h=28.2% p=425.3hPa 401.375 MHz Type=RS41-SGP ser=U2220557 Radiosonde
KG7GDB-12U22205572022-12-06 11:26:1744.8802-122.976136306594Clb=5.0m/s t=-32.6C h=26.9% p=429.6hPa 401.401 MHz Type=RS41-SGP ser=U2220557 Radiosonde
W7BDB-12U22205572022-12-06 11:26:1644.8804-122.976137436580Clb=5.4m/s t=-32.5C h=27.4% p=430.5hPa 401.399 MHz Type=RS41-SGP ser=U2220557 Radiosonde
WA9ONY-10U22205572022-12-06 11:26:1344.8805-122.976138266573Clb=4.3m/s p=430.9hPa t=-32.4C h=29.5% 401.40MHz Type=RS41-SGP TxPastBurst=8h30m batt=2.9V Join https://groups.io/g/Balloons
WA9ONY-14U22205572022-12-06 11:26:1144.8807-122.976147266564Clb=5.0m/s p=431.4hPa t=-32.3C h=30.4% 401.40MHz Type=RS41-SGP TxPastBurst=8h30m batt=2.9V Join https://groups.io/g/Balloons
W7BDB-13U22205572022-12-06 11:26:0944.8808-122.977149266554Clb=4.8m/s p=432.0hPa t=-32.3C h=30.5% 401.40MHz Type=RS41-SGP TxPastBurst=8h30m batt=2.9V Details on http://radiosondy.info
KJ7NUX-14U22205572022-12-06 11:26:0844.8808-122.977122286543Clb=6.3m/s p=432.6hPa t=-32.2C h=31.4% 401.40MHz Type=RS41-SGP Details on http://radiosondy.info
WA9ONY-10U22205572022-12-06 11:26:0344.881-122.977144316515Clb=7.4m/s p=434.4hPa t=-32.0C h=35.0% 401.40MHz Type=RS41-SGP Join https://groups.io/g/Balloons
WA9ONY-14U22205572022-12-06 11:26:0044.8812-122.977137306501Clb=7.0m/s p=435.3hPa t=-31.9C h=37.4% 401.40MHz Type=RS41-SGP Join https://groups.io/g/Balloons
KE7WWCU22205572022-12-06 11:25:5944.8812-122.977127356494Clb=6.9m/s t=-31.9C h=37.6% p=435.7hPa 401.375 MHz Type=RS41-SGP ser=U2220557 Radiosonde
W7BDB-13U22205572022-12-06 11:25:4944.8814-122.978130336467Clb=6.1m/s p=437.4hPa t=-31.7C h=42.5% 401.40MHz Type=RS41-SGP Details on http://radiosondy.info
WA9ONY-10U22205572022-12-06 11:25:4844.8814-122.978139336460Clb=7.0m/s p=437.7hPa t=-31.7C h=42.1% 401.40MHz Type=RS41-SGP Join https://groups.io/g/Balloons
WA9ONY-14U22205572022-12-06 11:25:4544.8816-122.978141356447Clb=6.1m/s p=438.5hPa t=-31.5C h=42.2% 401.40MHz Type=RS41-SGP Join https://groups.io/g/Balloons
KG7GDB-12U22205572022-12-06 11:25:3944.8819-122.978140336421Clb=5.7m/s t=-31.3C h=39.9% p=440.2hPa 401.401 MHz Type=RS41-SGP ser=U2220557 Radiosonde
WA9ONY-10U22205572022-12-06 11:25:3344.8821-122.979132316408Clb=4.0m/s p=441.0hPa t=-31.2C h=41.2% 401.40MHz Type=RS41-SGP batt=2.9V Join https://groups.io/g/Balloons
WA9ONY-14U22205572022-12-06 11:25:3044.8822-122.979125306401Clb=4.1m/s p=441.5hPa t=-31.1C h=40.8% 401.40MHz Type=RS41-SGP batt=2.9V Join https://groups.io/g/Balloons
W7BDB-13U22205572022-12-06 11:25:2644.8823-122.979122286392Clb=3.7m/s p=442.1hPa t=-31.0C h=40.5% 401.40MHz Type=RS41-SGP Details on http://radiosondy.info
KJ7NUX-14U22205572022-12-06 11:25:2044.8824-122.979128266374Clb=3.4m/s p=443.2hPa t=-30.9C h=40.2% 401.40MHz Type=RS41-SGP Details on http://radiosondy.info
WA9ONY-10U22205572022-12-06 11:25:1744.8825-122.979127306365Clb=5.0m/s p=443.6hPa t=-30.8C h=39.8% 401.40MHz Type=RS41-SGP Join https://groups.io/g/Balloons
WA9ONY-14U22205572022-12-06 11:25:1444.8826-122.98128286358Clb=4.2m/s p=444.2hPa t=-30.7C h=39.7% 401.40MHz Type=RS41-SGP Join https://groups.io/g/Balloons
KE7WWCU22205572022-12-06 11:25:1144.8827-122.98126316349Clb=3.7m/s t=-30.7C h=37.9% p=444.8hPa 401.375 MHz Type=RS41-SGP ser=U2220557 Radiosonde
WA9ONY-10U22205572022-12-06 11:25:0144.8829-122.98101246321Clb=6.3m/s p=446.4hPa t=-30.3C h=38.7% 401.40MHz Type=RS41-SGP Join https://groups.io/g/Balloons
W7BDB-13U22205572022-12-06 11:24:5844.8829-122.98116226312Clb=4.7m/s p=447.1hPa t=-30.3C h=39.4% 401.40MHz Type=RS41-SGP batt=2.9V Details on http://radiosondy.info
KJ7NUX-14U22205572022-12-06 11:24:5644.883-122.981149266304Clb=4.1m/s p=447.5hPa t=-30.2C h=39.2% 401.40MHz Type=RS41-SGP Details on http://radiosondy.info
KG7GDB-12U22205572022-12-06 11:24:5144.8832-122.981138246282Clb=7.5m/s t=-30.1C h=36.6% p=448.9hPa 401.401 MHz Type=RS41-SGP ser=U2220557 Radiosonde
W7BDB-12U22205572022-12-06 11:24:5044.8833-122.981116176270Clb=4.7m/s t=-30.0C h=35.6% p=449.7hPa 401.399 MHz Type=RS41-SGP ser=U2220557 Radiosonde
WA9ONY-10U22205572022-12-06 11:24:4744.8833-122.981117246270Clb=4.7m/s p=449.6hPa t=-29.9C h=36.9% 401.40MHz Type=RS41-SGP batt=2.7V Join https://groups.io/g/Balloons
WA9ONY-14U22205572022-12-06 11:24:4444.8833-122.981123306257Clb=7.1m/s p=450.5hPa t=-29.8C h=35.5% 401.40MHz Type=RS41-SGP batt=2.7V Join https://groups.io/g/Balloons
K6GDP-11U22205572022-12-06 11:24:4344.8834-122.981137226250Clb=5.2m/s t=-29.8C h=34.3% p=451.0hPa 401.400 MHz Type=RS41-SGP ser=U2220557 Radiosonde
W7BDB-13U22205572022-12-06 11:24:3644.8836-122.981133286229Clb=6.2m/s p=452.2hPa t=-29.6C h=35.7% 401.40MHz Type=RS41-SGP Details on http://radiosondy.info
WA9ONY-10U22205572022-12-06 11:24:3244.8837-122.982113266214Clb=4.9m/s p=453.3hPa t=-29.4C h=35.8% 401.40MHz Type=RS41-SGP Join https://groups.io/g/Balloons
KJ7NUX-14U22205572022-12-06 11:24:2944.8838-122.982120286205Clb=2.2m/s p=453.9hPa t=-29.3C h=36.2% 401.40MHz Type=RS41-SGP TxPastBurst=8h30m batt=2.9V Details on http://radiosondy.info
KE7WWCU22205572022-12-06 11:24:2444.8839-122.98296196186Clb=7.8m/s t=-29.2C h=32.0% p=455.1hPa 401.375 MHz Type=RS41-SGP ser=U2220557 Radiosonde
WA9ONY-10U22205572022-12-06 11:24:1644.8839-122.982103316157Clb=5.7m/s p=457.0hPa t=-28.9C h=32.5% 401.40MHz Type=RS41-SGP Join https://groups.io/g/Balloons
W7BDB-13U22205572022-12-06 11:24:1444.8839-122.983135306144Clb=6.4m/s p=457.8hPa t=-28.7C h=31.7% 401.40MHz Type=RS41-SGP Details on http://radiosondy.info
WA9ONY-14U22205572022-12-06 11:24:1344.8839-122.983135316144Clb=6.4m/s p=457.8hPa t=-28.7C h=31.7% 401.40MHz Type=RS41-SGP Join https://groups.io/g/Balloons
KJ7NUX-14U22205572022-12-06 11:24:0644.8843-122.983142336116Clb=3.0m/s p=459.5hPa t=-28.5C h=29.0% 401.40MHz Type=RS41-SGP Details on http://radiosondy.info
WA9ONY-10U22205572022-12-06 11:24:0344.8845-122.983125336106Clb=7.1m/s p=460.2hPa t=-28.4C h=28.2% 401.40MHz Type=RS41-SGP TxPastBurst=8h30m batt=2.9V Join https://groups.io/g/Balloons
WA9ONY-14U22205572022-12-06 11:24:0044.8845-122.983100356093Clb=4.5m/s p=461.0hPa t=-28.3C h=26.7% 401.40MHz Type=RS41-SGP TxPastBurst=8h30m batt=2.9V Join https://groups.io/g/Balloons
K6GDP-11U22205572022-12-06 11:23:5844.8845-122.983102336081Clb=7.3m/s t=-28.2C h=24.9% p=461.7hPa 401.400 MHz Type=RS41-SGP ser=U2220557 Radiosonde
W7BDB-13U22205572022-12-06 11:23:5444.8847-122.984136246059Clb=4.8m/s p=463.1hPa t=-28.0C h=22.7% 401.40MHz Type=RS41-SGP batt=2.9V Details on http://radiosondy.info
WA9ONY-10U22205572022-12-06 11:23:5244.8849-122.984145226050Clb=5.3m/s p=463.6hPa t=-27.9C h=22.1% 401.40MHz Type=RS41-SGP Join https://groups.io/g/Balloons
WA9ONY-14U22205572022-12-06 11:23:5044.885-122.984139206037Clb=7.3m/s p=464.5hPa t=-27.9C h=22.1% 401.40MHz Type=RS41-SGP Join https://groups.io/g/Balloons
KJ7NUX-14U22205572022-12-06 11:23:4944.8851-122.984128266025Clb=7.2m/s p=465.2hPa t=-27.8C h=21.4% 401.40MHz Type=RS41-SGP Details on http://radiosondy.info
KE7WWCU22205572022-12-06 11:23:4644.8852-122.98412996009Clb=4.5m/s t=-27.7C h=20.6% p=466.4hPa 401.375 MHz Type=RS41-SGP ser=U2220557 Radiosonde
WA9ONY-10U22205572022-12-06 11:23:4244.8853-122.985140305996Clb=3.9m/s p=467.2hPa t=-27.6C h=21.5% 401.40MHz Type=RS41-SGP Join https://groups.io/g/Balloons
WA9ONY-14U22205572022-12-06 11:23:4044.8854-122.985139285984Clb=8.6m/s p=468.0hPa t=-27.5C h=21.0% 401.40MHz Type=RS41-SGP Join https://groups.io/g/Balloons
W7BDB-13U22205572022-12-06 11:23:3544.8856-122.985119205954Clb=3.9m/s p=469.9hPa t=-27.3C h=20.6% 401.40MHz Type=RS41-SGP Details on http://radiosondy.info
WA9ONY-10U22205572022-12-06 11:23:3244.8857-122.985101155943Clb=4.7m/s p=470.7hPa t=-27.2C h=20.8% 401.40MHz Type=RS41-SGP batt=2.9V Join https://groups.io/g/Balloons
WA9ONY-14U22205572022-12-06 11:23:3044.8857-122.986136175933Clb=5.2m/s p=471.3hPa t=-27.1C h=20.7% 401.40MHz Type=RS41-SGP batt=2.9V Join https://groups.io/g/Balloons
K6GDP-11U22205572022-12-06 11:23:2744.8858-122.98617265920Clb=5.9m/s t=-27.0C h=19.3% p=472.2hPa 401.400 MHz Type=RS41-SGP ser=U2220557 Radiosonde
WA9ONY-10U22205572022-12-06 11:23:2244.8858-122.986114245891Clb=6.8m/s p=474.0hPa t=-26.7C h=19.9% 401.40MHz Type=RS41-SGP Join https://groups.io/g/Balloons
WA9ONY-14U22205572022-12-06 11:23:2144.8859-122.986144225881Clb=6.2m/s p=474.7hPa t=-26.6C h=19.5% 401.40MHz Type=RS41-SGP Join https://groups.io/g/Balloons
W7BDB-13U22205572022-12-06 11:23:2044.886-122.986150195873Clb=7.9m/s p=475.3hPa t=-26.6C h=19.3% 401.40MHz Type=RS41-SGP Details on http://radiosondy.info
KJ7NUX-14U22205572022-12-06 11:23:1644.8861-122.986154195855Clb=5.3m/s p=476.6hPa t=-26.4C h=19.4% 401.40MHz Type=RS41-SGP Details on http://radiosondy.info
KE7WWCU22205572022-12-06 11:23:1544.8862-122.986156195849Clb=6.8m/s t=-26.4C h=-1.0% p=476.9hPa 401.375 MHz Type=RS41-SGP ser=U2220557 Radiosonde
WA9ONY-10U22205572022-12-06 11:23:1244.8863-122.986173205831Clb=4.6m/s p=478.1hPa t=-26.2C h=18.7% 401.40MHz Type=RS41-SGP Join https://groups.io/g/Balloons
WA9ONY-14U22205572022-12-06 11:23:1044.8864-122.986182205824Clb=4.2m/s p=478.5hPa t=-26.2C h=18.5% 401.40MHz Type=RS41-SGP Join https://groups.io/g/Balloons
K6GDP-14U22205572022-12-06 11:23:0544.8864-122.98698205798Clb=5.0m/s p=480.1hPa t=-26.0C h=18.3% 401.40MHz Type=RS41-SGP Details on http://radiosondy.info
W7BDB-13U22205572022-12-06 11:23:0344.8865-122.987121205788Clb=5.0m/s p=480.8hPa t=-25.9C h=18.3% 401.40MHz Type=RS41-SGP TxPastBurst=8h30m batt=2.9V Details on http://radiosondy.info
WA9ONY-10U22205572022-12-06 11:23:0244.8865-122.987134285784Clb=5.2m/s p=481.2hPa t=-25.8C h=18.2% 401.40MHz Type=RS41-SGP batt=2.9V Join https://groups.io/g/Balloons
KJ7NUX-14U22205572022-12-06 11:23:0044.8866-122.987148195772Clb=6.8m/s p=482.0hPa t=-25.7C h=17.9% 401.40MHz Type=RS41-SGP Details on http://radiosondy.info
K6GDP-11U22205572022-12-06 11:22:5644.8867-122.9879475743Clb=8.8m/s t=-25.6C h=16.3% p=483.9hPa 401.400 MHz Type=RS41-SGP ser=U2220557 Radiosonde
WA9ONY-10U22205572022-12-06 11:22:5244.8867-122.987115245720Clb=6.3m/s p=485.4hPa t=-25.4C h=17.2% 401.40MHz Type=RS41-SGP Join https://groups.io/g/Balloons
K6GDP-14U22205572022-12-06 11:22:5044.8867-122.987118225710Clb=4.7m/s p=486.2hPa t=-25.3C h=17.5% 401.40MHz Type=RS41-SGP Details on http://radiosondy.info
W7BDB-13U22205572022-12-06 11:22:4844.8868-122.987120225701Clb=3.9m/s p=486.7hPa t=-25.3C h=17.8% 401.40MHz Type=RS41-SGP Details on http://radiosondy.info
KJ7NUX-14U22205572022-12-06 11:22:4444.8869-122.98892205682Clb=5.4m/s p=488.0hPa t=-25.1C h=17.2% 401.40MHz Type=RS41-SGP batt=2.9V Details on http://radiosondy.info
WA9ONY-10U22205572022-12-06 11:22:4244.8869-122.988102225671Clb=3.8m/s p=488.7hPa t=-25.0C h=17.4% 401.40MHz Type=RS41-SGP Join https://groups.io/g/Balloons
WA9ONY-14U22205572022-12-06 11:22:4044.8869-122.988109195660Clb=7.2m/s p=489.4hPa t=-24.9C h=17.1% 401.40MHz Type=RS41-SGP Join https://groups.io/g/Balloons
K6GDP-14U22205572022-12-06 11:22:3344.887-122.988119155619Clb=5.8m/s p=492.2hPa t=-24.5C h=17.1% 401.40MHz Type=RS41-SGP TxPastBurst=8h30m batt=2.9V Details on http://radiosondy.info
WA9ONY-10U22205572022-12-06 11:22:3244.8871-122.989125155614Clb=5.5m/s p=492.5hPa t=-24.5C h=17.0% 401.40MHz Type=RS41-SGP TxPastBurst=8h30m batt=2.9V Join https://groups.io/g/Balloons
WA9ONY-14U22205572022-12-06 11:22:3044.8871-122.989151155605Clb=4.4m/s p=493.2hPa t=-24.4C h=17.0% 401.40MHz Type=RS41-SGP TxPastBurst=8h30m batt=2.9V Join https://groups.io/g/Balloons
KJ7NUX-14U22205572022-12-06 11:22:2844.8872-122.989158205597Clb=2.6m/s p=493.8hPa t=-24.3C h=17.1% 401.40MHz Type=RS41-SGP Details on http://radiosondy.info
K6GDP-11U22205572022-12-06 11:22:2544.8873-122.989157175581Clb=8.4m/s t=-24.2C h=15.9% p=494.8hPa 401.400 MHz Type=RS41-SGP ser=U2220557 Radiosonde
WA9ONY-10U22205572022-12-06 11:22:2244.8874-122.98992195565Clb=4.6m/s p=495.9hPa t=-24.1C h=16.7% 401.40MHz Type=RS41-SGP Join https://groups.io/g/Balloons
WA9ONY-14U22205572022-12-06 11:22:2044.8874-122.98978245555Clb=5.4m/s p=496.5hPa t=-24.0C h=16.7% 401.40MHz Type=RS41-SGP Join https://groups.io/g/Balloons
W7BDB-13U22205572022-12-06 11:22:1944.8874-122.989141335544Clb=4.8m/s p=497.2hPa t=-23.9C h=17.0% 401.40MHz Type=RS41-SGP batt=2.9V Details on http://radiosondy.info
KE7WWCU22205572022-12-06 11:22:1344.8876-122.989138375519Clb=5.0m/s t=-273.0C h=-1.0% p=499.0hPa 401.374 MHz Type=RS41-SGP ser=U2220557 Radiosonde
KJ7NUX-14U22205572022-12-06 11:22:1144.8878-122.989151375502Clb=6.3m/s p=500.1hPa t=-23.6C h=16.8% 401.40MHz Type=RS41-SGP Details on http://radiosondy.info
W7BDB-13U22205572022-12-06 11:22:0244.8884-122.99146355458Clb=4.3m/s p=503.0hPa t=-23.2C h=17.0% 401.40MHz Type=RS41-SGP Details on http://radiosondy.info
K6GDP-14U22205572022-12-06 11:22:0044.8886-122.99133355450Clb=3.8m/s p=503.7hPa t=-23.1C h=17.0% 401.40MHz Type=RS41-SGP Details on http://radiosondy.info
KJ7NUX-14U22205572022-12-06 11:21:5444.8889-122.991137305419Clb=6.6m/s p=505.7hPa t=-22.8C h=16.9% 401.40MHz Type=RS41-SGP TxPastBurst=8h30m batt=2.9V Details on http://radiosondy.info
WA9ONY-10U22205572022-12-06 11:21:5244.889-122.991143285408Clb=5.6m/s p=506.5hPa t=-22.8C h=17.3% 401.40MHz Type=RS41-SGP Join https://groups.io/g/Balloons
W7BDB-13U22205572022-12-06 11:21:5144.8893-122.991153285381Clb=5.5m/s p=508.5hPa t=-22.6C h=17.5% 401.40MHz Type=RS41-SGP Details on http://radiosondy.info
WA9ONY-14U22205572022-12-06 11:21:5044.8901-122.992202225304Clb=7.0m/s p=513.8hPa t=-22.2C h=20.4% 401.40MHz Type=RS41-SGP batt=2.9V Join https://groups.io/g/Balloons
K6GDP-11U22205572022-12-06 11:21:4644.8904-122.992150355265Clb=4.8m/s t=-22.0C h=21.2% p=516.4hPa 401.400 MHz Type=RS41-SGP ser=U2220557 Radiosonde
KJ7NUX-14U22205572022-12-06 11:21:4444.8906-122.992141195252Clb=4.3m/s p=517.4hPa t=-21.9C h=22.2% 401.40MHz Type=RS41-SGP Details on http://radiosondy.info
W7BDB-13U22205572022-12-06 11:21:3944.8908-122.993140195225Clb=4.4m/s p=519.3hPa t=-21.7C h=23.1% 401.40MHz Type=RS41-SGP Details on http://radiosondy.info
WA9ONY-10U22205572022-12-06 11:21:3544.8909-122.993141175210Clb=6.7m/s p=520.5hPa t=-21.7C h=23.7% 401.40MHz Type=RS41-SGP Join https://groups.io/g/Balloons
WA9ONY-14U22205572022-12-06 11:21:3144.891-122.993125155198Clb=4.2m/s p=521.3hPa t=-21.7C h=24.6% 401.40MHz Type=RS41-SGP Join https://groups.io/g/Balloons
KJ7NUX-14U22205572022-12-06 11:21:2444.8912-122.993169155171Clb=7.3m/s p=523.2hPa t=-21.5C h=26.1% 401.40MHz Type=RS41-SGP batt=2.9V Details on http://radiosondy.info
WA9ONY-10U22205572022-12-06 11:21:2144.8912-122.993114205160Clb=5.5m/s p=524.0hPa t=-21.5C h=27.3% 401.40MHz Type=RS41-SGP TxPastBurst=8h30m batt=2.9V Join https://groups.io/g/Balloons
WA9ONY-14U22205572022-12-06 11:21:1944.8913-122.993123205149Clb=5.8m/s p=524.8hPa t=-21.5C h=29.6% 401.40MHz Type=RS41-SGP TxPastBurst=8h30m batt=2.9V Join https://groups.io/g/Balloons
W7BDB-13U22205572022-12-06 11:21:1544.8913-122.993136195138Clb=4.8m/s p=525.5hPa t=-21.5C h=31.3% 401.40MHz Type=RS41-SGP Details on http://radiosondy.info
KG7GDB-12U22205572022-12-06 11:21:1444.8914-122.993139195133Clb=6.0m/s t=-21.5C h=31.1% p=525.8hPa 401.401 MHz Type=RS41-SGP ser=U2220557 Radiosonde
WA9ONY-10U22205572022-12-06 11:21:0744.8915-122.99493175106Clb=4.3m/s p=527.9hPa t=-21.4C h=33.8% 401.40MHz Type=RS41-SGP Join https://groups.io/g/Balloons
WA9ONY-14U22205572022-12-06 11:21:0444.8915-122.994140175099Clb=4.3m/s p=528.4hPa t=-21.3C h=34.0% 401.40MHz Type=RS41-SGP Join https://groups.io/g/Balloons
KJ7NUX-14U22205572022-12-06 11:21:0144.8915-122.994212195089Clb=5.0m/s p=529.1hPa t=-21.2C h=34.2% 401.40MHz Type=RS41-SGP Details on http://radiosondy.info
W7BDB-13U22205572022-12-06 11:20:5444.8918-122.994134195054Clb=5.3m/s p=531.5hPa t=-21.0C h=34.8% 401.40MHz Type=RS41-SGP TxPastBurst=8h30m batt=2.9V Details on http://radiosondy.info
WA9ONY-14U22205572022-12-06 11:20:5144.8919-122.994153175041Clb=7.6m/s p=532.4hPa t=-21.0C h=35.3% 401.40MHz Type=RS41-SGP Join https://groups.io/g/Balloons
K6GDP-14U22205572022-12-06 11:20:4544.8921-122.994177175015Clb=4.0m/s p=534.3hPa t=-20.8C h=36.3% 401.40MHz Type=RS41-SGP Details on http://radiosondy.info
WA9ONY-10U22205572022-12-06 11:20:4144.8922-122.994146205001Clb=4.3m/s p=535.4hPa t=-20.8C h=36.6% 401.40MHz Type=RS41-SGP batt=2.9V Join https://groups.io/g/Balloons
KJ7NUX-14U22205572022-12-06 11:20:3844.8922-122.994124204993Clb=3.9m/s p=535.9hPa t=-20.7C h=36.8% 401.40MHz Type=RS41-SGP Details on http://radiosondy.info
KG7GDB-12U22205572022-12-06 11:20:3344.8925-122.994187244968Clb=7.9m/s t=-20.6C h=37.3% p=537.7hPa 401.401 MHz Type=RS41-SGP ser=U2220557 Radiosonde
WA9ONY-10U22205572022-12-06 11:20:2844.8926-122.994147194951Clb=6.0m/s p=539.1hPa t=-20.5C h=39.5% 401.40MHz Type=RS41-SGP Join https://groups.io/g/Balloons
K6GDP-11U22205572022-12-06 11:20:2644.8926-122.994128194945Clb=5.5m/s t=-20.5C h=38.4% p=539.5hPa 401.400 MHz Type=RS41-SGP ser=U2220557 Radiosonde
WA9ONY-14U22205572022-12-06 11:20:2544.8927-122.994121174939Clb=5.7m/s p=539.7hPa t=-20.5C h=38.6% 401.40MHz Type=RS41-SGP Join https://groups.io/g/Balloons
KJ7NUX-14U22205572022-12-06 11:20:1844.8928-122.995218174912Clb=5.1m/s p=541.9hPa t=-20.2C h=38.1% 401.40MHz Type=RS41-SGP batt=2.7V Details on http://radiosondy.info
WA9ONY-10U22205572022-12-06 11:20:1544.8929-122.995236134902Clb=5.5m/s p=542.6hPa t=-20.1C h=37.7% 401.40MHz Type=RS41-SGP Join https://groups.io/g/Balloons
W7BDB-13U22205572022-12-06 11:20:1444.8929-122.994244154897Clb=4.0m/s p=542.9hPa t=-20.1C h=37.7% 401.40MHz Type=RS41-SGP Details on http://radiosondy.info
K6GDP-14U22205572022-12-06 11:20:1244.8929-122.99470114894Clb=4.0m/s p=543.1hPa t=-20.1C h=37.5% 401.40MHz Type=RS41-SGP Details on http://radiosondy.info
WA9ONY-10U22205572022-12-06 11:20:0244.8931-122.995191134849Clb=7.1m/s p=546.4hPa t=-19.7C h=35.9% 401.40MHz Type=RS41-SGP batt=2.7V Join https://groups.io/g/Balloons
WA9ONY-14U22205572022-12-06 11:20:0044.8932-122.995188134838Clb=5.7m/s p=547.3hPa t=-19.7C h=35.2% 401.40MHz Type=RS41-SGP batt=2.9V Join https://groups.io/g/Balloons
KG7GDB-12U22205572022-12-06 11:19:5544.8934-122.995205134807Clb=8.8m/s t=-19.7C h=35.5% p=549.6hPa 401.401 MHz Type=RS41-SGP ser=U2220557 Radiosonde
KJ7NUX-14U22205572022-12-06 11:19:5444.8934-122.995233134800Clb=5.8m/s p=550.2hPa t=-19.6C h=36.5% 401.40MHz Type=RS41-SGP Details on http://radiosondy.info
WA9ONY-10U22205572022-12-06 11:19:5244.8934-122.99553134785Clb=7.2m/s p=551.1hPa t=-19.5C h=36.5% 401.40MHz Type=RS41-SGP Join https://groups.io/g/Balloons
K6GDP-14U22205572022-12-06 11:19:5044.8934-122.995104154775Clb=6.3m/s p=552.0hPa t=-19.4C h=37.2% 401.40MHz Type=RS41-SGP batt=2.7V Details on http://radiosondy.info
WA9ONY-10U22205572022-12-06 11:19:4244.8936-122.995122194724Clb=7.0m/s p=555.7hPa t=-19.3C h=43.5% 401.40MHz Type=RS41-SGP Join https://groups.io/g/Balloons
WA9ONY-14U22205572022-12-06 11:19:4044.8937-122.995147204711Clb=5.5m/s p=556.8hPa t=-19.3C h=45.0% 401.40MHz Type=RS41-SGP Join https://groups.io/g/Balloons
KJ7NUX-14U22205572022-12-06 11:19:3844.8938-122.995162204701Clb=5.7m/s p=557.4hPa t=-19.2C h=47.2% 401.40MHz Type=RS41-SGP Details on http://radiosondy.info
K6GDP-14U22205572022-12-06 11:19:3444.8939-122.995134154676Clb=7.1m/s p=559.4hPa t=-19.2C h=47.8% 401.40MHz Type=RS41-SGP Details on http://radiosondy.info
WA9ONY-10U22205572022-12-06 11:19:3244.894-122.995174204664Clb=5.7m/s p=560.3hPa t=-19.2C h=50.0% 401.40MHz Type=RS41-SGP TxPastBurst=8h30m batt=2.9V Join https://groups.io/g/Balloons
WA9ONY-14U22205572022-12-06 11:19:3044.8941-122.995204204653Clb=5.7m/s p=561.1hPa t=-19.1C h=50.6% 401.40MHz Type=RS41-SGP TxPastBurst=8h30m batt=2.9V Join https://groups.io/g/Balloons
KG7GDB-12U22205572022-12-06 11:19:2444.8943-122.995147204620Clb=6.4m/s t=-18.9C h=49.4% p=563.6hPa 401.401 MHz Type=RS41-SGP ser=U2220557 Radiosonde
W7BDB-13U22205572022-12-06 11:19:2244.8944-122.995169204609Clb=6.5m/s p=564.4hPa t=-18.8C h=49.7% 401.40MHz Type=RS41-SGP Details on http://radiosondy.info
WA9ONY-14U22205572022-12-06 11:19:2044.8945-122.995191174597Clb=6.3m/s p=565.2hPa t=-18.7C h=49.6% 401.40MHz Type=RS41-SGP Join https://groups.io/g/Balloons
K6GDP-11U22205572022-12-06 11:19:1944.8946-122.995198244592Clb=5.1m/s t=-18.7C h=49.0% p=565.8hPa 401.400 MHz Type=RS41-SGP ser=U2220557 Radiosonde
WA9ONY-10U22205572022-12-06 11:19:1244.8948-122.995181154554Clb=6.9m/s p=568.5hPa t=-18.3C h=48.6% 401.40MHz Type=RS41-SGP Join https://groups.io/g/Balloons
WA9ONY-14U22205572022-12-06 11:19:1044.8949-122.995199154543Clb=5.5m/s p=569.4hPa t=-18.2C h=48.7% 401.40MHz Type=RS41-SGP Join https://groups.io/g/Balloons
KJ7NUX-14U22205572022-12-06 11:19:0644.895-122.995190244522Clb=4.8m/s p=571.0hPa t=-18.1C h=47.5% 401.40MHz Type=RS41-SGP Details on http://radiosondy.info
WA9ONY-10U22205572022-12-06 11:19:0244.8952-122.995162284504Clb=5.1m/s p=572.4hPa t=-17.9C h=47.8% 401.40MHz Type=RS41-SGP batt=2.9V Join https://groups.io/g/Balloons
WA9ONY-14U22205572022-12-06 11:19:0044.8953-122.995148304490Clb=9.6m/s p=573.3hPa t=-17.7C h=46.6% 401.40MHz Type=RS41-SGP batt=2.9V Join https://groups.io/g/Balloons
KG7GDB-12U22205572022-12-06 11:18:5344.8957-122.995171354442Clb=7.0m/s t=-17.4C h=45.1% p=577.2hPa 401.401 MHz Type=RS41-SGP ser=U2220557 Radiosonde
WA9ONY-10U22205572022-12-06 11:18:5244.8958-122.995160284437Clb=5.2m/s p=577.6hPa t=-17.3C h=46.0% 401.40MHz Type=RS41-SGP Join https://groups.io/g/Balloons
KJ7NUX-14U22205572022-12-06 11:18:5044.896-122.995152284426Clb=5.8m/s p=578.4hPa t=-17.2C h=45.8% 401.40MHz Type=RS41-SGP Details on http://radiosondy.info
K6GDP-11U22205572022-12-06 11:18:4844.8961-122.996191194409Clb=7.2m/s t=-17.1C h=43.9% p=579.6hPa 401.400 MHz Type=RS41-SGP ser=U2220557 Radiosonde
WA9ONY-10U22205572022-12-06 11:18:4244.8964-122.995170264379Clb=4.9m/s p=582.0hPa t=-16.8C h=43.8% 401.40MHz Type=RS41-SGP Join https://groups.io/g/Balloons
K6GDP-14U22205572022-12-06 11:18:4044.8966-122.995153334364Clb=7.6m/s p=583.1hPa t=-16.7C h=45.7% 401.40MHz Type=RS41-SGP TxPastBurst=8h30m batt=2.9V Details on http://radiosondy.info
W7BDB-13U22205572022-12-06 11:18:3544.8969-122.996141284342Clb=4.1m/s p=584.9hPa t=-16.6C h=47.4% 401.40MHz Type=RS41-SGP Details on http://radiosondy.info
KJ7NUX-14U22205572022-12-06 11:18:3444.8969-122.996148284337Clb=4.3m/s p=585.3hPa t=-16.5C h=47.7% 401.40MHz Type=RS41-SGP batt=2.9V Details on http://radiosondy.info
WA9ONY-10U22205572022-12-06 11:18:3244.897-122.996177314328Clb=5.3m/s p=586.0hPa t=-16.5C h=48.2% 401.40MHz Type=RS41-SGP batt=2.9V Join https://groups.io/g/Balloons
WA9ONY-14U22205572022-12-06 11:18:3044.8972-122.996178314317Clb=5.6m/s p=586.8hPa t=-16.4C h=47.9% 401.40MHz Type=RS41-SGP batt=2.9V Join https://groups.io/g/Balloons
K6GDP-14U22205572022-12-06 11:18:2544.8976-122.996171284291Clb=6.2m/s p=588.9hPa t=-16.2C h=48.4% 401.40MHz Type=RS41-SGP Details on http://radiosondy.info
KG7GDB-12U22205572022-12-06 11:18:2244.8978-122.996198284274Clb=4.0m/s t=-16.1C h=48.0% p=590.2hPa 401.401 MHz Type=RS41-SGP ser=U2220557 Radiosonde
W7BDB-13U22205572022-12-06 11:18:2044.8979-122.996196304267Clb=5.1m/s p=590.8hPa t=-16.0C h=49.0% 401.40MHz Type=RS41-SGP TxPastBurst=8h30m batt=2.9V Details on http://radiosondy.info
KJ7NUX-14U22205572022-12-06 11:18:1844.898-122.996157284256Clb=5.8m/s p=591.6hPa t=-16.0C h=49.6% 401.40MHz Type=RS41-SGP Details on http://radiosondy.info
K6GDP-11U22205572022-12-06 11:18:1744.8982-122.996140304239Clb=4.6m/s t=-16.0C h=50.1% p=592.9hPa 401.400 MHz Type=RS41-SGP ser=U2220557 Radiosonde
WA9ONY-10U22205572022-12-06 11:18:1244.8984-122.996150284225Clb=8.2m/s p=594.1hPa t=-15.9C h=51.9% 401.40MHz Type=RS41-SGP Join https://groups.io/g/Balloons
WA9ONY-14U22205572022-12-06 11:18:1044.8985-122.996163264208Clb=8.4m/s p=595.3hPa t=-15.9C h=55.7% 401.40MHz Type=RS41-SGP Join https://groups.io/g/Balloons
K6GDP-14U22205572022-12-06 11:18:0944.8986-122.996173264201Clb=6.9m/s p=595.9hPa t=-15.9C h=58.8% 401.40MHz Type=RS41-SGP Details on http://radiosondy.info
W7BDB-13U22205572022-12-06 11:18:0444.8989-122.996147264172Clb=5.6m/s p=598.1hPa t=-15.8C h=57.1% 401.40MHz Type=RS41-SGP Details on http://radiosondy.info
WA9ONY-10U22205572022-12-06 11:18:0244.899-122.996159264160Clb=6.6m/s p=599.1hPa t=-15.7C h=57.2% 401.40MHz Type=RS41-SGP TxPastBurst=8h30m batt=2.9V Join https://groups.io/g/Balloons
KJ7NUX-14U22205572022-12-06 11:18:0044.8992-122.997188284150Clb=5.3m/s p=599.9hPa t=-15.6C h=57.0% 401.40MHz Type=RS41-SGP Details on http://radiosondy.info
K6GDP-14U22205572022-12-06 11:17:5344.8996-122.996189284110Clb=7.6m/s p=603.2hPa t=-15.3C h=52.0% 401.40MHz Type=RS41-SGP batt=2.7V Details on http://radiosondy.info
WA9ONY-10U22205572022-12-06 11:17:5244.8996-122.996175314103Clb=6.2m/s p=603.8hPa t=-15.3C h=52.5% 401.40MHz Type=RS41-SGP Join https://groups.io/g/Balloons
KG7GDB-12U22205572022-12-06 11:17:5144.8997-122.996167304097Clb=4.9m/s t=-15.3C h=51.9% p=604.1hPa 401.401 MHz Type=RS41-SGP ser=U2220557 Radiosonde
WA9ONY-14U22205572022-12-06 11:17:5044.8998-122.996163334093Clb=5.7m/s p=604.4hPa t=-15.2C h=51.9% 401.40MHz Type=RS41-SGP Join https://groups.io/g/Balloons
W7BDB-13U22205572022-12-06 11:17:4944.8999-122.996151304082Clb=4.1m/s p=605.3hPa t=-15.2C h=53.0% 401.40MHz Type=RS41-SGP Details on http://radiosondy.info
K6GDP-11U22205572022-12-06 11:17:4644.9001-122.997159334069Clb=5.6m/s t=-15.2C h=52.6% p=606.4hPa 401.400 MHz Type=RS41-SGP ser=U2220557 Radiosonde
KJ7NUX-14U22205572022-12-06 11:17:4444.9002-122.997171284064Clb=5.2m/s p=606.8hPa t=-15.1C h=52.7% 401.40MHz Type=RS41-SGP batt=2.9V Details on http://radiosondy.info
WA9ONY-10U22205572022-12-06 11:17:4244.9004-122.997191264054Clb=5.9m/s p=607.6hPa t=-15.0C h=50.7% 401.40MHz Type=RS41-SGP Join https://groups.io/g/Balloons
WA9ONY-14U22205572022-12-06 11:17:4044.9005-122.997208284044Clb=6.4m/s p=608.3hPa t=-15.0C h=49.2% 401.40MHz Type=RS41-SGP Join https://groups.io/g/Balloons
K6GDP-14U22205572022-12-06 11:17:3744.9006-122.996157264022Clb=5.2m/s p=610.0hPa t=-14.9C h=48.5% 401.40MHz Type=RS41-SGP Details on http://radiosondy.info
W7BDB-13U22205572022-12-06 11:17:3344.9011-122.997168263986Clb=4.5m/s p=613.1hPa t=-14.8C h=48.5% 401.40MHz Type=RS41-SGP batt=2.9V Details on http://radiosondy.info
K6GDP-11U22205572022-12-06 11:17:3044.9021-122.997181353902Clb=5.2m/s t=-14.2C h=48.1% p=620.0hPa 401.400 MHz Type=RS41-SGP ser=U2220557 Radiosonde
WA9ONY-10U22205572022-12-06 11:17:2844.9023-122.997160223892Clb=6.2m/s p=620.8hPa t=-14.0C h=48.9% 401.40MHz Type=RS41-SGP Join https://groups.io/g/Balloons
WA9ONY-14U22205572022-12-06 11:17:2744.9024-122.997140223881Clb=6.8m/s p=621.7hPa t=-14.0C h=49.3% 401.40MHz Type=RS41-SGP Join https://groups.io/g/Balloons
K6GDP-14U22205572022-12-06 11:17:2344.9027-122.997194263843Clb=7.8m/s p=624.9hPa t=-13.8C h=52.2% 401.40MHz Type=RS41-SGP batt=2.9V Details on http://radiosondy.info
WA9ONY-10U22205572022-12-06 11:17:2244.9028-122.997180223836Clb=6.9m/s p=625.4hPa t=-13.7C h=51.9% 401.40MHz Type=RS41-SGP batt=2.9V Join https://groups.io/g/Balloons
WA9ONY-14U22205572022-12-06 11:17:1944.9029-122.997158223825Clb=5.6m/s p=626.3hPa t=-13.7C h=51.8% 401.40MHz Type=RS41-SGP batt=2.9V Join https://groups.io/g/Balloons
W7BDB-13U22205572022-12-06 11:17:1844.903-122.997156263819Clb=7.2m/s p=626.8hPa t=-13.7C h=53.5% 401.40MHz Type=RS41-SGP Details on http://radiosondy.info
KJ7NUX-14U22205572022-12-06 11:17:1144.9032-122.997203303787Clb=4.8m/s p=629.5hPa t=-13.5C h=54.8% 401.40MHz Type=RS41-SGP TxPastBurst=8h30m batt=2.9V Details on http://radiosondy.info
WA9ONY-10U22205572022-12-06 11:17:0944.9033-122.997198313778Clb=5.1m/s p=630.3hPa t=-13.4C h=55.1% 401.40MHz Type=RS41-SGP Join https://groups.io/g/Balloons
WA9ONY-14U22205572022-12-06 11:17:0644.9035-122.997184313769Clb=4.8m/s p=630.8hPa t=-13.4C h=55.8% 401.40MHz Type=RS41-SGP Join https://groups.io/g/Balloons
KG7GDB-12U22205572022-12-06 11:17:0544.9035-122.997179303765Clb=4.2m/s t=-13.4C h=55.5% p=631.3hPa 401.401 MHz Type=RS41-SGP ser=U2220557 Radiosonde
K6GDP-14U22205572022-12-06 11:16:5844.9039-122.997188243741Clb=5.3m/s p=633.3hPa t=-13.2C h=55.2% 401.40MHz Type=RS41-SGP Details on http://radiosondy.info
W7BDB-13U22205572022-12-06 11:16:5644.904-122.997180193732Clb=5.2m/s p=634.1hPa t=-13.2C h=55.4% 401.40MHz Type=RS41-SGP batt=2.9V Details on http://radiosondy.info
WA9ONY-10U22205572022-12-06 11:16:5544.9041-122.997172193727Clb=4.6m/s p=634.2hPa t=-13.2C h=56.6% 401.40MHz Type=RS41-SGP Join https://groups.io/g/Balloons
WA9ONY-14U22205572022-12-06 11:16:5144.9042-122.997157173718Clb=4.4m/s p=635.2hPa t=-13.1C h=57.6% 401.40MHz Type=RS41-SGP Join https://groups.io/g/Balloons
KJ7NUX-14U22205572022-12-06 11:16:4944.9043-122.997144173709Clb=4.7m/s p=635.7hPa t=-13.1C h=58.6% 401.40MHz Type=RS41-SGP Details on http://radiosondy.info
WA9ONY-10U22205572022-12-06 11:16:4244.9045-122.997157173679Clb=6.0m/s p=638.5hPa t=-12.9C h=58.6% 401.40MHz Type=RS41-SGP TxPastBurst=8h30m batt=2.9V Join https://groups.io/g/Balloons
WA9ONY-14U22205572022-12-06 11:16:3944.9046-122.997139153667Clb=7.0m/s p=639.4hPa t=-12.8C h=58.1% 401.40MHz Type=RS41-SGP TxPastBurst=8h30m batt=2.9V Join https://groups.io/g/Balloons
K6GDP-14U22205572022-12-06 11:16:3744.9046-122.997135173660Clb=6.9m/s p=640.1hPa t=-12.8C h=57.8% calibration 98% 401.40MHz Type=RS41-SGP Details on http://radiosondy.info
W7BDB-13U22205572022-12-06 11:16:3244.9047-122.997209173640Clb=6.4m/s p=641.6hPa t=-12.6C h=57.3% 401.40MHz Type=RS41-SGP Details on http://radiosondy.info
KJ7NUX-14U22205572022-12-06 11:16:2944.9049-122.997188203624Clb=5.7m/s p=642.9hPa t=-12.5C h=57.6% 401.40MHz Type=RS41-SGP Details on http://radiosondy.info
WA9ONY-10U22205572022-12-06 11:16:2844.9049-122.997188153624Clb=5.7m/s p=642.9hPa t=-12.5C h=57.6% 401.40MHz Type=RS41-SGP Join https://groups.io/g/Balloons
WA9ONY-14U22205572022-12-06 11:16:2544.9049-122.997127173616Clb=4.7m/s p=643.7hPa t=-12.5C h=57.8% 401.40MHz Type=RS41-SGP Join https://groups.io/g/Balloons
KG7GDB-12U22205572022-12-06 11:16:2244.9049-122.997133113601Clb=4.5m/s t=-12.5C h=58.1% p=645.0hPa 401.401 MHz Type=RS41-SGP ser=U2220557 Radiosonde
W7BDB-12U22205572022-12-06 11:16:2144.905-122.997186133591Clb=6.7m/s t=-12.4C h=57.6% p=645.9hPa 401.399 MHz Type=RS41-SGP ser=U2220557 Radiosonde
K6GDP-11U22205572022-12-06 11:16:1544.9052-122.997174263573Clb=6.4m/s t=-12.3C h=57.5% p=647.3hPa 401.400 MHz Type=RS41-SGP ser=U2220557 Radiosonde
WA9ONY-10U22205572022-12-06 11:16:1444.9052-122.997175283573Clb=6.4m/s p=647.2hPa t=-12.2C h=57.9% 401.40MHz Type=RS41-SGP Join https://groups.io/g/Balloons
WA9ONY-14U22205572022-12-06 11:16:1144.9053-122.997152283563Clb=6.3m/s p=647.9hPa t=-12.1C h=57.4% 401.40MHz Type=RS41-SGP Join https://groups.io/g/Balloons
W7BDB-13U22205572022-12-06 11:16:1044.9053-122.998143263556Clb=6.3m/s p=648.6hPa t=-12.1C h=57.2% 401.40MHz Type=RS41-SGP Details on http://radiosondy.info
KJ7NUX-14U22205572022-12-06 11:16:0744.9055-122.998146223541Clb=5.8m/s p=650.2hPa t=-12.0C h=57.5% 401.40MHz Type=RS41-SGP batt=2.9V Details on http://radiosondy.info
WA9ONY-10U22205572022-12-06 11:16:0344.9058-122.998210203521Clb=5.8m/s p=651.8hPa t=-11.8C h=57.1% 401.40MHz Type=RS41-SGP batt=2.9V Join https://groups.io/g/Balloons
WA9ONY-14U22205572022-12-06 11:16:0044.9058-122.998228203508Clb=5.2m/s p=652.9hPa t=-11.7C h=56.7% 401.40MHz Type=RS41-SGP batt=2.9V Join https://groups.io/g/Balloons
W7BDB-13U22205572022-12-06 11:15:5344.9061-122.998171203473Clb=4.6m/s p=655.7hPa t=-11.4C h=55.8% 401.40MHz Type=RS41-SGP TxPastBurst=8h30m batt=2.9V Details on http://radiosondy.info
WA9ONY-10U22205572022-12-06 11:15:5244.9062-122.998179203467Clb=5.4m/s p=656.1hPa t=-11.3C h=56.0% 401.40MHz Type=RS41-SGP Join https://groups.io/g/Balloons
KJ7NUX-14U22205572022-12-06 11:15:5044.9063-122.998189193457Clb=5.0m/s p=657.0hPa t=-11.2C h=56.0% 401.40MHz Type=RS41-SGP Details on http://radiosondy.info
KG7GDB-12U22205572022-12-06 11:15:4744.9064-122.998129283432Clb=4.5m/s t=-11.1C h=54.9% p=659.3hPa 401.401 MHz Type=RS41-SGP ser=U2220557 Radiosonde
K6GDP-14U22205572022-12-06 11:15:4444.9065-122.998130223428Clb=5.1m/s p=659.5hPa t=-11.0C h=55.6% calibration 98% 401.40MHz Type=RS41-SGP TxPastBurst=8h30m batt=2.9V Details on http://radiosondy.info
WA9ONY-10U22205572022-12-06 11:15:4244.9066-122.998128243416Clb=6.0m/s p=660.7hPa t=-11.0C h=56.9% 401.40MHz Type=RS41-SGP Join https://groups.io/g/Balloons
WA9ONY-14U22205572022-12-06 11:15:4044.9066-122.998166223406Clb=4.7m/s p=661.6hPa t=-11.0C h=58.5% 401.40MHz Type=RS41-SGP Join https://groups.io/g/Balloons
W7BDB-13U22205572022-12-06 11:15:3844.9067-122.998192203395Clb=8.0m/s p=662.3hPa t=-11.0C h=59.5% 401.40MHz Type=RS41-SGP Details on http://radiosondy.info
KJ7NUX-14U22205572022-12-06 11:15:3444.907-122.999157193373Clb=4.0m/s p=664.5hPa t=-11.0C h=61.6% 401.40MHz Type=RS41-SGP Details on http://radiosondy.info
WA9ONY-10U22205572022-12-06 11:15:3244.9071-122.999145193363Clb=4.8m/s p=665.2hPa t=-11.0C h=62.1% 401.40MHz Type=RS41-SGP batt=2.9V Join https://groups.io/g/Balloons
WA9ONY-14U22205572022-12-06 11:15:3044.9072-122.999180173353Clb=5.1m/s p=666.1hPa t=-10.9C h=62.5% 401.40MHz Type=RS41-SGP batt=2.9V Join https://groups.io/g/Balloons
K6GDP-14U22205572022-12-06 11:15:2944.9072-122.999202193348Clb=6.1m/s p=666.7hPa t=-11.0C h=62.9% calibration 98% 401.40MHz Type=RS41-SGP Details on http://radiosondy.info
W7BDB-13U22205572022-12-06 11:15:2344.9075-122.999137173316Clb=4.6m/s p=669.4hPa t=-10.7C h=62.3% 401.40MHz Type=RS41-SGP Details on http://radiosondy.info
WA9ONY-10U22205572022-12-06 11:15:2244.9075-122.999130173311Clb=5.3m/s p=669.8hPa t=-10.7C h=62.2% 401.40MHz Type=RS41-SGP Join https://groups.io/g/Balloons
WA9ONY-14U22205572022-12-06 11:15:2044.9075-122.999199193302Clb=3.8m/s p=670.7hPa t=-10.6C h=62.2% 401.40MHz Type=RS41-SGP Join https://groups.io/g/Balloons
KJ7NUX-14U22205572022-12-06 11:15:1844.9076-122.999200153292Clb=5.3m/s p=671.4hPa t=-10.5C h=61.8% 401.40MHz Type=RS41-SGP batt=2.9V Details on http://radiosondy.info
KG7GDB-12U22205572022-12-06 11:15:1644.9078-122.999162263278Clb=4.3m/s t=-10.5C h=62.2% p=672.8hPa 401.401 MHz Type=RS41-SGP ser=U2220557 Radiosonde
W7BDB-12U22205572022-12-06 11:15:1544.9079-122.999149173267Clb=6.5m/s t=-10.4C h=62.4% p=673.6hPa 401.399 MHz Type=RS41-SGP ser=U2220557 Radiosonde
K6GDP-14U22205572022-12-06 11:15:1344.9079-122.999150153267Clb=6.5m/s p=673.6hPa t=-10.4C h=62.6% calibration 98% 401.40MHz Type=RS41-SGP Details on http://radiosondy.info
WA9ONY-10U22205572022-12-06 11:15:1244.9079-122.999161113262Clb=5.6m/s p=674.0hPa t=-10.3C h=63.1% 401.40MHz Type=RS41-SGP Join https://groups.io/g/Balloons
WA9ONY-14U22205572022-12-06 11:15:1044.908-122.999199133250Clb=8.0m/s p=675.1hPa t=-10.2C h=62.9% 401.40MHz Type=RS41-SGP Join https://groups.io/g/Balloons
W7BDB-13U22205572022-12-06 11:15:0744.908-122.999217193231Clb=7.9m/s p=676.7hPa t=-10.1C h=61.8% 401.40MHz Type=RS41-SGP batt=2.9V Details on http://radiosondy.info
KJ7NUX-14U22205572022-12-06 11:15:0244.9082-122.999174193203Clb=5.7m/s p=679.1hPa t=-9.8C h=59.6% 401.40MHz Type=RS41-SGP Details on http://radiosondy.info
WA9ONY-14U22205572022-12-06 11:15:0044.9083-122.999200203192Clb=6.0m/s p=680.2hPa t=-9.8C h=60.2% 401.40MHz Type=RS41-SGP TxPastBurst=8h30m batt=2.9V Join https://groups.io/g/Balloons
K6GDP-14U22205572022-12-06 11:14:5544.9085-122.999179203165Clb=4.9m/s p=682.5hPa t=-9.5C h=59.1% calibration 98% 401.40MHz Type=RS41-SGP batt=2.9V Details on http://radiosondy.info
WA9ONY-10U22205572022-12-06 11:14:5244.9087-122.999222193146Clb=4.5m/s p=684.2hPa t=-9.4C h=56.5% 401.40MHz Type=RS41-SGP Join https://groups.io/g/Balloons
W7BDB-13U22205572022-12-06 11:14:5144.9087-122.999226193142Clb=5.3m/s p=684.6hPa t=-9.3C h=55.9% 401.40MHz Type=RS41-SGP Details on http://radiosondy.info
WA9ONY-14U22205572022-12-06 11:14:5044.9087-122.999217203136Clb=4.5m/s p=684.9hPa t=-9.3C h=55.8% 401.40MHz Type=RS41-SGP Join https://groups.io/g/Balloons
KJ7NUX-14U22205572022-12-06 11:14:4644.9089-122.999161203117Clb=5.2m/s p=686.9hPa t=-9.1C h=54.5% 401.40MHz Type=RS41-SGP Details on http://radiosondy.info
KG7GDB-12U22205572022-12-06 11:14:4544.909-122.999181283106Clb=5.0m/s t=-9.1C h=53.3% p=687.9hPa 401.401 MHz Type=RS41-SGP ser=U2220557 Radiosonde
WA9ONY-10U22205572022-12-06 11:14:4244.9092-122.999204193096Clb=6.6m/s p=688.6hPa t=-9.0C h=54.4% 401.40MHz Type=RS41-SGP Join https://groups.io/g/Balloons
WA9ONY-14U22205572022-12-06 11:14:4044.9093-122.999208173085Clb=5.5m/s p=689.6hPa t=-8.9C h=54.1% 401.40MHz Type=RS41-SGP Join https://groups.io/g/Balloons
W7BDB-13U22205572022-12-06 11:14:3644.9094-122.999160193065Clb=4.7m/s p=691.5hPa t=-8.8C h=55.0% 401.40MHz Type=RS41-SGP Details on http://radiosondy.info
K6GDP-14U22205572022-12-06 11:14:3444.9095-122.999181193056Clb=5.4m/s p=692.3hPa t=-8.7C h=54.9% calibration 98% 401.40MHz Type=RS41-SGP Details on http://radiosondy.info
WA9ONY-10U22205572022-12-06 11:14:3244.9096-122.999188193044Clb=7.0m/s p=693.1hPa t=-8.6C h=54.6% 401.40MHz Type=RS41-SGP batt=2.9V Join https://groups.io/g/Balloons
KJ7NUX-14U22205572022-12-06 11:14:3044.9097-122.999157173032Clb=6.2m/s p=694.3hPa t=-8.5C h=54.2% 401.40MHz Type=RS41-SGP TxPastBurst=8h30m batt=2.9V Details on http://radiosondy.info
WA9ONY-10U22205572022-12-06 11:14:2244.91-122.999129152989Clb=5.9m/s p=698.2hPa t=-8.2C h=51.6% 401.40MHz Type=RS41-SGP Join https://groups.io/g/Balloons
W7BDB-13U22205572022-12-06 11:14:2044.9101-122.999141132978Clb=4.5m/s p=699.3hPa t=-8.0C h=51.4% 401.40MHz Type=RS41-SGP batt=2.9V Details on http://radiosondy.info
K6GDP-14U22205572022-12-06 11:14:1844.9101-122.999163112967Clb=6.6m/s p=700.2hPa t=-7.9C h=50.9% calibration 98% 401.40MHz Type=RS41-SGP Details on http://radiosondy.info
KJ7NUX-14U22205572022-12-06 11:14:1444.9103-122.999187112942Clb=5.6m/s p=702.4hPa t=-7.7C h=49.7% 401.40MHz Type=RS41-SGP Details on http://radiosondy.info
WA9ONY-10U22205572022-12-06 11:14:1244.9103-122.999187132932Clb=6.8m/s p=703.5hPa t=-7.6C h=49.2% 401.40MHz Type=RS41-SGP Join https://groups.io/g/Balloons
WA9ONY-14U22205572022-12-06 11:14:1044.9104-122.999199112917Clb=6.6m/s p=704.5hPa t=-7.5C h=48.7% 401.40MHz Type=RS41-SGP Join https://groups.io/g/Balloons
K6GDP-11U22205572022-12-06 11:14:0844.9104-122.99914172906Clb=5.0m/s t=-7.5C h=49.1% p=705.7hPa 401.400 MHz Type=RS41-SGP ser=U2220557 Radiosonde
W7BDB-13U22205572022-12-06 11:14:0544.9105-122.999146132894Clb=4.7m/s p=706.8hPa t=-7.4C h=49.4% 401.40MHz Type=RS41-SGP Details on http://radiosondy.info
WA9ONY-10U22205572022-12-06 11:14:0244.9106-122.999179112876Clb=5.0m/s p=708.4hPa t=-7.3C h=49.7% 401.40MHz Type=RS41-SGP batt=2.9V Join https://groups.io/g/Balloons
K6GDP-14U22205572022-12-06 11:14:0044.9106-122.999214132866Clb=4.2m/s p=709.4hPa t=-7.2C h=49.7% calibration 92% 401.40MHz Type=RS41-SGP batt=2.9V Details on http://radiosondy.info
KJ7NUX-14U22205572022-12-06 11:13:5844.9107-122.999180112856Clb=5.4m/s p=710.2hPa t=-7.2C h=49.8% 401.40MHz Type=RS41-SGP Details on http://radiosondy.info
WA9ONY-10U22205572022-12-06 11:13:5244.9108-122.99923792823Clb=4.2m/s p=713.3hPa t=-6.9C h=49.2% 401.40MHz Type=RS41-SGP Join https://groups.io/g/Balloons
WA9ONY-14U22205572022-12-06 11:13:5044.9109-122.99920192811Clb=7.2m/s p=714.3hPa t=-6.8C h=48.8% 401.40MHz Type=RS41-SGP Join https://groups.io/g/Balloons
W7BDB-13U22205572022-12-06 11:13:4944.9109-122.999163112806Clb=5.6m/s p=715.0hPa t=-6.7C h=48.8% 401.40MHz Type=RS41-SGP Details on http://radiosondy.info
K6GDP-14U22205572022-12-06 11:13:4544.911-122.99993152779Clb=8.1m/s p=717.3hPa t=-6.5C h=47.7% calibration 92% 401.40MHz Type=RS41-SGP Details on http://radiosondy.info
KG7GDB-12U22205572022-12-06 11:13:4344.911-122.99922362763Clb=4.8m/s t=-6.4C h=47.5% p=718.9hPa 401.401 MHz Type=RS41-SGP ser=U2220557 Radiosonde
KJ7NUX-14U22205572022-12-06 11:13:4244.911-122.999224172763Clb=4.8m/s p=718.8hPa t=-6.4C h=47.6% 401.40MHz Type=RS41-SGP batt=2.9V Details on http://radiosondy.info
WA9ONY-14U22205572022-12-06 11:13:4044.911-122.999174192754Clb=5.0m/s p=719.8hPa t=-6.3C h=47.5% 401.40MHz Type=RS41-SGP Join https://groups.io/g/Balloons
K6GDP-11U22205572022-12-06 11:13:3744.9112-122.999152152736Clb=4.7m/s t=-6.3C h=47.3% p=721.4hPa 401.400 MHz Type=RS41-SGP ser=U2220557 Radiosonde
W7BDB-13U22205572022-12-06 11:13:3444.9113-122.999192152719Clb=4.5m/s p=723.1hPa t=-6.2C h=50.1% 401.40MHz Type=RS41-SGP TxPastBurst=8h30m batt=2.9V Details on http://radiosondy.info
WA9ONY-10U22205572022-12-06 11:13:3244.9114-122.999173132707Clb=6.6m/s p=724.1hPa t=-6.2C h=49.8% 401.40MHz Type=RS41-SGP TxPastBurst=8h30m batt=2.9V Join https://groups.io/g/Balloons
K6GDP-14U22205572022-12-06 11:13:3044.9115-122.999124132697Clb=4.3m/s p=724.8hPa t=-6.1C h=50.2% calibration 92% 401.40MHz Type=RS41-SGP Details on http://radiosondy.info
KJ7NUX-14U22205572022-12-06 11:13:2644.9115-122.99914112677Clb=4.0m/s p=726.7hPa t=-6.0C h=49.9% 401.40MHz Type=RS41-SGP Details on http://radiosondy.info
WA9ONY-10U22205572022-12-06 11:13:2244.9115-122.999205132660Clb=4.9m/s p=728.4hPa t=-5.9C h=50.3% 401.40MHz Type=RS41-SGP Join https://groups.io/g/Balloons
WA9ONY-14U22205572022-12-06 11:13:2044.9116-122.999195112650Clb=4.1m/s p=729.3hPa t=-5.9C h=50.5% 401.40MHz Type=RS41-SGP Join https://groups.io/g/Balloons
W7BDB-13U22205572022-12-06 11:13:1844.9117-122.999204112641Clb=5.8m/s p=730.3hPa t=-5.8C h=50.9% 401.40MHz Type=RS41-SGP Details on http://radiosondy.info
K6GDP-14U22205572022-12-06 11:13:1444.9118-122.999347172616Clb=4.8m/s p=732.5hPa t=-5.7C h=50.5% calibration 90% 401.40MHz Type=RS41-SGP TxPastBurst=8h30m batt=2.9V Details on http://radiosondy.info
WA9ONY-10U22205572022-12-06 11:13:1244.9118-122.99961172607Clb=4.3m/s p=733.3hPa t=-5.6C h=50.3% 401.40MHz Type=RS41-SGP Join https://groups.io/g/Balloons
WA9ONY-14U22205572022-12-06 11:13:1044.9118-122.99986192600Clb=4.1m/s p=733.9hPa t=-5.6C h=50.0% 401.40MHz Type=RS41-SGP Join https://groups.io/g/Balloons
K6GDP-11U22205572022-12-06 11:13:0644.9118-122.999153152583Clb=4.9m/s t=-5.5C h=49.8% p=735.6hPa 401.400 MHz Type=RS41-SGP ser=U2220557 Radiosonde
WA9ONY-14U22205572022-12-06 11:13:0544.9121-122.999231152552Clb=4.2m/s p=738.4hPa t=-5.3C h=50.0% 401.40MHz Type=RS41-SGP batt=2.9V Join https://groups.io/g/Balloons
K6GDP-14U22205572022-12-06 11:13:0444.9121-122.999242132548Clb=4.0m/s p=739.0hPa calibration 90% 401.40MHz Type=RS41-SGP Details on http://radiosondy.info
KJ7NUX-14U22205572022-12-06 11:13:0144.9122-122.999150192524Clb=4.5m/s p=741.2hPa t=-5.1C h=51.0% 401.40MHz Type=RS41-SGP batt=2.9V Details on http://radiosondy.info
WA9ONY-10U22205572022-12-06 11:12:5944.9123-122.999202172510Clb=4.5m/s p=742.6hPa t=-5.0C h=50.6% 401.40MHz Type=RS41-SGP Join https://groups.io/g/Balloons
W7BDB-13U22205572022-12-06 11:12:5744.9124-122.999253152495Clb=6.2m/s p=744.0hPa t=-4.9C h=50.0% 401.40MHz Type=RS41-SGP batt=2.9V Details on http://radiosondy.info
K6GDP-14U22205572022-12-06 11:12:5144.9125-122.999158132469Clb=4.7m/s calibration 82% 401.40MHz Type=RS41-SGP Details on http://radiosondy.info
WA9ONY-10U22205572022-12-06 11:12:4944.9126-122.999180132460Clb=6.0m/s p=747.1hPa t=-4.6C h=51.0% 401.40MHz Type=RS41-SGP Join https://groups.io/g/Balloons
WA9ONY-14U22205572022-12-06 11:12:4844.9127-122.999192112454Clb=6.1m/s p=747.7hPa t=-4.5C h=51.3% 401.40MHz Type=RS41-SGP Join https://groups.io/g/Balloons
KJ7NUX-14U22205572022-12-06 11:12:4544.9128-122.999220112443Clb=5.6m/s p=748.8hPa t=-4.5C h=51.3% 401.40MHz Type=RS41-SGP Details on http://radiosondy.info
K6GDP-11U22205572022-12-06 11:12:4144.9128-122.99928642427Clb=5.0m/s t=-4.5C h=52.1% p=750.2hPa 401.400 MHz Type=RS41-SGP ser=U2220557 Radiosonde
WA9ONY-10U22205572022-12-06 11:12:3544.9128-122.999128112409Clb=5.5m/s p=752.1hPa t=-4.4C h=52.6% 401.40MHz Type=RS41-SGP batt=2.9V Join https://groups.io/g/Balloons
W7BDB-13U22205572022-12-06 11:12:3344.9128-122.999200152403Clb=7.1m/s p=752.5hPa t=-4.3C h=52.5% 401.40MHz Type=RS41-SGP Details on http://radiosondy.info
K6GDP-14U22205572022-12-06 11:12:2944.9129-122.999238152387Clb=4.9m/s calibration 78% 401.40MHz Type=RS41-SGP batt=2.9V Details on http://radiosondy.info
WA9ONY-10U22205572022-12-06 11:12:2244.913-122.999155152362Clb=5.4m/s p=756.6hPa t=-4.5C h=61.8% 401.40MHz Type=RS41-SGP Join https://groups.io/g/Balloons
KJ7NUX-14U22205572022-12-06 11:12:2144.9131-122.999168132355Clb=7.8m/s p=757.4hPa t=-4.5C h=62.8% 401.40MHz Type=RS41-SGP Details on http://radiosondy.info
W7BDB-13U22205572022-12-06 11:12:1544.9133-122.999164132327Clb=5.5m/s p=759.9hPa t=-4.4C h=59.9% 401.40MHz Type=RS41-SGP Details on http://radiosondy.info
K6GDP-14U22205572022-12-06 11:12:1244.9134-122.999185112303Clb=5.6m/s calibration 68% 401.40MHz Type=RS41-SGP Details on http://radiosondy.info
WA9ONY-14U22205572022-12-06 11:12:1144.9134-122.999206152298Clb=3.7m/s p=762.5hPa t=-4.3C h=59.9% 401.40MHz Type=RS41-SGP Join https://groups.io/g/Balloons
KG7GDB-12U22205572022-12-06 11:12:1044.9134-122.99921272294Clb=6.0m/s t=-4.3C h=60.2% p=763.1hPa 401.401 MHz Type=RS41-SGP ser=U2220557 Radiosonde
KJ7NUX-14U22205572022-12-06 11:12:0544.9136-122.999185202266Clb=5.2m/s p=765.9hPa t=-4.5C h=66.3% 401.40MHz Type=RS41-SGP TxPastBurst=8h30m batt=2.9V Details on http://radiosondy.info
WA9ONY-10U22205572022-12-06 11:12:0144.9137-122.999178192246Clb=6.2m/s p=767.7hPa t=-4.5C h=67.2% 401.40MHz Type=RS41-SGP TxPastBurst=8h30m batt=2.9V Join https://groups.io/g/Balloons
WA9ONY-14U22205572022-12-06 11:12:0044.9137-122.999177192239Clb=7.5m/s p=768.3hPa t=-4.5C h=67.6% 401.40MHz Type=RS41-SGP TxPastBurst=8h30m batt=2.9V Join https://groups.io/g/Balloons
W7BDB-13U22205572022-12-06 11:11:5944.9138-122.999177192234Clb=4.7m/s p=769.1hPa t=-4.5C h=68.2% 401.40MHz Type=RS41-SGP batt=2.9V Details on http://radiosondy.info
WA9ONY-10U22205572022-12-06 11:11:5144.9141-122.999153172190Clb=5.0m/s p=773.3hPa t=-4.5C h=65.3% 401.40MHz Type=RS41-SGP Join https://groups.io/g/Balloons
WA9ONY-14U22205572022-12-06 11:11:5044.9142-122.999170172185Clb=5.5m/s p=773.9hPa t=-4.5C h=65.0% 401.40MHz Type=RS41-SGP Join https://groups.io/g/Balloons
KJ7NUX-14U22205572022-12-06 11:11:4844.9143-122.999198172174Clb=6.7m/s p=775.0hPa t=-4.5C h=63.9% 401.40MHz Type=RS41-SGP Details on http://radiosondy.info
W7BDB-13U22205572022-12-06 11:11:4444.9143-122.99987172152Clb=4.9m/s p=777.0hPa t=-4.4C h=64.1% 401.40MHz Type=RS41-SGP Details on http://radiosondy.info
WA9ONY-10U22205572022-12-06 11:11:4144.9143-122.999128172138Clb=5.4m/s p=778.7hPa t=-4.3C h=63.7% 401.40MHz Type=RS41-SGP Join https://groups.io/g/Balloons
WA9ONY-14U22205572022-12-06 11:11:4044.9144-122.999145172134Clb=4.1m/s p=779.0hPa t=-4.3C h=63.6% 401.40MHz Type=RS41-SGP Join https://groups.io/g/Balloons
KG7GDB-12U22205572022-12-06 11:11:3844.9145-122.999164172125Clb=5.0m/s t=-4.3C h=63.7% p=780.1hPa 401.401 MHz Type=RS41-SGP ser=U2220557 Radiosonde
K6GDP-11U22205572022-12-06 11:11:3344.9145-122.999106172098Clb=7.1m/s t=-4.1C h=62.3% p=782.4hPa 401.400 MHz Type=RS41-SGP ser=U2220557 Radiosonde
KJ7NUX-14U22205572022-12-06 11:11:3244.9145-123122132092Clb=5.8m/s p=782.8hPa t=-4.0C h=63.0% 401.40MHz Type=RS41-SGP Details on http://radiosondy.info
WA9ONY-10U22205572022-12-06 11:11:3144.9146-123144112088Clb=4.8m/s p=783.5hPa t=-4.0C h=62.8% 401.40MHz Type=RS41-SGP batt=2.9V Join https://groups.io/g/Balloons
WA9ONY-14U22205572022-12-06 11:11:3044.9146-123157112082Clb=6.4m/s p=783.8hPa t=-3.9C h=62.6% 401.40MHz Type=RS41-SGP batt=2.9V Join https://groups.io/g/Balloons
W7BDB-13U22205572022-12-06 11:11:2844.9147-12319692072Clb=4.8m/s p=785.1hPa t=-3.9C h=64.1% 401.40MHz Type=RS41-SGP Details on http://radiosondy.info
WA9ONY-10U22205572022-12-06 11:11:2144.9147-12395112038Clb=5.0m/s p=788.3hPa t=-3.6C h=64.3% 401.40MHz Type=RS41-SGP Join https://groups.io/g/Balloons
K6GDP-14U22205572022-12-06 11:11:2044.9147-12310792033Clb=4.9m/s calibration 66% 401.40MHz Type=RS41-SGP Details on http://radiosondy.info
KJ7NUX-14U22205572022-12-06 11:11:1644.9147-1237972014Clb=4.8m/s p=790.6hPa t=-3.4C h=63.5% 401.40MHz Type=RS41-SGP batt=2.9V Details on http://radiosondy.info
W7BDB-13U22205572022-12-06 11:11:1344.9147-12313091994Clb=5.8m/s p=792.7hPa t=-3.3C h=61.1% 401.40MHz Type=RS41-SGP TxPastBurst=8h30m batt=2.9V Details on http://radiosondy.info
WA9ONY-10U22205572022-12-06 11:11:1144.9148-123157111982Clb=7.8m/s p=793.9hPa t=-3.2C h=56.0% 401.40MHz Type=RS41-SGP Join https://groups.io/g/Balloons
WA9ONY-14U22205572022-12-06 11:11:1044.9148-123162111976Clb=5.9m/s p=794.6hPa t=-3.2C h=54.5% 401.40MHz Type=RS41-SGP Join https://groups.io/g/Balloons
KG7GDB-12U22205572022-12-06 11:11:0744.9148-12389111951Clb=6.6m/s t=-3.3C h=54.7% p=797.1hPa 401.401 MHz Type=RS41-SGP ser=U2220557 Radiosonde
K6GDP-14U22205572022-12-06 11:11:0444.9148-12313771940Clb=4.7m/s calibration 58% 401.40MHz Type=RS41-SGP batt=2.9V Details on http://radiosondy.info
K6GDP-11U22205572022-12-06 11:11:0244.9148-1238521929Clb=6.2m/s t=-3.3C h=64.5% p=799.2hPa 401.400 MHz Type=RS41-SGP ser=U2220557 Radiosonde
KJ7NUX-14U22205572022-12-06 11:11:0044.9148-1238091918Clb=5.1m/s p=800.4hPa t=-3.1C h=64.5% 401.40MHz Type=RS41-SGP Details on http://radiosondy.info
W7BDB-13U22205572022-12-06 11:10:5744.9149-12314791901Clb=6.4m/s p=802.0hPa t=-3.1C h=64.6% 401.40MHz Type=RS41-SGP Details on http://radiosondy.info
K6GDP-14U22205572022-12-06 11:10:4944.9148-123.00144131856Clb=6.1m/s calibration 43% 401.40MHz Type=RS41 Details on http://radiosondy.info
KJ7NUX-14U22205572022-12-06 11:10:4444.9148-123.001124151828Clb=5.2m/s p=809.2hPa t=-2.7C h=64.6% 401.40MHz Type=RS41-SGP Details on http://radiosondy.info
W7BDB-13U22205572022-12-06 11:10:4144.9149-123.001167151811Clb=7.7m/s p=811.2hPa t=-2.6C h=62.1% 401.40MHz Type=RS41-SGP Details on http://radiosondy.info
KG7GDB-12U22205572022-12-06 11:10:3644.9149-123.001124201778Clb=6.5m/s t=-3.3C h=64.6% p=814.5hPa 401.401 MHz Type=RS41-SGP ser=U2220557 Radiosonde
K6GDP-14U22205572022-12-06 11:10:3344.9149-123.001155131769Clb=3.2m/s calibration 27% 401.40MHz Type=RS41 Details on http://radiosondy.info
K6GDP-11U22205572022-12-06 11:10:3144.9151-123.001151171750Clb=6.5m/s t=-4.8C h=90.4% p=817.5hPa 401.400 MHz Type=RS41-SGP ser=U2220557 Radiosonde
KJ7NUX-14U22205572022-12-06 11:10:2844.9151-123.001130151741Clb=5.0m/s p=818.4hPa t=-4.8C h=92.7% 401.40MHz Type=RS41-SGP batt=2.9V Details on http://radiosondy.info
W7BDB-13U22205572022-12-06 11:10:2544.9151-123.00160151722Clb=5.6m/s p=820.3hPa t=-5.1C h=98.3% 401.40MHz Type=RS41-SGP batt=2.9V Details on http://radiosondy.info
K6GDP-14U22205572022-12-06 11:10:1644.915-123.00210171675Clb=4.7m/s calibration 15% Type=RS41 batt=2.9V Details on http://radiosondy.info
KJ7NUX-14U22205572022-12-06 11:10:1044.9149-123.00292171642Clb=2.6m/s p=828.8hPa t=-4.8C 401.40MHz Type=RS41-SGP Details on http://radiosondy.info
KG7GDB-12U22205572022-12-06 11:10:0544.9148-123.00227171616Clb=5.1m/s t=-4.6C h=99.6% p=831.4hPa 401.401 MHz Type=RS41-SGP ser=U2220557 Radiosonde
WA9ONY-10U22205572022-12-06 11:10:0344.9148-123.00227151605Clb=4.7m/s p=832.8hPa t=-4.5C h=99.1% 401.40MHz Type=RS41-SGP batt=2.9V Join https://groups.io/g/Balloons
WA9ONY-14U22205572022-12-06 11:10:0244.9148-123.002105151601Clb=4.6m/s p=833.2hPa t=-4.4C 401.40MHz Type=RS41-SGP batt=2.9V Join https://groups.io/g/Balloons
K6GDP-11U22205572022-12-06 11:10:0044.9148-123.00292151592Clb=4.0m/s t=-4.4C h=99.6% p=834.0hPa 401.400 MHz Type=RS41-SGP ser=U2220557 Radiosonde
KJ7NUX-14U22205572022-12-06 11:09:5444.9146-123.0035131569Clb=4.2m/s p=836.4hPa t=-4.2C h=99.0% 401.40MHz Type=RS41-SGP Details on http://radiosondy.info
WA9ONY-10U22205572022-12-06 11:09:5344.9146-123.0033151565Clb=4.0m/s p=836.8hPa t=-4.2C h=99.0% 401.40MHz Type=RS41-SGP Join https://groups.io/g/Balloons
WA9ONY-14U22205572022-12-06 11:09:5244.9145-123.00335131561Clb=3.9m/s p=837.3hPa t=-4.2C h=99.2% 401.40MHz Type=RS41-SGP Join https://groups.io/g/Balloons
WA9ONY-14U22205572022-12-06 11:09:4244.9144-123.00350131521Clb=5.7m/s p=841.4hPa t=-3.8C h=99.0% 401.40MHz Type=RS41-SGP Join https://groups.io/g/Balloons
WA9ONY-10U22205572022-12-06 11:09:4044.9144-123.00377131512Clb=4.6m/s p=842.4hPa t=-3.7C h=96.6% 401.40MHz Type=RS41-SGP Join https://groups.io/g/Balloons
KJ7NUX-14U22205572022-12-06 11:09:3844.9143-123.00356111502Clb=3.3m/s p=843.5hPa t=-3.6C h=96.0% 401.40MHz Type=RS41-SGP TxPastBurst=8h30m batt=2.9V Details on http://radiosondy.info
KG7GDB-12U22205572022-12-06 11:09:3444.9142-123.00335361487Clb=4.7m/s t=-3.5C h=97.5% p=845.2hPa 401.401 MHz Type=RS41-SGP ser=U2220557 Radiosonde
WA9ONY-14U22205572022-12-06 11:09:3244.9142-123.003106111479Clb=4.6m/s p=846.2hPa t=-3.4C h=96.9% 401.40MHz Type=RS41-SGP TxPastBurst=8h30m batt=2.9V Join https://groups.io/g/Balloons
WA9ONY-10U22205572022-12-06 11:09:3044.9142-123.00395131470Clb=4.4m/s p=847.1hPa t=-3.3C h=96.2% 401.40MHz Type=RS41-SGP TxPastBurst=8h30m batt=2.9V Join https://groups.io/g/Balloons
K6GDP-11U22205572022-12-06 11:09:2944.9142-123.00465191461Clb=4.9m/s t=-3.3C h=99.4% p=847.9hPa 401.400 MHz Type=RS41-SGP ser=U2220557 Radiosonde
W7BDB-13U22205572022-12-06 11:09:2344.9141-123.004125151442Clb=4.7m/s p=849.6hPa t=-3.1C h=97.5% 401.40MHz Type=RS41-SGP Details on http://radiosondy.info
WA9ONY-14U22205572022-12-06 11:09:2244.9141-123.004106191438Clb=3.6m/s p=850.5hPa t=-3.0C h=97.4% 401.40MHz Type=RS41-SGP Join https://groups.io/g/Balloons
KJ7NUX-14U22205572022-12-06 11:09:2044.9141-123.00467151431Clb=4.7m/s p=851.2hPa t=-2.9C h=96.1% 401.40MHz Type=RS41-SGP Details on http://radiosondy.info
WA9ONY-14U22205572022-12-06 11:09:1244.9138-123.00424171402Clb=2.6m/s p=854.3hPa t=-2.7C h=95.9% 401.40MHz Type=RS41-SGP Join https://groups.io/g/Balloons
WA9ONY-10U22205572022-12-06 11:09:1044.9138-123.004100201394Clb=4.5m/s p=854.9hPa t=-2.6C h=95.0% 401.40MHz Type=RS41-SGP Join https://groups.io/g/Balloons
W7BDB-13U22205572022-12-06 11:09:0844.9138-123.00479191387Clb=3.9m/s p=856.1hPa t=-2.5C h=93.0% 401.40MHz Type=RS41-SGP Details on http://radiosondy.info
KJ7NUX-14U22205572022-12-06 11:09:0444.9137-123.00440191375Clb=3.3m/s p=857.1hPa t=-2.4C h=93.4% 401.40MHz Type=RS41-SGP Details on http://radiosondy.info
KG7GDB-12U22205572022-12-06 11:09:0344.9136-123.00440221370Clb=5.7m/s t=-2.4C h=92.6% p=857.7hPa 401.401 MHz Type=RS41-SGP ser=U2220557 Radiosonde
WA9ONY-14U22205572022-12-06 11:09:0244.9136-123.00549191366Clb=5.0m/s p=858.1hPa t=-2.3C h=91.8% 401.40MHz Type=RS41-SGP batt=2.9V Join https://groups.io/g/Balloons
WA9ONY-10U22205572022-12-06 11:09:0044.9135-123.00554171357Clb=3.8m/s p=859.1hPa t=-2.2C h=93.0% 401.40MHz Type=RS41-SGP batt=2.9V Join https://groups.io/g/Balloons
K6GDP-11U22205572022-12-06 11:08:5844.9134-123.00514201344Clb=2.7m/s t=-2.1C h=91.5% p=860.7hPa 401.400 MHz Type=RS41-SGP ser=U2220557 Radiosonde
WA9ONY-14U22205572022-12-06 11:08:5244.9132-123.00536151323Clb=5.4m/s p=863.0hPa t=-1.8C h=89.3% 401.40MHz Type=RS41-SGP Join https://groups.io/g/Balloons
W7BDB-13U22205572022-12-06 11:08:5044.9131-123.00592111315Clb=3.0m/s p=863.6hPa t=-1.8C h=89.4% calibration 98% 401.40MHz Type=RS41-SGP TxPastBurst=8h30m batt=2.9V Details on http://radiosondy.info
KJ7NUX-14U22205572022-12-06 11:08:4844.9131-123.00582111305Clb=5.5m/s p=864.7hPa t=-1.7C h=87.9% 401.40MHz Type=RS41-SGP batt=2.9V Details on http://radiosondy.info
WA9ONY-14U22205572022-12-06 11:08:4344.913-123.00532371281Clb=3.3m/s p=867.4hPa t=-1.4C h=86.6% 401.40MHz Type=RS41-SGP Join https://groups.io/g/Balloons
WA9ONY-10U22205572022-12-06 11:08:4144.913-123.00534661273Clb=3.4m/s p=868.6hPa t=-1.4C h=87.8% 401.40MHz Type=RS41-SGP Join https://groups.io/g/Balloons
W7BDB-13U22205572022-12-06 11:08:3544.913-123.00512491246Clb=6.1m/s p=871.3hPa t=-1.1C h=84.7% calibration 98% 401.40MHz Type=RS41-SGP Details on http://radiosondy.info
KJ7NUX-14U22205572022-12-06 11:08:3344.913-123.005291111230Clb=4.5m/s p=873.1hPa t=-1.0C h=84.2% 401.40MHz Type=RS41-SGP Details on http://radiosondy.info
WA9ONY-10U22205572022-12-06 11:08:3044.913-123.0052111220Clb=4.6m/s p=874.0hPa t=-0.9C h=84.0% 401.40MHz Type=RS41-SGP batt=2.9V Join https://groups.io/g/Balloons
K6GDP-11U22205572022-12-06 11:08:2744.9129-123.0059591198Clb=4.9m/s t=-0.7C h=83.2% p=876.5hPa 401.400 MHz Type=RS41-SGP ser=U2220557 Radiosonde
WA9ONY-14U22205572022-12-06 11:08:2244.9129-123.00544131183Clb=5.3m/s p=878.2hPa t=-0.5C h=81.7% 401.40MHz Type=RS41-SGP Join https://groups.io/g/Balloons
WA9ONY-10U22205572022-12-06 11:08:2044.9128-123.00668151172Clb=5.2m/s p=879.5hPa t=-0.4C h=81.6% 401.40MHz Type=RS41-SGP Join https://groups.io/g/Balloons
W7BDB-13U22205572022-12-06 11:08:1944.9128-123.00692151168Clb=4.4m/s p=880.0hPa t=-0.4C h=82.3% calibration 98% 401.40MHz Type=RS41-SGP Details on http://radiosondy.info
KJ7NUX-14U22205572022-12-06 11:08:1644.9128-123.00672151155Clb=4.9m/s p=881.3hPa t=-0.2C h=81.7% 401.40MHz Type=RS41-SGP Details on http://radiosondy.info
WA9ONY-14U22205572022-12-06 11:08:1344.9128-123.00672151136Clb=4.2m/s p=883.2hPa t=-0.0C h=81.0% 401.40MHz Type=RS41-SGP Join https://groups.io/g/Balloons
WA9ONY-10U22205572022-12-06 11:08:1144.9128-123.006112151130Clb=3.6m/s p=884.0hPa t=-0.0C h=81.3% 401.40MHz Type=RS41-SGP Join https://groups.io/g/Balloons
W7BDB-13U22205572022-12-06 11:08:0344.9125-123.00614151098Clb=4.3m/s p=887.3hPa t=0.2C calibration 94% 401.40MHz Type=RS41-SGP batt=2.9V Details on http://radiosondy.info
WA9ONY-14U22205572022-12-06 11:08:0244.9125-123.00629131095Clb=3.9m/s p=887.9hPa t=0.3C h=79.6% 401.40MHz Type=RS41-SGP TxPastBurst=8h30m batt=2.9V Join https://groups.io/g/Balloons
KG7GDB-12U22205572022-12-06 11:08:0144.9125-123.00652131090Clb=4.8m/s t=0.4C h=79.8% p=888.5hPa 401.401 MHz Type=RS41-SGP ser=U2220557 Radiosonde
KJ7NUX-14U22205572022-12-06 11:08:0044.9124-123.00683171085Clb=4.7m/s p=888.9hPa t=0.4C h=78.9% 401.40MHz Type=RS41-SGP batt=2.9V Details on http://radiosondy.info
K6GDP-11U22205572022-12-06 11:07:5644.9125-123.00635871063Clb=6.2m/s t=0.6C h=77.9% p=891.5hPa 401.400 MHz Type=RS41-SGP ser=U2220557 Radiosonde
WA9ONY-14U22205572022-12-06 11:07:5244.9123-123.00634191047Clb=5.3m/s p=893.2hPa t=0.7C h=76.9% 401.40MHz Type=RS41-SGP Join https://groups.io/g/Balloons
WA9ONY-10U22205572022-12-06 11:07:5044.9123-123.00757191039Clb=3.5m/s p=894.1hPa t=0.8C h=76.8% 401.40MHz Type=RS41-SGP Join https://groups.io/g/Balloons
W7BDB-13U22205572022-12-06 11:07:4844.9122-123.00763131034Clb=3.6m/s p=895.0hPa t=0.9C calibration 90% 401.40MHz Type=RS41-SGP Details on http://radiosondy.info
KJ7NUX-14U22205572022-12-06 11:07:4444.9121-123.00728131013Clb=6.0m/s p=897.0hPa t=1.1C h=75.7% 401.40MHz Type=RS41-SGP Details on http://radiosondy.info
WA9ONY-14U22205572022-12-06 11:07:4244.912-123.00752111004Clb=5.5m/s p=898.1hPa t=1.2C h=75.5% 401.40MHz Type=RS41-SGP Join https://groups.io/g/Balloons
WA9ONY-10U22205572022-12-06 11:07:4044.912-123.007749994Clb=4.6m/s p=898.8hPa t=1.3C h=75.2% 401.40MHz Type=RS41-SGP Join https://groups.io/g/Balloons
WA9ONY-14U22205572022-12-06 11:07:3244.9119-123.00711017958Clb=6.4m/s p=903.2hPa t=1.6C h=73.5% 401.40MHz Type=RS41-SGP batt=2.9V Join https://groups.io/g/Balloons
W7BDB-13U22205572022-12-06 11:07:3044.9119-123.0073515948Clb=5.0m/s t=1.7C calibration 88% 401.40MHz Type=RS41-SGP Details on http://radiosondy.info
KJ7NUX-14U22205572022-12-06 11:07:2844.9118-123.0073915938Clb=4.0m/s p=905.2hPa t=1.8C h=72.8% calibration 98% 401.40MHz Type=RS41-SGP Details on http://radiosondy.info
K6GDP-11U22205572022-12-06 11:07:2544.9117-123.0077120923Clb=3.3m/s t=2.0C h=72.1% p=-1.0hPa 401.400 MHz Type=RS41 ser=U2220557 Radiosonde
WA9ONY-14U22205572022-12-06 11:07:2244.9117-123.0088111917Clb=3.8m/s p=907.7hPa t=2.0C h=71.9% 401.40MHz Type=RS41-SGP Join https://groups.io/g/Balloons
WA9ONY-10U22205572022-12-06 11:07:2044.9117-123.00835211909Clb=4.6m/s p=908.7hPa t=2.1C h=71.7% 401.40MHz Type=RS41-SGP Join https://groups.io/g/Balloons
W7BDB-13U22205572022-12-06 11:07:1544.9115-123.0083559889Clb=3.6m/s t=2.3C calibration 88% 401.40MHz Type=RS41-SGP batt=2.9V Details on http://radiosondy.info
KJ7NUX-14U22205572022-12-06 11:07:1244.9114-123.008419871Clb=6.3m/s p=912.7hPa t=2.4C h=69.8% calibration 98% 401.40MHz Type=RS41-SGP TxPastBurst=8h30m batt=2.9V Details on http://radiosondy.info
WA9ONY-10U22205572022-12-06 11:07:1044.9114-123.0081129860Clb=5.5m/s p=913.9hPa t=2.5C calibration 86% 401.40MHz Type=RS41-SGP Join https://groups.io/g/Balloons
WA9ONY-14U22205572022-12-06 11:07:0244.9114-123.0081159819Clb=3.7m/s p=918.3hPa calibration 70% 401.40MHz Type=RS41-SGP batt=2.9V Join https://groups.io/g/Balloons
W7BDB-13U22205572022-12-06 11:07:0144.9114-123.008749810Clb=3.9m/s calibration 64% 401.40MHz Type=RS41-SGP Details on http://radiosondy.info
WA9ONY-10U22205572022-12-06 11:07:0044.9114-123.008749810Clb=3.9m/s p=919.6hPa calibration 70% 401.40MHz Type=RS41-SGP batt=2.9V Join https://groups.io/g/Balloons
KG7GDB-12U22205572022-12-06 11:06:5944.9114-123.0085113801Clb=4.0m/s t=3.1C h=67.3% p=921.0hPa 401.401 MHz Type=RS41-SGP ser=U2220557 Radiosonde
KJ7NUX-14U22205572022-12-06 11:06:5444.9113-123.008859782Clb=4.4m/s p=922.7hPa t=3.3C h=66.9% calibration 98% 401.40MHz Type=RS41-SGP Details on http://radiosondy.info
WA9ONY-14U22205572022-12-06 11:06:5244.9113-123.008119774Clb=3.9m/s p=923.7hPa calibration 52% Type=RS41-SGP Join https://groups.io/g/Balloons
WA9ONY-10U22205572022-12-06 11:06:5044.9113-123.0088511766Clb=3.1m/s p=925.0hPa calibration 50% Type=RS41-SGP Join https://groups.io/g/Balloons
W7BDB-13U22205572022-12-06 11:06:4544.9113-123.0082311741Clb=5.6m/s calibration 37% Type=RS41-SGP Details on http://radiosondy.info
WA9ONY-14U22205572022-12-06 11:06:4244.9112-123.0088911727Clb=4.6m/s calibration 33% Type=RS41-SGP Join https://groups.io/g/Balloons
WA9ONY-10U22205572022-12-06 11:06:4044.9112-123.008411716Clb=4.8m/s calibration 31% Type=RS41-SGP Join https://groups.io/g/Balloons
KJ7NUX-14U22205572022-12-06 11:06:3844.9112-123.0081715706Clb=4.2m/s p=931.8hPa t=4.1C h=63.9% calibration 96% 401.40MHz Type=RS41-SGP Details on http://radiosondy.info
WA9ONY-14U22205572022-12-06 11:06:3144.911-123.009417672Clb=7.0m/s calibration 11% Type=RS41 batt=2.9V Join https://groups.io/g/Balloons
W7BDB-13U22205572022-12-06 11:06:3044.911-123.0092919665Clb=6.4m/s calibration 7% Type=RS41 batt=2.9V Details on http://radiosondy.info
KG7GDB-12U22205572022-12-06 11:06:2844.9109-123.0097717651Clb=4.2m/s t=4.4C h=65.8% p=938.0hPa 401.401 MHz Type=RS41-SGP ser=U2220557 Radiosonde
K6GDP-11U22205572022-12-06 11:06:2544.9107-123.0094215623Clb=5.4m/s t=-273.0C h=-1.0% p=-1.0hPa 401.400 MHz Type=RS41 ser=U2220557 Radiosonde
KJ7NUX-14U22205572022-12-06 11:06:2044.9107-123.009809618Clb=4.6m/s p=941.8hPa t=4.1C h=71.3% calibration 96% 401.40MHz Type=RS41-SGP batt=2.9V Details on http://radiosondy.info
KJ7NUX-14U22205572022-12-06 11:06:0444.9107-123.00918711533Clb=6.3m/s p=951.7hPa calibration 88% 401.40MHz Type=RS41-SGP Details on http://radiosondy.info
KG7GDB-12U22205572022-12-06 11:05:5744.9108-123.00932713486Clb=5.0m/s t=-273.0C h=-1.0% p=-1.0hPa 401.401 MHz Type=RS41-SGP ser=U2220557 Radiosonde
KJ7NUX-14U22205572022-12-06 11:05:4844.9108-123.0122315451Clb=5.6m/s calibration 74% 401.40MHz Type=RS41-SGP Details on http://radiosondy.info